<?xml version="1.0" encoding="UTF-8" standalone="no" ?>
<gpx xmlns="http://www.topografix.com/GPX/1/1" xmlns:xsi="http://www.w3.org/2001/XMLSchema-instance" xsi:schemaLocation="http://www.topografix.com/GPX/1/1 http://www.topografix.com/GPX/1/1/gpx.xsd" version="1.1" creator="VisuGPX - https://www.visugpx.com">
  <metadata>
    <name>Sainte Victoire </name>
    <desc><![CDATA[grp_trc:[nouvelles]]]></desc>
  </metadata>
  <trk>
    <name><![CDATA[15 juil. 2022 à 05:59:05]]></name>
    <cmt><![CDATA[15 juil. 2022 à 05:59:05]]></cmt>
    <trkseg>
      <trkpt lat="45.99701" lon="6.83401">
        <ele>1946</ele>
        <time>2022-07-15T03:59:06Z</time>
      </trkpt>
      <trkpt lat="45.99701" lon="6.83402">
        <ele>1947</ele>
        <time>2022-07-15T03:59:07Z</time>
      </trkpt>
      <trkpt lat="45.99699" lon="6.83408">
        <ele>1945</ele>
        <time>2022-07-15T03:59:17Z</time>
      </trkpt>
      <trkpt lat="45.99701" lon="6.83417">
        <ele>1939</ele>
        <time>2022-07-15T03:59:47Z</time>
      </trkpt>
      <trkpt lat="45.99701" lon="6.83416">
        <ele>1939</ele>
        <time>2022-07-15T04:09:06Z</time>
      </trkpt>
      <trkpt lat="45.99693" lon="6.8342">
        <ele>1938</ele>
        <time>2022-07-15T04:18:25Z</time>
      </trkpt>
      <trkpt lat="45.99688" lon="6.8342">
        <ele>1938</ele>
        <time>2022-07-15T04:18:29Z</time>
      </trkpt>
      <trkpt lat="45.99684" lon="6.83418">
        <ele>1937</ele>
        <time>2022-07-15T04:18:33Z</time>
      </trkpt>
      <trkpt lat="45.9968" lon="6.83414">
        <ele>1937</ele>
        <time>2022-07-15T04:18:37Z</time>
      </trkpt>
      <trkpt lat="45.9968" lon="6.83413">
        <ele>1937</ele>
        <time>2022-07-15T04:35:36Z</time>
      </trkpt>
      <trkpt lat="45.99684" lon="6.83418">
        <ele>1938</ele>
        <time>2022-07-15T04:38:23Z</time>
      </trkpt>
      <trkpt lat="45.99691" lon="6.83418">
        <ele>1937</ele>
        <time>2022-07-15T04:38:29Z</time>
      </trkpt>
      <trkpt lat="45.997" lon="6.8342">
        <ele>1938</ele>
        <time>2022-07-15T04:38:37Z</time>
      </trkpt>
      <trkpt lat="45.99704" lon="6.83419">
        <ele>1938</ele>
        <time>2022-07-15T04:41:06Z</time>
      </trkpt>
      <trkpt lat="45.99721" lon="6.83438">
        <ele>1938</ele>
        <time>2022-07-15T04:41:16Z</time>
      </trkpt>
      <trkpt lat="45.99733" lon="6.8345">
        <ele>1937</ele>
        <time>2022-07-15T04:41:22Z</time>
      </trkpt>
      <trkpt lat="45.99738" lon="6.83453">
        <ele>1937</ele>
        <time>2022-07-15T04:41:24Z</time>
      </trkpt>
      <trkpt lat="45.99743" lon="6.83456">
        <ele>1938</ele>
        <time>2022-07-15T04:41:29Z</time>
      </trkpt>
      <trkpt lat="45.99746" lon="6.83466">
        <ele>1939</ele>
        <time>2022-07-15T04:41:39Z</time>
      </trkpt>
      <trkpt lat="45.99749" lon="6.83462">
        <ele>1940</ele>
        <time>2022-07-15T04:43:09Z</time>
      </trkpt>
      <trkpt lat="45.99746" lon="6.83456">
        <ele>1940</ele>
        <time>2022-07-15T04:43:14Z</time>
      </trkpt>
      <trkpt lat="45.99738" lon="6.83444">
        <ele>1938</ele>
        <time>2022-07-15T04:43:23Z</time>
      </trkpt>
      <trkpt lat="45.99735" lon="6.8344">
        <ele>1938</ele>
        <time>2022-07-15T04:43:27Z</time>
      </trkpt>
      <trkpt lat="45.99733" lon="6.83433">
        <ele>1938</ele>
        <time>2022-07-15T04:43:31Z</time>
      </trkpt>
      <trkpt lat="45.99714" lon="6.83428">
        <ele>1939</ele>
        <time>2022-07-15T04:43:48Z</time>
      </trkpt>
      <trkpt lat="45.9971" lon="6.83425">
        <ele>1940</ele>
        <time>2022-07-15T04:43:52Z</time>
      </trkpt>
      <trkpt lat="45.99706" lon="6.83421">
        <ele>1939</ele>
        <time>2022-07-15T04:43:56Z</time>
      </trkpt>
      <trkpt lat="45.99702" lon="6.83418">
        <ele>1940</ele>
        <time>2022-07-15T04:44:14Z</time>
      </trkpt>
      <trkpt lat="45.99697" lon="6.83419">
        <ele>1940</ele>
        <time>2022-07-15T04:45:25Z</time>
      </trkpt>
      <trkpt lat="45.99693" lon="6.83422">
        <ele>1939</ele>
        <time>2022-07-15T04:45:29Z</time>
      </trkpt>
      <trkpt lat="45.99685" lon="6.83432">
        <ele>1939</ele>
        <time>2022-07-15T04:45:38Z</time>
      </trkpt>
      <trkpt lat="45.99683" lon="6.83438">
        <ele>1939</ele>
        <time>2022-07-15T04:45:42Z</time>
      </trkpt>
      <trkpt lat="45.9968" lon="6.83443">
        <ele>1939</ele>
        <time>2022-07-15T04:45:46Z</time>
      </trkpt>
      <trkpt lat="45.99679" lon="6.8344">
        <ele>1937</ele>
        <time>2022-07-15T04:46:29Z</time>
      </trkpt>
      <trkpt lat="45.9969" lon="6.83429">
        <ele>1940</ele>
        <time>2022-07-15T04:46:44Z</time>
      </trkpt>
      <trkpt lat="45.99694" lon="6.83427">
        <ele>1940</ele>
        <time>2022-07-15T04:46:48Z</time>
      </trkpt>
      <trkpt lat="45.99692" lon="6.83427">
        <ele>1939</ele>
        <time>2022-07-15T04:48:19Z</time>
      </trkpt>
      <trkpt lat="45.99688" lon="6.83432">
        <ele>1939</ele>
        <time>2022-07-15T04:48:23Z</time>
      </trkpt>
      <trkpt lat="45.99692" lon="6.8343">
        <ele>1940</ele>
        <time>2022-07-15T04:48:39Z</time>
      </trkpt>
      <trkpt lat="45.99696" lon="6.83425">
        <ele>1940</ele>
        <time>2022-07-15T04:48:43Z</time>
      </trkpt>
      <trkpt lat="45.99704" lon="6.83418">
        <ele>1939</ele>
        <time>2022-07-15T04:48:51Z</time>
      </trkpt>
      <trkpt lat="45.99708" lon="6.83416">
        <ele>1939</ele>
        <time>2022-07-15T04:50:15Z</time>
      </trkpt>
      <trkpt lat="45.99721" lon="6.83417">
        <ele>1941</ele>
        <time>2022-07-15T04:50:29Z</time>
      </trkpt>
      <trkpt lat="45.99727" lon="6.83417">
        <ele>1941</ele>
        <time>2022-07-15T04:50:34Z</time>
      </trkpt>
      <trkpt lat="45.99732" lon="6.83416">
        <ele>1941</ele>
        <time>2022-07-15T04:50:39Z</time>
      </trkpt>
      <trkpt lat="45.99737" lon="6.83419">
        <ele>1940</ele>
        <time>2022-07-15T04:50:44Z</time>
      </trkpt>
      <trkpt lat="45.99742" lon="6.83422">
        <ele>1940</ele>
        <time>2022-07-15T04:50:49Z</time>
      </trkpt>
      <trkpt lat="45.9975" lon="6.83426">
        <ele>1940</ele>
        <time>2022-07-15T04:50:57Z</time>
      </trkpt>
      <trkpt lat="45.99754" lon="6.8343">
        <ele>1940</ele>
        <time>2022-07-15T04:51:01Z</time>
      </trkpt>
      <trkpt lat="45.99758" lon="6.83432">
        <ele>1940</ele>
        <time>2022-07-15T04:51:05Z</time>
      </trkpt>
      <trkpt lat="45.99762" lon="6.83436">
        <ele>1940</ele>
        <time>2022-07-15T04:51:09Z</time>
      </trkpt>
      <trkpt lat="45.99766" lon="6.83438">
        <ele>1941</ele>
        <time>2022-07-15T04:51:16Z</time>
      </trkpt>
      <trkpt lat="45.99772" lon="6.8344">
        <ele>1943</ele>
        <time>2022-07-15T04:51:26Z</time>
      </trkpt>
      <trkpt lat="45.9978" lon="6.83445">
        <ele>1945</ele>
        <time>2022-07-15T04:51:37Z</time>
      </trkpt>
      <trkpt lat="45.998" lon="6.83445">
        <ele>1949</ele>
        <time>2022-07-15T04:52:04Z</time>
      </trkpt>
      <trkpt lat="45.99825" lon="6.83456">
        <ele>1954</ele>
        <time>2022-07-15T04:52:42Z</time>
      </trkpt>
      <trkpt lat="45.99839" lon="6.83466">
        <ele>1957</ele>
        <time>2022-07-15T04:53:02Z</time>
      </trkpt>
      <trkpt lat="45.99846" lon="6.83466">
        <ele>1958</ele>
        <time>2022-07-15T04:53:12Z</time>
      </trkpt>
      <trkpt lat="45.99866" lon="6.83469">
        <ele>1960</ele>
        <time>2022-07-15T04:53:35Z</time>
      </trkpt>
      <trkpt lat="45.9987" lon="6.83467">
        <ele>1961</ele>
        <time>2022-07-15T04:53:40Z</time>
      </trkpt>
      <trkpt lat="45.99881" lon="6.83471">
        <ele>1963</ele>
        <time>2022-07-15T04:53:56Z</time>
      </trkpt>
      <trkpt lat="45.99885" lon="6.8347">
        <ele>1964</ele>
        <time>2022-07-15T04:54:00Z</time>
      </trkpt>
      <trkpt lat="45.99889" lon="6.83469">
        <ele>1964</ele>
        <time>2022-07-15T04:54:04Z</time>
      </trkpt>
      <trkpt lat="45.99893" lon="6.83471">
        <ele>1964</ele>
        <time>2022-07-15T04:54:08Z</time>
      </trkpt>
      <trkpt lat="45.99914" lon="6.8347">
        <ele>1968</ele>
        <time>2022-07-15T04:54:36Z</time>
      </trkpt>
      <trkpt lat="45.9992" lon="6.83466">
        <ele>1970</ele>
        <time>2022-07-15T04:54:46Z</time>
      </trkpt>
      <trkpt lat="45.99933" lon="6.83476">
        <ele>1973</ele>
        <time>2022-07-15T04:55:06Z</time>
      </trkpt>
      <trkpt lat="45.99936" lon="6.83483">
        <ele>1974</ele>
        <time>2022-07-15T04:55:12Z</time>
      </trkpt>
      <trkpt lat="45.99937" lon="6.8349">
        <ele>1975</ele>
        <time>2022-07-15T04:55:19Z</time>
      </trkpt>
      <trkpt lat="45.99941" lon="6.83499">
        <ele>1976</ele>
        <time>2022-07-15T04:55:29Z</time>
      </trkpt>
      <trkpt lat="45.99945" lon="6.83507">
        <ele>1978</ele>
        <time>2022-07-15T04:55:39Z</time>
      </trkpt>
      <trkpt lat="45.99963" lon="6.83516">
        <ele>1982</ele>
        <time>2022-07-15T04:56:08Z</time>
      </trkpt>
      <trkpt lat="45.99965" lon="6.83524">
        <ele>1984</ele>
        <time>2022-07-15T04:56:19Z</time>
      </trkpt>
      <trkpt lat="45.99973" lon="6.83527">
        <ele>1986</ele>
        <time>2022-07-15T04:56:29Z</time>
      </trkpt>
      <trkpt lat="45.99974" lon="6.83536">
        <ele>1988</ele>
        <time>2022-07-15T04:56:39Z</time>
      </trkpt>
      <trkpt lat="45.99976" lon="6.83543">
        <ele>1989</ele>
        <time>2022-07-15T04:56:44Z</time>
      </trkpt>
      <trkpt lat="45.9998" lon="6.83548">
        <ele>1990</ele>
        <time>2022-07-15T04:56:51Z</time>
      </trkpt>
      <trkpt lat="45.99988" lon="6.83563">
        <ele>1994</ele>
        <time>2022-07-15T04:57:11Z</time>
      </trkpt>
      <trkpt lat="46.00006" lon="6.83585">
        <ele>1999</ele>
        <time>2022-07-15T04:57:43Z</time>
      </trkpt>
      <trkpt lat="46.00012" lon="6.83593">
        <ele>2001</ele>
        <time>2022-07-15T04:57:54Z</time>
      </trkpt>
      <trkpt lat="46.00014" lon="6.83605">
        <ele>2002</ele>
        <time>2022-07-15T04:58:04Z</time>
      </trkpt>
      <trkpt lat="46.00028" lon="6.83618">
        <ele>2006</ele>
        <time>2022-07-15T04:58:27Z</time>
      </trkpt>
      <trkpt lat="46.00042" lon="6.83637">
        <ele>2009</ele>
        <time>2022-07-15T04:58:49Z</time>
      </trkpt>
      <trkpt lat="46.00046" lon="6.83638">
        <ele>2009</ele>
        <time>2022-07-15T04:58:53Z</time>
      </trkpt>
      <trkpt lat="46.00051" lon="6.83641">
        <ele>2009</ele>
        <time>2022-07-15T04:58:58Z</time>
      </trkpt>
      <trkpt lat="46.00055" lon="6.83644">
        <ele>2010</ele>
        <time>2022-07-15T04:59:03Z</time>
      </trkpt>
      <trkpt lat="46.00062" lon="6.8365">
        <ele>2011</ele>
        <time>2022-07-15T04:59:12Z</time>
      </trkpt>
      <trkpt lat="46.00066" lon="6.83655">
        <ele>2012</ele>
        <time>2022-07-15T04:59:29Z</time>
      </trkpt>
      <trkpt lat="46.00086" lon="6.83672">
        <ele>2015</ele>
        <time>2022-07-15T04:59:52Z</time>
      </trkpt>
      <trkpt lat="46.00095" lon="6.83686">
        <ele>2015</ele>
        <time>2022-07-15T05:00:04Z</time>
      </trkpt>
      <trkpt lat="46.00108" lon="6.83697">
        <ele>2017</ele>
        <time>2022-07-15T05:00:18Z</time>
      </trkpt>
      <trkpt lat="46.00113" lon="6.83707">
        <ele>2017</ele>
        <time>2022-07-15T05:00:26Z</time>
      </trkpt>
      <trkpt lat="46.00122" lon="6.83716">
        <ele>2018</ele>
        <time>2022-07-15T05:00:37Z</time>
      </trkpt>
      <trkpt lat="46.00129" lon="6.83724">
        <ele>2018</ele>
        <time>2022-07-15T05:00:45Z</time>
      </trkpt>
      <trkpt lat="46.00133" lon="6.83729">
        <ele>2018</ele>
        <time>2022-07-15T05:00:50Z</time>
      </trkpt>
      <trkpt lat="46.00137" lon="6.83732">
        <ele>2019</ele>
        <time>2022-07-15T05:00:54Z</time>
      </trkpt>
      <trkpt lat="46.00141" lon="6.83736">
        <ele>2019</ele>
        <time>2022-07-15T05:00:58Z</time>
      </trkpt>
      <trkpt lat="46.00149" lon="6.83743">
        <ele>2018</ele>
        <time>2022-07-15T05:01:06Z</time>
      </trkpt>
      <trkpt lat="46.00161" lon="6.83753">
        <ele>2019</ele>
        <time>2022-07-15T05:01:18Z</time>
      </trkpt>
      <trkpt lat="46.00165" lon="6.83755">
        <ele>2019</ele>
        <time>2022-07-15T05:01:23Z</time>
      </trkpt>
      <trkpt lat="46.0017" lon="6.83762">
        <ele>2020</ele>
        <time>2022-07-15T05:01:30Z</time>
      </trkpt>
      <trkpt lat="46.00177" lon="6.83769">
        <ele>2021</ele>
        <time>2022-07-15T05:01:40Z</time>
      </trkpt>
      <trkpt lat="46.00192" lon="6.83775">
        <ele>2024</ele>
        <time>2022-07-15T05:01:57Z</time>
      </trkpt>
      <trkpt lat="46.00195" lon="6.83781">
        <ele>2024</ele>
        <time>2022-07-15T05:02:02Z</time>
      </trkpt>
      <trkpt lat="46.00203" lon="6.83791">
        <ele>2026</ele>
        <time>2022-07-15T05:02:15Z</time>
      </trkpt>
      <trkpt lat="46.00213" lon="6.83796">
        <ele>2028</ele>
        <time>2022-07-15T05:02:27Z</time>
      </trkpt>
      <trkpt lat="46.00223" lon="6.83805">
        <ele>2031</ele>
        <time>2022-07-15T05:02:47Z</time>
      </trkpt>
      <trkpt lat="46.00227" lon="6.83812">
        <ele>2033</ele>
        <time>2022-07-15T05:02:57Z</time>
      </trkpt>
      <trkpt lat="46.00231" lon="6.83818">
        <ele>2035</ele>
        <time>2022-07-15T05:03:07Z</time>
      </trkpt>
      <trkpt lat="46.0024" lon="6.83821">
        <ele>2037</ele>
        <time>2022-07-15T05:03:18Z</time>
      </trkpt>
      <trkpt lat="46.00243" lon="6.83828">
        <ele>2037</ele>
        <time>2022-07-15T05:03:26Z</time>
      </trkpt>
      <trkpt lat="46.00247" lon="6.83834">
        <ele>2039</ele>
        <time>2022-07-15T05:03:36Z</time>
      </trkpt>
      <trkpt lat="46.0025" lon="6.8385">
        <ele>2043</ele>
        <time>2022-07-15T05:03:56Z</time>
      </trkpt>
      <trkpt lat="46.00251" lon="6.83859">
        <ele>2045</ele>
        <time>2022-07-15T05:04:06Z</time>
      </trkpt>
      <trkpt lat="46.00264" lon="6.83885">
        <ele>2048</ele>
        <time>2022-07-15T05:04:35Z</time>
      </trkpt>
      <trkpt lat="46.00267" lon="6.83892">
        <ele>2051</ele>
        <time>2022-07-15T05:04:45Z</time>
      </trkpt>
      <trkpt lat="46.00273" lon="6.83902">
        <ele>2054</ele>
        <time>2022-07-15T05:05:05Z</time>
      </trkpt>
      <trkpt lat="46.00276" lon="6.83907">
        <ele>2057</ele>
        <time>2022-07-15T05:05:20Z</time>
      </trkpt>
      <trkpt lat="46.00281" lon="6.83913">
        <ele>2058</ele>
        <time>2022-07-15T05:05:35Z</time>
      </trkpt>
      <trkpt lat="46.00284" lon="6.83917">
        <ele>2060</ele>
        <time>2022-07-15T05:05:45Z</time>
      </trkpt>
      <trkpt lat="46.00292" lon="6.83928">
        <ele>2064</ele>
        <time>2022-07-15T05:06:05Z</time>
      </trkpt>
      <trkpt lat="46.00299" lon="6.83931">
        <ele>2066</ele>
        <time>2022-07-15T05:06:16Z</time>
      </trkpt>
      <trkpt lat="46.00303" lon="6.83927">
        <ele>2067</ele>
        <time>2022-07-15T05:06:21Z</time>
      </trkpt>
      <trkpt lat="46.00309" lon="6.83927">
        <ele>2068</ele>
        <time>2022-07-15T05:06:29Z</time>
      </trkpt>
      <trkpt lat="46.00315" lon="6.83931">
        <ele>2069</ele>
        <time>2022-07-15T05:06:39Z</time>
      </trkpt>
      <trkpt lat="46.00318" lon="6.83936">
        <ele>2070</ele>
        <time>2022-07-15T05:06:49Z</time>
      </trkpt>
      <trkpt lat="46.00323" lon="6.83933">
        <ele>2072</ele>
        <time>2022-07-15T05:06:59Z</time>
      </trkpt>
      <trkpt lat="46.00328" lon="6.83931">
        <ele>2074</ele>
        <time>2022-07-15T05:07:09Z</time>
      </trkpt>
      <trkpt lat="46.00334" lon="6.83932">
        <ele>2076</ele>
        <time>2022-07-15T05:07:19Z</time>
      </trkpt>
      <trkpt lat="46.00336" lon="6.83925">
        <ele>2078</ele>
        <time>2022-07-15T05:07:29Z</time>
      </trkpt>
      <trkpt lat="46.00342" lon="6.8392">
        <ele>2081</ele>
        <time>2022-07-15T05:07:44Z</time>
      </trkpt>
      <trkpt lat="46.00347" lon="6.83919">
        <ele>2082</ele>
        <time>2022-07-15T05:07:54Z</time>
      </trkpt>
      <trkpt lat="46.00354" lon="6.8392">
        <ele>2084</ele>
        <time>2022-07-15T05:08:04Z</time>
      </trkpt>
      <trkpt lat="46.00359" lon="6.83919">
        <ele>2085</ele>
        <time>2022-07-15T05:08:14Z</time>
      </trkpt>
      <trkpt lat="46.00367" lon="6.83921">
        <ele>2087</ele>
        <time>2022-07-15T05:08:24Z</time>
      </trkpt>
      <trkpt lat="46.00378" lon="6.8393">
        <ele>2089</ele>
        <time>2022-07-15T05:08:38Z</time>
      </trkpt>
      <trkpt lat="46.00383" lon="6.83932">
        <ele>2089</ele>
        <time>2022-07-15T05:08:44Z</time>
      </trkpt>
      <trkpt lat="46.00387" lon="6.83936">
        <ele>2090</ele>
        <time>2022-07-15T05:08:51Z</time>
      </trkpt>
      <trkpt lat="46.00409" lon="6.83947">
        <ele>2096</ele>
        <time>2022-07-15T05:09:24Z</time>
      </trkpt>
      <trkpt lat="46.00415" lon="6.83952">
        <ele>2097</ele>
        <time>2022-07-15T05:09:34Z</time>
      </trkpt>
      <trkpt lat="46.00421" lon="6.83955">
        <ele>2099</ele>
        <time>2022-07-15T05:09:44Z</time>
      </trkpt>
      <trkpt lat="46.00429" lon="6.83977">
        <ele>2102</ele>
        <time>2022-07-15T05:10:04Z</time>
      </trkpt>
      <trkpt lat="46.00456" lon="6.84002">
        <ele>2107</ele>
        <time>2022-07-15T05:10:39Z</time>
      </trkpt>
      <trkpt lat="46.00462" lon="6.84007">
        <ele>2108</ele>
        <time>2022-07-15T05:10:47Z</time>
      </trkpt>
      <trkpt lat="46.00483" lon="6.84014">
        <ele>2111</ele>
        <time>2022-07-15T05:11:12Z</time>
      </trkpt>
      <trkpt lat="46.00491" lon="6.84014">
        <ele>2112</ele>
        <time>2022-07-15T05:11:20Z</time>
      </trkpt>
      <trkpt lat="46.00495" lon="6.84011">
        <ele>2113</ele>
        <time>2022-07-15T05:11:25Z</time>
      </trkpt>
      <trkpt lat="46.00509" lon="6.84008">
        <ele>2114</ele>
        <time>2022-07-15T05:11:41Z</time>
      </trkpt>
      <trkpt lat="46.00536" lon="6.84024">
        <ele>2119</ele>
        <time>2022-07-15T05:12:15Z</time>
      </trkpt>
      <trkpt lat="46.00542" lon="6.84032">
        <ele>2120</ele>
        <time>2022-07-15T05:12:25Z</time>
      </trkpt>
      <trkpt lat="46.00553" lon="6.84038">
        <ele>2122</ele>
        <time>2022-07-15T05:12:39Z</time>
      </trkpt>
      <trkpt lat="46.00563" lon="6.84045">
        <ele>2124</ele>
        <time>2022-07-15T05:12:53Z</time>
      </trkpt>
      <trkpt lat="46.00568" lon="6.84052">
        <ele>2125</ele>
        <time>2022-07-15T05:13:03Z</time>
      </trkpt>
      <trkpt lat="46.00572" lon="6.84056">
        <ele>2127</ele>
        <time>2022-07-15T05:13:13Z</time>
      </trkpt>
      <trkpt lat="46.00575" lon="6.84062">
        <ele>2129</ele>
        <time>2022-07-15T05:13:23Z</time>
      </trkpt>
      <trkpt lat="46.00577" lon="6.84069">
        <ele>2130</ele>
        <time>2022-07-15T05:13:33Z</time>
      </trkpt>
      <trkpt lat="46.00583" lon="6.84072">
        <ele>2132</ele>
        <time>2022-07-15T05:13:43Z</time>
      </trkpt>
      <trkpt lat="46.00588" lon="6.84076">
        <ele>2133</ele>
        <time>2022-07-15T05:13:53Z</time>
      </trkpt>
      <trkpt lat="46.00594" lon="6.84078">
        <ele>2135</ele>
        <time>2022-07-15T05:14:04Z</time>
      </trkpt>
      <trkpt lat="46.00599" lon="6.84082">
        <ele>2136</ele>
        <time>2022-07-15T05:14:10Z</time>
      </trkpt>
      <trkpt lat="46.00603" lon="6.84084">
        <ele>2137</ele>
        <time>2022-07-15T05:14:17Z</time>
      </trkpt>
      <trkpt lat="46.00609" lon="6.84088">
        <ele>2139</ele>
        <time>2022-07-15T05:14:27Z</time>
      </trkpt>
      <trkpt lat="46.00619" lon="6.84101">
        <ele>2142</ele>
        <time>2022-07-15T05:14:49Z</time>
      </trkpt>
      <trkpt lat="46.00629" lon="6.84106">
        <ele>2144</ele>
        <time>2022-07-15T05:15:05Z</time>
      </trkpt>
      <trkpt lat="46.00632" lon="6.84114">
        <ele>2146</ele>
        <time>2022-07-15T05:15:15Z</time>
      </trkpt>
      <trkpt lat="46.00641" lon="6.84121">
        <ele>2149</ele>
        <time>2022-07-15T05:15:35Z</time>
      </trkpt>
      <trkpt lat="46.0064" lon="6.84127">
        <ele>2151</ele>
        <time>2022-07-15T05:15:50Z</time>
      </trkpt>
      <trkpt lat="46.00646" lon="6.84129">
        <ele>2153</ele>
        <time>2022-07-15T05:16:05Z</time>
      </trkpt>
      <trkpt lat="46.00647" lon="6.84146">
        <ele>2158</ele>
        <time>2022-07-15T05:16:25Z</time>
      </trkpt>
      <trkpt lat="46.00655" lon="6.84159">
        <ele>2161</ele>
        <time>2022-07-15T05:16:46Z</time>
      </trkpt>
      <trkpt lat="46.00659" lon="6.8417">
        <ele>2164</ele>
        <time>2022-07-15T05:17:02Z</time>
      </trkpt>
      <trkpt lat="46.00662" lon="6.84176">
        <ele>2164</ele>
        <time>2022-07-15T05:17:07Z</time>
      </trkpt>
      <trkpt lat="46.00666" lon="6.84183">
        <ele>2166</ele>
        <time>2022-07-15T05:17:16Z</time>
      </trkpt>
      <trkpt lat="46.0067" lon="6.84191">
        <ele>2167</ele>
        <time>2022-07-15T05:17:26Z</time>
      </trkpt>
      <trkpt lat="46.00672" lon="6.84198">
        <ele>2167</ele>
        <time>2022-07-15T05:17:31Z</time>
      </trkpt>
      <trkpt lat="46.00672" lon="6.84206">
        <ele>2168</ele>
        <time>2022-07-15T05:17:38Z</time>
      </trkpt>
      <trkpt lat="46.00677" lon="6.84218">
        <ele>2171</ele>
        <time>2022-07-15T05:17:55Z</time>
      </trkpt>
      <trkpt lat="46.00687" lon="6.84235">
        <ele>2174</ele>
        <time>2022-07-15T05:18:15Z</time>
      </trkpt>
      <trkpt lat="46.0069" lon="6.84246">
        <ele>2175</ele>
        <time>2022-07-15T05:18:25Z</time>
      </trkpt>
      <trkpt lat="46.00693" lon="6.84255">
        <ele>2176</ele>
        <time>2022-07-15T05:18:34Z</time>
      </trkpt>
      <trkpt lat="46.00691" lon="6.84264">
        <ele>2178</ele>
        <time>2022-07-15T05:18:44Z</time>
      </trkpt>
      <trkpt lat="46.00679" lon="6.84277">
        <ele>2181</ele>
        <time>2022-07-15T05:19:07Z</time>
      </trkpt>
      <trkpt lat="46.00664" lon="6.84292">
        <ele>2187</ele>
        <time>2022-07-15T05:19:42Z</time>
      </trkpt>
      <trkpt lat="46.00659" lon="6.84295">
        <ele>2190</ele>
        <time>2022-07-15T05:19:57Z</time>
      </trkpt>
      <trkpt lat="46.00653" lon="6.84305">
        <ele>2191</ele>
        <time>2022-07-15T05:20:09Z</time>
      </trkpt>
      <trkpt lat="46.00648" lon="6.84322">
        <ele>2194</ele>
        <time>2022-07-15T05:20:29Z</time>
      </trkpt>
      <trkpt lat="46.00651" lon="6.84327">
        <ele>2196</ele>
        <time>2022-07-15T05:20:39Z</time>
      </trkpt>
      <trkpt lat="46.00648" lon="6.84335">
        <ele>2198</ele>
        <time>2022-07-15T05:20:54Z</time>
      </trkpt>
      <trkpt lat="46.00647" lon="6.84344">
        <ele>2199</ele>
        <time>2022-07-15T05:21:05Z</time>
      </trkpt>
      <trkpt lat="46.00657" lon="6.84338">
        <ele>2203</ele>
        <time>2022-07-15T05:21:25Z</time>
      </trkpt>
      <trkpt lat="46.00662" lon="6.84338">
        <ele>2204</ele>
        <time>2022-07-15T05:21:35Z</time>
      </trkpt>
      <trkpt lat="46.00665" lon="6.84345">
        <ele>2206</ele>
        <time>2022-07-15T05:21:50Z</time>
      </trkpt>
      <trkpt lat="46.00669" lon="6.84343">
        <ele>2208</ele>
        <time>2022-07-15T05:22:00Z</time>
      </trkpt>
      <trkpt lat="46.00675" lon="6.84345">
        <ele>2211</ele>
        <time>2022-07-15T05:22:15Z</time>
      </trkpt>
      <trkpt lat="46.0068" lon="6.84359">
        <ele>2216</ele>
        <time>2022-07-15T05:22:45Z</time>
      </trkpt>
      <trkpt lat="46.00682" lon="6.84364">
        <ele>2217</ele>
        <time>2022-07-15T05:22:55Z</time>
      </trkpt>
      <trkpt lat="46.0069" lon="6.84369">
        <ele>2219</ele>
        <time>2022-07-15T05:23:06Z</time>
      </trkpt>
      <trkpt lat="46.00694" lon="6.84369">
        <ele>2220</ele>
        <time>2022-07-15T05:23:13Z</time>
      </trkpt>
      <trkpt lat="46.00698" lon="6.84373">
        <ele>2222</ele>
        <time>2022-07-15T05:23:24Z</time>
      </trkpt>
      <trkpt lat="46.00705" lon="6.84373">
        <ele>2224</ele>
        <time>2022-07-15T05:23:34Z</time>
      </trkpt>
      <trkpt lat="46.00708" lon="6.84378">
        <ele>2225</ele>
        <time>2022-07-15T05:23:44Z</time>
      </trkpt>
      <trkpt lat="46.00717" lon="6.84381">
        <ele>2229</ele>
        <time>2022-07-15T05:24:04Z</time>
      </trkpt>
      <trkpt lat="46.00723" lon="6.84383">
        <ele>2230</ele>
        <time>2022-07-15T05:24:14Z</time>
      </trkpt>
      <trkpt lat="46.00729" lon="6.84387">
        <ele>2232</ele>
        <time>2022-07-15T05:24:29Z</time>
      </trkpt>
      <trkpt lat="46.00731" lon="6.84392">
        <ele>2234</ele>
        <time>2022-07-15T05:24:39Z</time>
      </trkpt>
      <trkpt lat="46.00726" lon="6.84399">
        <ele>2236</ele>
        <time>2022-07-15T05:24:54Z</time>
      </trkpt>
      <trkpt lat="46.00722" lon="6.84404">
        <ele>2238</ele>
        <time>2022-07-15T05:25:04Z</time>
      </trkpt>
      <trkpt lat="46.00721" lon="6.8441">
        <ele>2240</ele>
        <time>2022-07-15T05:25:15Z</time>
      </trkpt>
      <trkpt lat="46.00719" lon="6.84417">
        <ele>2242</ele>
        <time>2022-07-15T05:25:32Z</time>
      </trkpt>
      <trkpt lat="46.00713" lon="6.84423">
        <ele>2246</ele>
        <time>2022-07-15T05:25:52Z</time>
      </trkpt>
      <trkpt lat="46.00707" lon="6.84424">
        <ele>2247</ele>
        <time>2022-07-15T05:26:02Z</time>
      </trkpt>
      <trkpt lat="46.00702" lon="6.84424">
        <ele>2248</ele>
        <time>2022-07-15T05:26:12Z</time>
      </trkpt>
      <trkpt lat="46.00702" lon="6.84434">
        <ele>2250</ele>
        <time>2022-07-15T05:26:27Z</time>
      </trkpt>
      <trkpt lat="46.00715" lon="6.84441">
        <ele>2253</ele>
        <time>2022-07-15T05:26:47Z</time>
      </trkpt>
      <trkpt lat="46.0071" lon="6.84447">
        <ele>2256</ele>
        <time>2022-07-15T05:27:12Z</time>
      </trkpt>
      <trkpt lat="46.0071" lon="6.84454">
        <ele>2258</ele>
        <time>2022-07-15T05:27:23Z</time>
      </trkpt>
      <trkpt lat="46.00713" lon="6.84458">
        <ele>2260</ele>
        <time>2022-07-15T05:27:34Z</time>
      </trkpt>
      <trkpt lat="46.00718" lon="6.8446">
        <ele>2262</ele>
        <time>2022-07-15T05:27:44Z</time>
      </trkpt>
      <trkpt lat="46.00717" lon="6.84467">
        <ele>2264</ele>
        <time>2022-07-15T05:27:59Z</time>
      </trkpt>
      <trkpt lat="46.00711" lon="6.84471">
        <ele>2266</ele>
        <time>2022-07-15T05:28:14Z</time>
      </trkpt>
      <trkpt lat="46.00713" lon="6.84477">
        <ele>2269</ele>
        <time>2022-07-15T05:28:34Z</time>
      </trkpt>
      <trkpt lat="46.00711" lon="6.84484">
        <ele>2272</ele>
        <time>2022-07-15T05:28:49Z</time>
      </trkpt>
      <trkpt lat="46.00711" lon="6.84491">
        <ele>2275</ele>
        <time>2022-07-15T05:29:14Z</time>
      </trkpt>
      <trkpt lat="46.00715" lon="6.84497">
        <ele>2278</ele>
        <time>2022-07-15T05:29:31Z</time>
      </trkpt>
      <trkpt lat="46.00712" lon="6.84504">
        <ele>2282</ele>
        <time>2022-07-15T05:29:52Z</time>
      </trkpt>
      <trkpt lat="46.0071" lon="6.84514">
        <ele>2284</ele>
        <time>2022-07-15T05:30:07Z</time>
      </trkpt>
      <trkpt lat="46.0071" lon="6.84523">
        <ele>2287</ele>
        <time>2022-07-15T05:30:22Z</time>
      </trkpt>
      <trkpt lat="46.00712" lon="6.8453">
        <ele>2288</ele>
        <time>2022-07-15T05:30:32Z</time>
      </trkpt>
      <trkpt lat="46.00707" lon="6.84531">
        <ele>2289</ele>
        <time>2022-07-15T05:30:42Z</time>
      </trkpt>
      <trkpt lat="46.00702" lon="6.84531">
        <ele>2291</ele>
        <time>2022-07-15T05:30:52Z</time>
      </trkpt>
      <trkpt lat="46.00694" lon="6.84535">
        <ele>2292</ele>
        <time>2022-07-15T05:31:02Z</time>
      </trkpt>
      <trkpt lat="46.00697" lon="6.84545">
        <ele>2294</ele>
        <time>2022-07-15T05:31:12Z</time>
      </trkpt>
      <trkpt lat="46.00692" lon="6.84552">
        <ele>2295</ele>
        <time>2022-07-15T05:31:23Z</time>
      </trkpt>
      <trkpt lat="46.00688" lon="6.84552">
        <ele>2296</ele>
        <time>2022-07-15T05:31:28Z</time>
      </trkpt>
      <trkpt lat="46.00683" lon="6.84555">
        <ele>2296</ele>
        <time>2022-07-15T05:31:35Z</time>
      </trkpt>
      <trkpt lat="46.00673" lon="6.84566">
        <ele>2299</ele>
        <time>2022-07-15T05:31:56Z</time>
      </trkpt>
      <trkpt lat="46.00663" lon="6.8457">
        <ele>2302</ele>
        <time>2022-07-15T05:32:16Z</time>
      </trkpt>
      <trkpt lat="46.00658" lon="6.84577">
        <ele>2303</ele>
        <time>2022-07-15T05:32:26Z</time>
      </trkpt>
      <trkpt lat="46.00654" lon="6.84583">
        <ele>2303</ele>
        <time>2022-07-15T05:32:36Z</time>
      </trkpt>
      <trkpt lat="46.00652" lon="6.84589">
        <ele>2304</ele>
        <time>2022-07-15T05:32:46Z</time>
      </trkpt>
      <trkpt lat="46.00646" lon="6.84584">
        <ele>2305</ele>
        <time>2022-07-15T05:32:56Z</time>
      </trkpt>
      <trkpt lat="46.00638" lon="6.84581">
        <ele>2306</ele>
        <time>2022-07-15T05:33:06Z</time>
      </trkpt>
      <trkpt lat="46.00634" lon="6.84579">
        <ele>2306</ele>
        <time>2022-07-15T05:33:10Z</time>
      </trkpt>
      <trkpt lat="46.0063" lon="6.84576">
        <ele>2306</ele>
        <time>2022-07-15T05:33:14Z</time>
      </trkpt>
      <trkpt lat="46.00618" lon="6.84571">
        <ele>2307</ele>
        <time>2022-07-15T05:33:29Z</time>
      </trkpt>
      <trkpt lat="46.00612" lon="6.84576">
        <ele>2308</ele>
        <time>2022-07-15T05:33:40Z</time>
      </trkpt>
      <trkpt lat="46.00612" lon="6.84582">
        <ele>2309</ele>
        <time>2022-07-15T05:33:45Z</time>
      </trkpt>
      <trkpt lat="46.00614" lon="6.84594">
        <ele>2309</ele>
        <time>2022-07-15T05:33:53Z</time>
      </trkpt>
      <trkpt lat="46.00619" lon="6.84598">
        <ele>2310</ele>
        <time>2022-07-15T05:34:00Z</time>
      </trkpt>
      <trkpt lat="46.00632" lon="6.846">
        <ele>2312</ele>
        <time>2022-07-15T05:34:18Z</time>
      </trkpt>
      <trkpt lat="46.00634" lon="6.84606">
        <ele>2313</ele>
        <time>2022-07-15T05:34:22Z</time>
      </trkpt>
      <trkpt lat="46.00638" lon="6.8461">
        <ele>2313</ele>
        <time>2022-07-15T05:34:29Z</time>
      </trkpt>
      <trkpt lat="46.00636" lon="6.84616">
        <ele>2314</ele>
        <time>2022-07-15T05:34:33Z</time>
      </trkpt>
      <trkpt lat="46.00637" lon="6.84637">
        <ele>2318</ele>
        <time>2022-07-15T05:35:00Z</time>
      </trkpt>
      <trkpt lat="46.00638" lon="6.84645">
        <ele>2320</ele>
        <time>2022-07-15T05:35:15Z</time>
      </trkpt>
      <trkpt lat="46.00639" lon="6.84653">
        <ele>2323</ele>
        <time>2022-07-15T05:35:30Z</time>
      </trkpt>
      <trkpt lat="46.00639" lon="6.8466">
        <ele>2325</ele>
        <time>2022-07-15T05:35:41Z</time>
      </trkpt>
      <trkpt lat="46.00633" lon="6.84673">
        <ele>2328</ele>
        <time>2022-07-15T05:36:08Z</time>
      </trkpt>
      <trkpt lat="46.00634" lon="6.8468">
        <ele>2330</ele>
        <time>2022-07-15T05:36:18Z</time>
      </trkpt>
      <trkpt lat="46.00635" lon="6.84686">
        <ele>2331</ele>
        <time>2022-07-15T05:36:28Z</time>
      </trkpt>
      <trkpt lat="46.00639" lon="6.84701">
        <ele>2335</ele>
        <time>2022-07-15T05:36:53Z</time>
      </trkpt>
      <trkpt lat="46.00637" lon="6.84709">
        <ele>2338</ele>
        <time>2022-07-15T05:37:08Z</time>
      </trkpt>
      <trkpt lat="46.00638" lon="6.84716">
        <ele>2339</ele>
        <time>2022-07-15T05:37:18Z</time>
      </trkpt>
      <trkpt lat="46.00633" lon="6.84733">
        <ele>2342</ele>
        <time>2022-07-15T05:37:38Z</time>
      </trkpt>
      <trkpt lat="46.00633" lon="6.84749">
        <ele>2345</ele>
        <time>2022-07-15T05:37:55Z</time>
      </trkpt>
      <trkpt lat="46.00636" lon="6.84774">
        <ele>2346</ele>
        <time>2022-07-15T05:38:18Z</time>
      </trkpt>
      <trkpt lat="46.00636" lon="6.84803">
        <ele>2350</ele>
        <time>2022-07-15T05:38:48Z</time>
      </trkpt>
      <trkpt lat="46.00631" lon="6.84814">
        <ele>2351</ele>
        <time>2022-07-15T05:38:58Z</time>
      </trkpt>
      <trkpt lat="46.0063" lon="6.8482">
        <ele>2352</ele>
        <time>2022-07-15T05:39:03Z</time>
      </trkpt>
      <trkpt lat="46.00627" lon="6.84827">
        <ele>2353</ele>
        <time>2022-07-15T05:39:10Z</time>
      </trkpt>
      <trkpt lat="46.00625" lon="6.84835">
        <ele>2354</ele>
        <time>2022-07-15T05:39:20Z</time>
      </trkpt>
      <trkpt lat="46.00628" lon="6.84842">
        <ele>2355</ele>
        <time>2022-07-15T05:39:30Z</time>
      </trkpt>
      <trkpt lat="46.0063" lon="6.8485">
        <ele>2357</ele>
        <time>2022-07-15T05:39:40Z</time>
      </trkpt>
      <trkpt lat="46.00634" lon="6.84856">
        <ele>2359</ele>
        <time>2022-07-15T05:39:51Z</time>
      </trkpt>
      <trkpt lat="46.00635" lon="6.84864">
        <ele>2360</ele>
        <time>2022-07-15T05:40:03Z</time>
      </trkpt>
      <trkpt lat="46.00636" lon="6.84871">
        <ele>2361</ele>
        <time>2022-07-15T05:40:14Z</time>
      </trkpt>
      <trkpt lat="46.00635" lon="6.84879">
        <ele>2361</ele>
        <time>2022-07-15T05:40:24Z</time>
      </trkpt>
      <trkpt lat="46.00637" lon="6.8489">
        <ele>2362</ele>
        <time>2022-07-15T05:40:34Z</time>
      </trkpt>
      <trkpt lat="46.00635" lon="6.84897">
        <ele>2363</ele>
        <time>2022-07-15T05:40:41Z</time>
      </trkpt>
      <trkpt lat="46.00638" lon="6.84905">
        <ele>2364</ele>
        <time>2022-07-15T05:40:51Z</time>
      </trkpt>
      <trkpt lat="46.00638" lon="6.84926">
        <ele>2366</ele>
        <time>2022-07-15T05:41:11Z</time>
      </trkpt>
      <trkpt lat="46.00638" lon="6.84933">
        <ele>2367</ele>
        <time>2022-07-15T05:41:21Z</time>
      </trkpt>
      <trkpt lat="46.00633" lon="6.84956">
        <ele>2368</ele>
        <time>2022-07-15T05:41:39Z</time>
      </trkpt>
      <trkpt lat="46.00633" lon="6.84965">
        <ele>2370</ele>
        <time>2022-07-15T05:41:51Z</time>
      </trkpt>
      <trkpt lat="46.00631" lon="6.84977">
        <ele>2372</ele>
        <time>2022-07-15T05:42:03Z</time>
      </trkpt>
      <trkpt lat="46.0063" lon="6.84984">
        <ele>2373</ele>
        <time>2022-07-15T05:42:11Z</time>
      </trkpt>
      <trkpt lat="46.00632" lon="6.84992">
        <ele>2375</ele>
        <time>2022-07-15T05:42:21Z</time>
      </trkpt>
      <trkpt lat="46.00631" lon="6.84998">
        <ele>2375</ele>
        <time>2022-07-15T05:42:26Z</time>
      </trkpt>
      <trkpt lat="46.00633" lon="6.85008">
        <ele>2376</ele>
        <time>2022-07-15T05:42:36Z</time>
      </trkpt>
      <trkpt lat="46.00639" lon="6.85023">
        <ele>2378</ele>
        <time>2022-07-15T05:42:56Z</time>
      </trkpt>
      <trkpt lat="46.00637" lon="6.8503">
        <ele>2379</ele>
        <time>2022-07-15T05:43:06Z</time>
      </trkpt>
      <trkpt lat="46.00632" lon="6.8505">
        <ele>2383</ele>
        <time>2022-07-15T05:43:36Z</time>
      </trkpt>
      <trkpt lat="46.0063" lon="6.85056">
        <ele>2385</ele>
        <time>2022-07-15T05:43:46Z</time>
      </trkpt>
      <trkpt lat="46.0063" lon="6.85062">
        <ele>2386</ele>
        <time>2022-07-15T05:43:56Z</time>
      </trkpt>
      <trkpt lat="46.00628" lon="6.85079">
        <ele>2390</ele>
        <time>2022-07-15T05:44:19Z</time>
      </trkpt>
      <trkpt lat="46.00629" lon="6.85085">
        <ele>2391</ele>
        <time>2022-07-15T05:44:29Z</time>
      </trkpt>
      <trkpt lat="46.00632" lon="6.85089">
        <ele>2393</ele>
        <time>2022-07-15T05:44:44Z</time>
      </trkpt>
      <trkpt lat="46.00633" lon="6.85095">
        <ele>2395</ele>
        <time>2022-07-15T05:44:54Z</time>
      </trkpt>
      <trkpt lat="46.00636" lon="6.85103">
        <ele>2398</ele>
        <time>2022-07-15T05:45:14Z</time>
      </trkpt>
      <trkpt lat="46.00635" lon="6.85111">
        <ele>2400</ele>
        <time>2022-07-15T05:45:29Z</time>
      </trkpt>
      <trkpt lat="46.0064" lon="6.85113">
        <ele>2401</ele>
        <time>2022-07-15T05:45:44Z</time>
      </trkpt>
      <trkpt lat="46.00641" lon="6.8512">
        <ele>2403</ele>
        <time>2022-07-15T05:45:59Z</time>
      </trkpt>
      <trkpt lat="46.0064" lon="6.85129">
        <ele>2405</ele>
        <time>2022-07-15T05:46:15Z</time>
      </trkpt>
      <trkpt lat="46.00646" lon="6.8513">
        <ele>2407</ele>
        <time>2022-07-15T05:46:32Z</time>
      </trkpt>
      <trkpt lat="46.00646" lon="6.85138">
        <ele>2409</ele>
        <time>2022-07-15T05:46:47Z</time>
      </trkpt>
      <trkpt lat="46.00649" lon="6.85143">
        <ele>2412</ele>
        <time>2022-07-15T05:47:07Z</time>
      </trkpt>
      <trkpt lat="46.0065" lon="6.85149">
        <ele>2413</ele>
        <time>2022-07-15T05:47:17Z</time>
      </trkpt>
      <trkpt lat="46.0065" lon="6.85165">
        <ele>2417</ele>
        <time>2022-07-15T05:47:42Z</time>
      </trkpt>
      <trkpt lat="46.0065" lon="6.85171">
        <ele>2418</ele>
        <time>2022-07-15T05:47:52Z</time>
      </trkpt>
      <trkpt lat="46.0065" lon="6.85178">
        <ele>2420</ele>
        <time>2022-07-15T05:48:02Z</time>
      </trkpt>
      <trkpt lat="46.00649" lon="6.85184">
        <ele>2421</ele>
        <time>2022-07-15T05:48:12Z</time>
      </trkpt>
      <trkpt lat="46.00652" lon="6.8519">
        <ele>2423</ele>
        <time>2022-07-15T05:48:23Z</time>
      </trkpt>
      <trkpt lat="46.00655" lon="6.85196">
        <ele>2425</ele>
        <time>2022-07-15T05:48:40Z</time>
      </trkpt>
      <trkpt lat="46.00655" lon="6.85203">
        <ele>2427</ele>
        <time>2022-07-15T05:48:55Z</time>
      </trkpt>
      <trkpt lat="46.0066" lon="6.85205">
        <ele>2429</ele>
        <time>2022-07-15T05:49:05Z</time>
      </trkpt>
      <trkpt lat="46.00661" lon="6.85215">
        <ele>2432</ele>
        <time>2022-07-15T05:49:25Z</time>
      </trkpt>
      <trkpt lat="46.00662" lon="6.85221">
        <ele>2434</ele>
        <time>2022-07-15T05:49:40Z</time>
      </trkpt>
      <trkpt lat="46.00662" lon="6.85228">
        <ele>2436</ele>
        <time>2022-07-15T05:49:50Z</time>
      </trkpt>
      <trkpt lat="46.00662" lon="6.85243">
        <ele>2440</ele>
        <time>2022-07-15T05:50:15Z</time>
      </trkpt>
      <trkpt lat="46.00668" lon="6.85255">
        <ele>2445</ele>
        <time>2022-07-15T05:50:54Z</time>
      </trkpt>
      <trkpt lat="46.00671" lon="6.85267">
        <ele>2448</ele>
        <time>2022-07-15T05:51:19Z</time>
      </trkpt>
      <trkpt lat="46.00674" lon="6.85273">
        <ele>2450</ele>
        <time>2022-07-15T05:51:34Z</time>
      </trkpt>
      <trkpt lat="46.00673" lon="6.85281">
        <ele>2452</ele>
        <time>2022-07-15T05:51:49Z</time>
      </trkpt>
      <trkpt lat="46.00677" lon="6.85284">
        <ele>2455</ele>
        <time>2022-07-15T05:52:04Z</time>
      </trkpt>
      <trkpt lat="46.00676" lon="6.8529">
        <ele>2456</ele>
        <time>2022-07-15T05:52:14Z</time>
      </trkpt>
      <trkpt lat="46.00677" lon="6.85305">
        <ele>2459</ele>
        <time>2022-07-15T05:52:35Z</time>
      </trkpt>
      <trkpt lat="46.00679" lon="6.85328">
        <ele>2464</ele>
        <time>2022-07-15T05:53:11Z</time>
      </trkpt>
      <trkpt lat="46.00678" lon="6.85335">
        <ele>2466</ele>
        <time>2022-07-15T05:53:21Z</time>
      </trkpt>
      <trkpt lat="46.00678" lon="6.85341">
        <ele>2467</ele>
        <time>2022-07-15T05:53:31Z</time>
      </trkpt>
      <trkpt lat="46.00681" lon="6.85348">
        <ele>2470</ele>
        <time>2022-07-15T05:53:46Z</time>
      </trkpt>
      <trkpt lat="46.00682" lon="6.85357">
        <ele>2472</ele>
        <time>2022-07-15T05:54:01Z</time>
      </trkpt>
      <trkpt lat="46.00682" lon="6.85363">
        <ele>2473</ele>
        <time>2022-07-15T05:54:11Z</time>
      </trkpt>
      <trkpt lat="46.00681" lon="6.85369">
        <ele>2475</ele>
        <time>2022-07-15T05:54:21Z</time>
      </trkpt>
      <trkpt lat="46.00683" lon="6.85386">
        <ele>2479</ele>
        <time>2022-07-15T05:54:49Z</time>
      </trkpt>
      <trkpt lat="46.00683" lon="6.85394">
        <ele>2481</ele>
        <time>2022-07-15T05:55:04Z</time>
      </trkpt>
      <trkpt lat="46.00686" lon="6.85399">
        <ele>2483</ele>
        <time>2022-07-15T05:55:19Z</time>
      </trkpt>
      <trkpt lat="46.00689" lon="6.85404">
        <ele>2486</ele>
        <time>2022-07-15T05:55:34Z</time>
      </trkpt>
      <trkpt lat="46.00689" lon="6.85412">
        <ele>2488</ele>
        <time>2022-07-15T05:55:49Z</time>
      </trkpt>
      <trkpt lat="46.00692" lon="6.85417">
        <ele>2490</ele>
        <time>2022-07-15T05:56:04Z</time>
      </trkpt>
      <trkpt lat="46.00692" lon="6.85425">
        <ele>2492</ele>
        <time>2022-07-15T05:56:19Z</time>
      </trkpt>
      <trkpt lat="46.00697" lon="6.8543">
        <ele>2494</ele>
        <time>2022-07-15T05:56:34Z</time>
      </trkpt>
      <trkpt lat="46.00698" lon="6.85436">
        <ele>2497</ele>
        <time>2022-07-15T05:56:50Z</time>
      </trkpt>
      <trkpt lat="46.00698" lon="6.85443">
        <ele>2499</ele>
        <time>2022-07-15T05:57:05Z</time>
      </trkpt>
      <trkpt lat="46.00699" lon="6.85449">
        <ele>2501</ele>
        <time>2022-07-15T05:57:20Z</time>
      </trkpt>
      <trkpt lat="46.007" lon="6.85456">
        <ele>2503</ele>
        <time>2022-07-15T05:57:35Z</time>
      </trkpt>
      <trkpt lat="46.00699" lon="6.85463">
        <ele>2506</ele>
        <time>2022-07-15T05:57:50Z</time>
      </trkpt>
      <trkpt lat="46.00703" lon="6.85466">
        <ele>2507</ele>
        <time>2022-07-15T05:58:00Z</time>
      </trkpt>
      <trkpt lat="46.00705" lon="6.85472">
        <ele>2509</ele>
        <time>2022-07-15T05:58:15Z</time>
      </trkpt>
      <trkpt lat="46.00704" lon="6.8548">
        <ele>2512</ele>
        <time>2022-07-15T05:58:30Z</time>
      </trkpt>
      <trkpt lat="46.00706" lon="6.8549">
        <ele>2514</ele>
        <time>2022-07-15T05:58:46Z</time>
      </trkpt>
      <trkpt lat="46.0071" lon="6.85492">
        <ele>2516</ele>
        <time>2022-07-15T05:58:57Z</time>
      </trkpt>
      <trkpt lat="46.00711" lon="6.855">
        <ele>2518</ele>
        <time>2022-07-15T05:59:13Z</time>
      </trkpt>
      <trkpt lat="46.00712" lon="6.85506">
        <ele>2520</ele>
        <time>2022-07-15T05:59:23Z</time>
      </trkpt>
      <trkpt lat="46.0072" lon="6.85525">
        <ele>2526</ele>
        <time>2022-07-15T06:00:03Z</time>
      </trkpt>
      <trkpt lat="46.00719" lon="6.85542">
        <ele>2529</ele>
        <time>2022-07-15T06:00:23Z</time>
      </trkpt>
      <trkpt lat="46.0072" lon="6.85549">
        <ele>2527</ele>
        <time>2022-07-15T06:04:22Z</time>
      </trkpt>
      <trkpt lat="46.00724" lon="6.85545">
        <ele>2528</ele>
        <time>2022-07-15T06:09:03Z</time>
      </trkpt>
      <trkpt lat="46.00726" lon="6.85536">
        <ele>2527</ele>
        <time>2022-07-15T06:09:13Z</time>
      </trkpt>
      <trkpt lat="46.00734" lon="6.85537">
        <ele>2524</ele>
        <time>2022-07-15T06:09:25Z</time>
      </trkpt>
      <trkpt lat="46.00741" lon="6.85528">
        <ele>2521</ele>
        <time>2022-07-15T06:09:35Z</time>
      </trkpt>
      <trkpt lat="46.00752" lon="6.8552">
        <ele>2518</ele>
        <time>2022-07-15T06:09:49Z</time>
      </trkpt>
      <trkpt lat="46.00757" lon="6.8552">
        <ele>2517</ele>
        <time>2022-07-15T06:09:55Z</time>
      </trkpt>
      <trkpt lat="46.00769" lon="6.85527">
        <ele>2515</ele>
        <time>2022-07-15T06:10:07Z</time>
      </trkpt>
      <trkpt lat="46.00774" lon="6.85533">
        <ele>2515</ele>
        <time>2022-07-15T06:10:14Z</time>
      </trkpt>
      <trkpt lat="46.00782" lon="6.85552">
        <ele>2511</ele>
        <time>2022-07-15T06:10:32Z</time>
      </trkpt>
      <trkpt lat="46.00785" lon="6.85566">
        <ele>2508</ele>
        <time>2022-07-15T06:10:45Z</time>
      </trkpt>
      <trkpt lat="46.00789" lon="6.85571">
        <ele>2507</ele>
        <time>2022-07-15T06:10:49Z</time>
      </trkpt>
      <trkpt lat="46.00798" lon="6.85575">
        <ele>2506</ele>
        <time>2022-07-15T06:10:58Z</time>
      </trkpt>
      <trkpt lat="46.00802" lon="6.8558">
        <ele>2505</ele>
        <time>2022-07-15T06:11:05Z</time>
      </trkpt>
      <trkpt lat="46.00808" lon="6.85586">
        <ele>2503</ele>
        <time>2022-07-15T06:11:15Z</time>
      </trkpt>
      <trkpt lat="46.00818" lon="6.85599">
        <ele>2500</ele>
        <time>2022-07-15T06:11:31Z</time>
      </trkpt>
      <trkpt lat="46.00822" lon="6.85601">
        <ele>2500</ele>
        <time>2022-07-15T06:11:35Z</time>
      </trkpt>
      <trkpt lat="46.00827" lon="6.85601">
        <ele>2499</ele>
        <time>2022-07-15T06:11:40Z</time>
      </trkpt>
      <trkpt lat="46.00842" lon="6.85608">
        <ele>2496</ele>
        <time>2022-07-15T06:11:58Z</time>
      </trkpt>
      <trkpt lat="46.0085" lon="6.85614">
        <ele>2494</ele>
        <time>2022-07-15T06:12:10Z</time>
      </trkpt>
      <trkpt lat="46.00855" lon="6.85618">
        <ele>2494</ele>
        <time>2022-07-15T06:12:17Z</time>
      </trkpt>
      <trkpt lat="46.0086" lon="6.8562">
        <ele>2495</ele>
        <time>2022-07-15T06:12:22Z</time>
      </trkpt>
      <trkpt lat="46.00864" lon="6.85622">
        <ele>2495</ele>
        <time>2022-07-15T06:12:26Z</time>
      </trkpt>
      <trkpt lat="46.00869" lon="6.85625">
        <ele>2494</ele>
        <time>2022-07-15T06:12:31Z</time>
      </trkpt>
      <trkpt lat="46.00882" lon="6.85629">
        <ele>2492</ele>
        <time>2022-07-15T06:12:47Z</time>
      </trkpt>
      <trkpt lat="46.00887" lon="6.85635">
        <ele>2489</ele>
        <time>2022-07-15T06:12:54Z</time>
      </trkpt>
      <trkpt lat="46.00899" lon="6.85635">
        <ele>2489</ele>
        <time>2022-07-15T06:13:06Z</time>
      </trkpt>
      <trkpt lat="46.00903" lon="6.85633">
        <ele>2489</ele>
        <time>2022-07-15T06:13:10Z</time>
      </trkpt>
      <trkpt lat="46.00912" lon="6.85629">
        <ele>2489</ele>
        <time>2022-07-15T06:13:19Z</time>
      </trkpt>
      <trkpt lat="46.0092" lon="6.85622">
        <ele>2488</ele>
        <time>2022-07-15T06:13:28Z</time>
      </trkpt>
      <trkpt lat="46.00924" lon="6.85622">
        <ele>2488</ele>
        <time>2022-07-15T06:13:32Z</time>
      </trkpt>
      <trkpt lat="46.0093" lon="6.85621">
        <ele>2489</ele>
        <time>2022-07-15T06:13:40Z</time>
      </trkpt>
      <trkpt lat="46.00934" lon="6.85619">
        <ele>2489</ele>
        <time>2022-07-15T06:13:46Z</time>
      </trkpt>
      <trkpt lat="46.0094" lon="6.85619">
        <ele>2488</ele>
        <time>2022-07-15T06:13:51Z</time>
      </trkpt>
      <trkpt lat="46.00945" lon="6.85616">
        <ele>2487</ele>
        <time>2022-07-15T06:13:58Z</time>
      </trkpt>
      <trkpt lat="46.00948" lon="6.85612">
        <ele>2487</ele>
        <time>2022-07-15T06:14:03Z</time>
      </trkpt>
      <trkpt lat="46.00953" lon="6.8561">
        <ele>2488</ele>
        <time>2022-07-15T06:14:11Z</time>
      </trkpt>
      <trkpt lat="46.00957" lon="6.85611">
        <ele>2488</ele>
        <time>2022-07-15T06:14:15Z</time>
      </trkpt>
      <trkpt lat="46.00968" lon="6.8561">
        <ele>2489</ele>
        <time>2022-07-15T06:14:27Z</time>
      </trkpt>
      <trkpt lat="46.00972" lon="6.85611">
        <ele>2489</ele>
        <time>2022-07-15T06:14:31Z</time>
      </trkpt>
      <trkpt lat="46.00991" lon="6.85615">
        <ele>2493</ele>
        <time>2022-07-15T06:14:55Z</time>
      </trkpt>
      <trkpt lat="46.00998" lon="6.8561">
        <ele>2494</ele>
        <time>2022-07-15T06:15:05Z</time>
      </trkpt>
      <trkpt lat="46.01015" lon="6.85606">
        <ele>2498</ele>
        <time>2022-07-15T06:15:27Z</time>
      </trkpt>
      <trkpt lat="46.01018" lon="6.85608">
        <ele>2498</ele>
        <time>2022-07-15T06:15:31Z</time>
      </trkpt>
      <trkpt lat="46.01023" lon="6.8561">
        <ele>2498</ele>
        <time>2022-07-15T06:15:35Z</time>
      </trkpt>
      <trkpt lat="46.01029" lon="6.8561">
        <ele>2498</ele>
        <time>2022-07-15T06:15:42Z</time>
      </trkpt>
      <trkpt lat="46.01034" lon="6.85605">
        <ele>2500</ele>
        <time>2022-07-15T06:15:52Z</time>
      </trkpt>
      <trkpt lat="46.01041" lon="6.85604">
        <ele>2502</ele>
        <time>2022-07-15T06:16:02Z</time>
      </trkpt>
      <trkpt lat="46.01046" lon="6.85604">
        <ele>2501</ele>
        <time>2022-07-15T06:16:06Z</time>
      </trkpt>
      <trkpt lat="46.0106" lon="6.85604">
        <ele>2502</ele>
        <time>2022-07-15T06:16:21Z</time>
      </trkpt>
      <trkpt lat="46.01066" lon="6.85599">
        <ele>2503</ele>
        <time>2022-07-15T06:16:29Z</time>
      </trkpt>
      <trkpt lat="46.01075" lon="6.85591">
        <ele>2507</ele>
        <time>2022-07-15T06:16:49Z</time>
      </trkpt>
      <trkpt lat="46.01075" lon="6.85581">
        <ele>2509</ele>
        <time>2022-07-15T06:17:00Z</time>
      </trkpt>
      <trkpt lat="46.01077" lon="6.85574">
        <ele>2511</ele>
        <time>2022-07-15T06:17:10Z</time>
      </trkpt>
      <trkpt lat="46.01083" lon="6.85566">
        <ele>2513</ele>
        <time>2022-07-15T06:17:20Z</time>
      </trkpt>
      <trkpt lat="46.01084" lon="6.85556">
        <ele>2514</ele>
        <time>2022-07-15T06:17:28Z</time>
      </trkpt>
      <trkpt lat="46.01084" lon="6.8555">
        <ele>2514</ele>
        <time>2022-07-15T06:17:32Z</time>
      </trkpt>
      <trkpt lat="46.01085" lon="6.85544">
        <ele>2513</ele>
        <time>2022-07-15T06:17:36Z</time>
      </trkpt>
      <trkpt lat="46.01086" lon="6.85536">
        <ele>2514</ele>
        <time>2022-07-15T06:17:43Z</time>
      </trkpt>
      <trkpt lat="46.01087" lon="6.85513">
        <ele>2516</ele>
        <time>2022-07-15T06:18:04Z</time>
      </trkpt>
      <trkpt lat="46.01085" lon="6.85502">
        <ele>2517</ele>
        <time>2022-07-15T06:18:14Z</time>
      </trkpt>
      <trkpt lat="46.01085" lon="6.85495">
        <ele>2517</ele>
        <time>2022-07-15T06:18:19Z</time>
      </trkpt>
      <trkpt lat="46.01085" lon="6.85486">
        <ele>2518</ele>
        <time>2022-07-15T06:18:27Z</time>
      </trkpt>
      <trkpt lat="46.01085" lon="6.85474">
        <ele>2519</ele>
        <time>2022-07-15T06:18:38Z</time>
      </trkpt>
      <trkpt lat="46.01088" lon="6.85453">
        <ele>2520</ele>
        <time>2022-07-15T06:18:54Z</time>
      </trkpt>
      <trkpt lat="46.01092" lon="6.85446">
        <ele>2520</ele>
        <time>2022-07-15T06:19:01Z</time>
      </trkpt>
      <trkpt lat="46.01091" lon="6.8544">
        <ele>2520</ele>
        <time>2022-07-15T06:19:05Z</time>
      </trkpt>
      <trkpt lat="46.01097" lon="6.85425">
        <ele>2521</ele>
        <time>2022-07-15T06:19:17Z</time>
      </trkpt>
      <trkpt lat="46.01099" lon="6.85418">
        <ele>2521</ele>
        <time>2022-07-15T06:19:22Z</time>
      </trkpt>
      <trkpt lat="46.01109" lon="6.85393">
        <ele>2524</ele>
        <time>2022-07-15T06:19:47Z</time>
      </trkpt>
      <trkpt lat="46.0112" lon="6.85378">
        <ele>2525</ele>
        <time>2022-07-15T06:20:02Z</time>
      </trkpt>
      <trkpt lat="46.01126" lon="6.85365">
        <ele>2528</ele>
        <time>2022-07-15T06:20:19Z</time>
      </trkpt>
      <trkpt lat="46.01129" lon="6.85357">
        <ele>2529</ele>
        <time>2022-07-15T06:20:29Z</time>
      </trkpt>
      <trkpt lat="46.0114" lon="6.85343">
        <ele>2532</ele>
        <time>2022-07-15T06:20:47Z</time>
      </trkpt>
      <trkpt lat="46.01145" lon="6.8534">
        <ele>2533</ele>
        <time>2022-07-15T06:20:57Z</time>
      </trkpt>
      <trkpt lat="46.01148" lon="6.85335">
        <ele>2535</ele>
        <time>2022-07-15T06:21:07Z</time>
      </trkpt>
      <trkpt lat="46.01151" lon="6.85329">
        <ele>2537</ele>
        <time>2022-07-15T06:21:22Z</time>
      </trkpt>
      <trkpt lat="46.01157" lon="6.85325">
        <ele>2540</ele>
        <time>2022-07-15T06:21:37Z</time>
      </trkpt>
      <trkpt lat="46.01156" lon="6.85317">
        <ele>2542</ele>
        <time>2022-07-15T06:21:47Z</time>
      </trkpt>
      <trkpt lat="46.01162" lon="6.85315">
        <ele>2544</ele>
        <time>2022-07-15T06:21:58Z</time>
      </trkpt>
      <trkpt lat="46.01164" lon="6.85307">
        <ele>2546</ele>
        <time>2022-07-15T06:22:08Z</time>
      </trkpt>
      <trkpt lat="46.01169" lon="6.85301">
        <ele>2548</ele>
        <time>2022-07-15T06:22:18Z</time>
      </trkpt>
      <trkpt lat="46.01187" lon="6.85285">
        <ele>2551</ele>
        <time>2022-07-15T06:22:43Z</time>
      </trkpt>
      <trkpt lat="46.0119" lon="6.8528">
        <ele>2551</ele>
        <time>2022-07-15T06:22:48Z</time>
      </trkpt>
      <trkpt lat="46.01195" lon="6.85274">
        <ele>2553</ele>
        <time>2022-07-15T06:22:58Z</time>
      </trkpt>
      <trkpt lat="46.01199" lon="6.8527">
        <ele>2554</ele>
        <time>2022-07-15T06:23:04Z</time>
      </trkpt>
      <trkpt lat="46.01202" lon="6.85266">
        <ele>2555</ele>
        <time>2022-07-15T06:23:08Z</time>
      </trkpt>
      <trkpt lat="46.01207" lon="6.85255">
        <ele>2556</ele>
        <time>2022-07-15T06:23:17Z</time>
      </trkpt>
      <trkpt lat="46.01215" lon="6.85239">
        <ele>2560</ele>
        <time>2022-07-15T06:23:37Z</time>
      </trkpt>
      <trkpt lat="46.01218" lon="6.85221">
        <ele>2564</ele>
        <time>2022-07-15T06:23:58Z</time>
      </trkpt>
      <trkpt lat="46.01222" lon="6.85212">
        <ele>2567</ele>
        <time>2022-07-15T06:24:13Z</time>
      </trkpt>
      <trkpt lat="46.01225" lon="6.85205">
        <ele>2568</ele>
        <time>2022-07-15T06:24:23Z</time>
      </trkpt>
      <trkpt lat="46.01233" lon="6.85186">
        <ele>2573</ele>
        <time>2022-07-15T06:24:53Z</time>
      </trkpt>
      <trkpt lat="46.01236" lon="6.8518">
        <ele>2575</ele>
        <time>2022-07-15T06:25:03Z</time>
      </trkpt>
      <trkpt lat="46.01239" lon="6.85175">
        <ele>2576</ele>
        <time>2022-07-15T06:25:13Z</time>
      </trkpt>
      <trkpt lat="46.01241" lon="6.8517">
        <ele>2578</ele>
        <time>2022-07-15T06:25:23Z</time>
      </trkpt>
      <trkpt lat="46.0125" lon="6.85156">
        <ele>2581</ele>
        <time>2022-07-15T06:25:43Z</time>
      </trkpt>
      <trkpt lat="46.01252" lon="6.85149">
        <ele>2583</ele>
        <time>2022-07-15T06:25:53Z</time>
      </trkpt>
      <trkpt lat="46.01255" lon="6.85144">
        <ele>2585</ele>
        <time>2022-07-15T06:26:04Z</time>
      </trkpt>
      <trkpt lat="46.01262" lon="6.8513">
        <ele>2588</ele>
        <time>2022-07-15T06:26:26Z</time>
      </trkpt>
      <trkpt lat="46.01266" lon="6.85126">
        <ele>2590</ele>
        <time>2022-07-15T06:26:36Z</time>
      </trkpt>
      <trkpt lat="46.01269" lon="6.8512">
        <ele>2591</ele>
        <time>2022-07-15T06:26:46Z</time>
      </trkpt>
      <trkpt lat="46.01274" lon="6.8512">
        <ele>2593</ele>
        <time>2022-07-15T06:26:56Z</time>
      </trkpt>
      <trkpt lat="46.01277" lon="6.85112">
        <ele>2595</ele>
        <time>2022-07-15T06:27:06Z</time>
      </trkpt>
      <trkpt lat="46.01283" lon="6.8511">
        <ele>2597</ele>
        <time>2022-07-15T06:27:16Z</time>
      </trkpt>
      <trkpt lat="46.01297" lon="6.851">
        <ele>2601</ele>
        <time>2022-07-15T06:27:46Z</time>
      </trkpt>
      <trkpt lat="46.01302" lon="6.85091">
        <ele>2603</ele>
        <time>2022-07-15T06:27:57Z</time>
      </trkpt>
      <trkpt lat="46.01307" lon="6.85084">
        <ele>2605</ele>
        <time>2022-07-15T06:28:08Z</time>
      </trkpt>
      <trkpt lat="46.01312" lon="6.85086">
        <ele>2606</ele>
        <time>2022-07-15T06:28:15Z</time>
      </trkpt>
      <trkpt lat="46.01316" lon="6.85083">
        <ele>2607</ele>
        <time>2022-07-15T06:28:23Z</time>
      </trkpt>
      <trkpt lat="46.01323" lon="6.85087">
        <ele>2608</ele>
        <time>2022-07-15T06:28:33Z</time>
      </trkpt>
      <trkpt lat="46.01323" lon="6.8508">
        <ele>2610</ele>
        <time>2022-07-15T06:28:43Z</time>
      </trkpt>
      <trkpt lat="46.01332" lon="6.85069">
        <ele>2613</ele>
        <time>2022-07-15T06:29:04Z</time>
      </trkpt>
      <trkpt lat="46.01343" lon="6.85061">
        <ele>2617</ele>
        <time>2022-07-15T06:29:24Z</time>
      </trkpt>
      <trkpt lat="46.01346" lon="6.85055">
        <ele>2619</ele>
        <time>2022-07-15T06:29:34Z</time>
      </trkpt>
      <trkpt lat="46.01351" lon="6.85054">
        <ele>2620</ele>
        <time>2022-07-15T06:29:44Z</time>
      </trkpt>
      <trkpt lat="46.01365" lon="6.85039">
        <ele>2626</ele>
        <time>2022-07-15T06:30:21Z</time>
      </trkpt>
      <trkpt lat="46.01369" lon="6.85037">
        <ele>2628</ele>
        <time>2022-07-15T06:30:33Z</time>
      </trkpt>
      <trkpt lat="46.01371" lon="6.85029">
        <ele>2631</ele>
        <time>2022-07-15T06:30:48Z</time>
      </trkpt>
      <trkpt lat="46.01382" lon="6.85013">
        <ele>2637</ele>
        <time>2022-07-15T06:31:23Z</time>
      </trkpt>
      <trkpt lat="46.01388" lon="6.85011">
        <ele>2638</ele>
        <time>2022-07-15T06:31:33Z</time>
      </trkpt>
      <trkpt lat="46.014" lon="6.84999">
        <ele>2643</ele>
        <time>2022-07-15T06:32:03Z</time>
      </trkpt>
      <trkpt lat="46.01406" lon="6.84995">
        <ele>2646</ele>
        <time>2022-07-15T06:32:18Z</time>
      </trkpt>
      <trkpt lat="46.01418" lon="6.84988">
        <ele>2649</ele>
        <time>2022-07-15T06:32:39Z</time>
      </trkpt>
      <trkpt lat="46.01423" lon="6.84987">
        <ele>2650</ele>
        <time>2022-07-15T06:32:49Z</time>
      </trkpt>
      <trkpt lat="46.01436" lon="6.84997">
        <ele>2654</ele>
        <time>2022-07-15T06:33:11Z</time>
      </trkpt>
      <trkpt lat="46.01439" lon="6.8499">
        <ele>2656</ele>
        <time>2022-07-15T06:33:22Z</time>
      </trkpt>
      <trkpt lat="46.01436" lon="6.84983">
        <ele>2657</ele>
        <time>2022-07-15T06:33:32Z</time>
      </trkpt>
      <trkpt lat="46.01442" lon="6.8498">
        <ele>2655</ele>
        <time>2022-07-15T06:39:12Z</time>
      </trkpt>
      <trkpt lat="46.01445" lon="6.84986">
        <ele>2657</ele>
        <time>2022-07-15T06:39:22Z</time>
      </trkpt>
      <trkpt lat="46.01449" lon="6.84984">
        <ele>2658</ele>
        <time>2022-07-15T06:41:41Z</time>
      </trkpt>
      <trkpt lat="46.01453" lon="6.84982">
        <ele>2659</ele>
        <time>2022-07-15T06:41:47Z</time>
      </trkpt>
      <trkpt lat="46.0146" lon="6.84981">
        <ele>2660</ele>
        <time>2022-07-15T06:41:57Z</time>
      </trkpt>
      <trkpt lat="46.01465" lon="6.84984">
        <ele>2662</ele>
        <time>2022-07-15T06:42:07Z</time>
      </trkpt>
      <trkpt lat="46.01469" lon="6.84987">
        <ele>2664</ele>
        <time>2022-07-15T06:42:17Z</time>
      </trkpt>
      <trkpt lat="46.01473" lon="6.84994">
        <ele>2666</ele>
        <time>2022-07-15T06:42:32Z</time>
      </trkpt>
      <trkpt lat="46.01484" lon="6.85004">
        <ele>2670</ele>
        <time>2022-07-15T06:42:53Z</time>
      </trkpt>
      <trkpt lat="46.01491" lon="6.8501">
        <ele>2672</ele>
        <time>2022-07-15T06:43:05Z</time>
      </trkpt>
      <trkpt lat="46.01495" lon="6.85011">
        <ele>2673</ele>
        <time>2022-07-15T06:43:12Z</time>
      </trkpt>
      <trkpt lat="46.01498" lon="6.85017">
        <ele>2675</ele>
        <time>2022-07-15T06:43:22Z</time>
      </trkpt>
      <trkpt lat="46.01504" lon="6.85022">
        <ele>2677</ele>
        <time>2022-07-15T06:43:33Z</time>
      </trkpt>
      <trkpt lat="46.01509" lon="6.85024">
        <ele>2678</ele>
        <time>2022-07-15T06:43:41Z</time>
      </trkpt>
      <trkpt lat="46.01515" lon="6.85027">
        <ele>2679</ele>
        <time>2022-07-15T06:43:53Z</time>
      </trkpt>
      <trkpt lat="46.01526" lon="6.8503">
        <ele>2682</ele>
        <time>2022-07-15T06:44:13Z</time>
      </trkpt>
      <trkpt lat="46.01531" lon="6.85034">
        <ele>2684</ele>
        <time>2022-07-15T06:44:23Z</time>
      </trkpt>
      <trkpt lat="46.01536" lon="6.8504">
        <ele>2685</ele>
        <time>2022-07-15T06:44:34Z</time>
      </trkpt>
      <trkpt lat="46.01538" lon="6.85045">
        <ele>2687</ele>
        <time>2022-07-15T06:44:44Z</time>
      </trkpt>
      <trkpt lat="46.0155" lon="6.85054">
        <ele>2689</ele>
        <time>2022-07-15T06:45:06Z</time>
      </trkpt>
      <trkpt lat="46.01557" lon="6.8506">
        <ele>2691</ele>
        <time>2022-07-15T06:45:17Z</time>
      </trkpt>
      <trkpt lat="46.01577" lon="6.85063">
        <ele>2695</ele>
        <time>2022-07-15T06:45:45Z</time>
      </trkpt>
      <trkpt lat="46.01581" lon="6.85065">
        <ele>2697</ele>
        <time>2022-07-15T06:45:55Z</time>
      </trkpt>
      <trkpt lat="46.01586" lon="6.85069">
        <ele>2699</ele>
        <time>2022-07-15T06:46:05Z</time>
      </trkpt>
      <trkpt lat="46.01594" lon="6.85079">
        <ele>2703</ele>
        <time>2022-07-15T06:46:25Z</time>
      </trkpt>
      <trkpt lat="46.016" lon="6.85082">
        <ele>2705</ele>
        <time>2022-07-15T06:46:35Z</time>
      </trkpt>
      <trkpt lat="46.01609" lon="6.85092">
        <ele>2707</ele>
        <time>2022-07-15T06:46:56Z</time>
      </trkpt>
      <trkpt lat="46.01612" lon="6.85098">
        <ele>2709</ele>
        <time>2022-07-15T06:47:07Z</time>
      </trkpt>
      <trkpt lat="46.01621" lon="6.85107">
        <ele>2713</ele>
        <time>2022-07-15T06:47:29Z</time>
      </trkpt>
      <trkpt lat="46.01635" lon="6.85119">
        <ele>2717</ele>
        <time>2022-07-15T06:47:55Z</time>
      </trkpt>
      <trkpt lat="46.01638" lon="6.85124">
        <ele>2719</ele>
        <time>2022-07-15T06:48:05Z</time>
      </trkpt>
      <trkpt lat="46.01645" lon="6.85121">
        <ele>2720</ele>
        <time>2022-07-15T06:48:15Z</time>
      </trkpt>
      <trkpt lat="46.01656" lon="6.85132">
        <ele>2724</ele>
        <time>2022-07-15T06:48:37Z</time>
      </trkpt>
      <trkpt lat="46.01662" lon="6.85139">
        <ele>2725</ele>
        <time>2022-07-15T06:48:47Z</time>
      </trkpt>
      <trkpt lat="46.01688" lon="6.85153">
        <ele>2730</ele>
        <time>2022-07-15T06:49:25Z</time>
      </trkpt>
      <trkpt lat="46.01691" lon="6.85161">
        <ele>2731</ele>
        <time>2022-07-15T06:49:35Z</time>
      </trkpt>
      <trkpt lat="46.01694" lon="6.85171">
        <ele>2733</ele>
        <time>2022-07-15T06:49:45Z</time>
      </trkpt>
      <trkpt lat="46.01697" lon="6.85167">
        <ele>2734</ele>
        <time>2022-07-15T06:49:50Z</time>
      </trkpt>
      <trkpt lat="46.01703" lon="6.85165">
        <ele>2737</ele>
        <time>2022-07-15T06:50:05Z</time>
      </trkpt>
      <trkpt lat="46.01709" lon="6.85162">
        <ele>2739</ele>
        <time>2022-07-15T06:50:15Z</time>
      </trkpt>
      <trkpt lat="46.01711" lon="6.85171">
        <ele>2741</ele>
        <time>2022-07-15T06:50:30Z</time>
      </trkpt>
      <trkpt lat="46.01717" lon="6.8517">
        <ele>2743</ele>
        <time>2022-07-15T06:50:40Z</time>
      </trkpt>
      <trkpt lat="46.01719" lon="6.85176">
        <ele>2744</ele>
        <time>2022-07-15T06:50:50Z</time>
      </trkpt>
      <trkpt lat="46.01725" lon="6.85172">
        <ele>2746</ele>
        <time>2022-07-15T06:51:01Z</time>
      </trkpt>
      <trkpt lat="46.01727" lon="6.85164">
        <ele>2748</ele>
        <time>2022-07-15T06:51:11Z</time>
      </trkpt>
      <trkpt lat="46.01731" lon="6.85166">
        <ele>2750</ele>
        <time>2022-07-15T06:51:23Z</time>
      </trkpt>
      <trkpt lat="46.01734" lon="6.85173">
        <ele>2751</ele>
        <time>2022-07-15T06:51:34Z</time>
      </trkpt>
      <trkpt lat="46.01739" lon="6.85175">
        <ele>2754</ele>
        <time>2022-07-15T06:51:49Z</time>
      </trkpt>
      <trkpt lat="46.01744" lon="6.85173">
        <ele>2756</ele>
        <time>2022-07-15T06:51:59Z</time>
      </trkpt>
      <trkpt lat="46.01747" lon="6.85179">
        <ele>2758</ele>
        <time>2022-07-15T06:52:12Z</time>
      </trkpt>
      <trkpt lat="46.01749" lon="6.85185">
        <ele>2759</ele>
        <time>2022-07-15T06:52:18Z</time>
      </trkpt>
      <trkpt lat="46.01754" lon="6.85179">
        <ele>2760</ele>
        <time>2022-07-15T06:52:28Z</time>
      </trkpt>
      <trkpt lat="46.01757" lon="6.85186">
        <ele>2763</ele>
        <time>2022-07-15T06:52:43Z</time>
      </trkpt>
      <trkpt lat="46.01761" lon="6.85179">
        <ele>2764</ele>
        <time>2022-07-15T06:52:53Z</time>
      </trkpt>
      <trkpt lat="46.01764" lon="6.85187">
        <ele>2767</ele>
        <time>2022-07-15T06:53:13Z</time>
      </trkpt>
      <trkpt lat="46.0177" lon="6.85187">
        <ele>2770</ele>
        <time>2022-07-15T06:53:31Z</time>
      </trkpt>
      <trkpt lat="46.01774" lon="6.8518">
        <ele>2772</ele>
        <time>2022-07-15T06:53:42Z</time>
      </trkpt>
      <trkpt lat="46.01778" lon="6.85187">
        <ele>2775</ele>
        <time>2022-07-15T06:53:58Z</time>
      </trkpt>
      <trkpt lat="46.01782" lon="6.85184">
        <ele>2776</ele>
        <time>2022-07-15T06:54:08Z</time>
      </trkpt>
      <trkpt lat="46.01785" lon="6.85192">
        <ele>2780</ele>
        <time>2022-07-15T06:54:28Z</time>
      </trkpt>
      <trkpt lat="46.0179" lon="6.85196">
        <ele>2783</ele>
        <time>2022-07-15T06:54:43Z</time>
      </trkpt>
      <trkpt lat="46.01791" lon="6.85206">
        <ele>2784</ele>
        <time>2022-07-15T06:54:54Z</time>
      </trkpt>
      <trkpt lat="46.01796" lon="6.85203">
        <ele>2787</ele>
        <time>2022-07-15T06:55:09Z</time>
      </trkpt>
      <trkpt lat="46.01799" lon="6.8521">
        <ele>2790</ele>
        <time>2022-07-15T06:55:24Z</time>
      </trkpt>
      <trkpt lat="46.01808" lon="6.8522">
        <ele>2795</ele>
        <time>2022-07-15T06:55:45Z</time>
      </trkpt>
      <trkpt lat="46.01811" lon="6.85215">
        <ele>2797</ele>
        <time>2022-07-15T06:56:00Z</time>
      </trkpt>
      <trkpt lat="46.01815" lon="6.85213">
        <ele>2800</ele>
        <time>2022-07-15T06:56:20Z</time>
      </trkpt>
      <trkpt lat="46.01819" lon="6.8521">
        <ele>2802</ele>
        <time>2022-07-15T06:56:35Z</time>
      </trkpt>
      <trkpt lat="46.01822" lon="6.85206">
        <ele>2805</ele>
        <time>2022-07-15T06:56:50Z</time>
      </trkpt>
      <trkpt lat="46.01826" lon="6.85208">
        <ele>2809</ele>
        <time>2022-07-15T06:57:10Z</time>
      </trkpt>
      <trkpt lat="46.01831" lon="6.85196">
        <ele>2812</ele>
        <time>2022-07-15T06:57:30Z</time>
      </trkpt>
      <trkpt lat="46.01836" lon="6.8519">
        <ele>2814</ele>
        <time>2022-07-15T06:57:46Z</time>
      </trkpt>
      <trkpt lat="46.01841" lon="6.85203">
        <ele>2819</ele>
        <time>2022-07-15T06:58:11Z</time>
      </trkpt>
      <trkpt lat="46.01845" lon="6.85199">
        <ele>2820</ele>
        <time>2022-07-15T06:58:21Z</time>
      </trkpt>
      <trkpt lat="46.01847" lon="6.85206">
        <ele>2823</ele>
        <time>2022-07-15T06:58:36Z</time>
      </trkpt>
      <trkpt lat="46.01851" lon="6.85206">
        <ele>2826</ele>
        <time>2022-07-15T06:58:56Z</time>
      </trkpt>
      <trkpt lat="46.01857" lon="6.852">
        <ele>2829</ele>
        <time>2022-07-15T06:59:12Z</time>
      </trkpt>
      <trkpt lat="46.0186" lon="6.85204">
        <ele>2831</ele>
        <time>2022-07-15T06:59:27Z</time>
      </trkpt>
      <trkpt lat="46.01865" lon="6.85204">
        <ele>2834</ele>
        <time>2022-07-15T06:59:43Z</time>
      </trkpt>
      <trkpt lat="46.01867" lon="6.85199">
        <ele>2837</ele>
        <time>2022-07-15T06:59:55Z</time>
      </trkpt>
      <trkpt lat="46.0187" lon="6.85194">
        <ele>2838</ele>
        <time>2022-07-15T07:00:05Z</time>
      </trkpt>
      <trkpt lat="46.01873" lon="6.85189">
        <ele>2840</ele>
        <time>2022-07-15T07:00:15Z</time>
      </trkpt>
      <trkpt lat="46.01878" lon="6.85191">
        <ele>2844</ele>
        <time>2022-07-15T07:00:40Z</time>
      </trkpt>
      <trkpt lat="46.01883" lon="6.85195">
        <ele>2846</ele>
        <time>2022-07-15T07:00:55Z</time>
      </trkpt>
      <trkpt lat="46.01888" lon="6.85194">
        <ele>2849</ele>
        <time>2022-07-15T07:01:10Z</time>
      </trkpt>
      <trkpt lat="46.01893" lon="6.8518">
        <ele>2854</ele>
        <time>2022-07-15T07:01:40Z</time>
      </trkpt>
      <trkpt lat="46.01897" lon="6.85184">
        <ele>2856</ele>
        <time>2022-07-15T07:01:57Z</time>
      </trkpt>
      <trkpt lat="46.01898" lon="6.85176">
        <ele>2858</ele>
        <time>2022-07-15T07:02:08Z</time>
      </trkpt>
      <trkpt lat="46.01903" lon="6.85162">
        <ele>2863</ele>
        <time>2022-07-15T07:02:43Z</time>
      </trkpt>
      <trkpt lat="46.01907" lon="6.85165">
        <ele>2866</ele>
        <time>2022-07-15T07:03:03Z</time>
      </trkpt>
      <trkpt lat="46.01912" lon="6.85169">
        <ele>2868</ele>
        <time>2022-07-15T07:03:18Z</time>
      </trkpt>
      <trkpt lat="46.01915" lon="6.85174">
        <ele>2870</ele>
        <time>2022-07-15T07:03:28Z</time>
      </trkpt>
      <trkpt lat="46.0192" lon="6.85177">
        <ele>2872</ele>
        <time>2022-07-15T07:03:38Z</time>
      </trkpt>
      <trkpt lat="46.01921" lon="6.85169">
        <ele>2874</ele>
        <time>2022-07-15T07:03:48Z</time>
      </trkpt>
      <trkpt lat="46.01925" lon="6.85156">
        <ele>2878</ele>
        <time>2022-07-15T07:04:20Z</time>
      </trkpt>
      <trkpt lat="46.0193" lon="6.85155">
        <ele>2881</ele>
        <time>2022-07-15T07:04:35Z</time>
      </trkpt>
      <trkpt lat="46.01932" lon="6.85163">
        <ele>2884</ele>
        <time>2022-07-15T07:04:51Z</time>
      </trkpt>
      <trkpt lat="46.01937" lon="6.85162">
        <ele>2885</ele>
        <time>2022-07-15T07:05:01Z</time>
      </trkpt>
      <trkpt lat="46.01939" lon="6.85156">
        <ele>2887</ele>
        <time>2022-07-15T07:05:11Z</time>
      </trkpt>
      <trkpt lat="46.0194" lon="6.85148">
        <ele>2889</ele>
        <time>2022-07-15T07:05:26Z</time>
      </trkpt>
      <trkpt lat="46.01946" lon="6.85148">
        <ele>2892</ele>
        <time>2022-07-15T07:05:46Z</time>
      </trkpt>
      <trkpt lat="46.01947" lon="6.85141">
        <ele>2894</ele>
        <time>2022-07-15T07:05:57Z</time>
      </trkpt>
      <trkpt lat="46.0195" lon="6.85135">
        <ele>2896</ele>
        <time>2022-07-15T07:06:09Z</time>
      </trkpt>
      <trkpt lat="46.01954" lon="6.85141">
        <ele>2900</ele>
        <time>2022-07-15T07:06:30Z</time>
      </trkpt>
      <trkpt lat="46.01959" lon="6.85143">
        <ele>2902</ele>
        <time>2022-07-15T07:06:45Z</time>
      </trkpt>
      <trkpt lat="46.01965" lon="6.85159">
        <ele>2905</ele>
        <time>2022-07-15T07:07:05Z</time>
      </trkpt>
      <trkpt lat="46.0197" lon="6.8516">
        <ele>2906</ele>
        <time>2022-07-15T07:07:15Z</time>
      </trkpt>
      <trkpt lat="46.0197" lon="6.85152">
        <ele>2908</ele>
        <time>2022-07-15T07:07:25Z</time>
      </trkpt>
      <trkpt lat="46.01974" lon="6.85156">
        <ele>2910</ele>
        <time>2022-07-15T07:07:36Z</time>
      </trkpt>
      <trkpt lat="46.01981" lon="6.85156">
        <ele>2912</ele>
        <time>2022-07-15T07:07:46Z</time>
      </trkpt>
      <trkpt lat="46.01985" lon="6.85151">
        <ele>2913</ele>
        <time>2022-07-15T07:07:56Z</time>
      </trkpt>
      <trkpt lat="46.01983" lon="6.8514">
        <ele>2915</ele>
        <time>2022-07-15T07:08:07Z</time>
      </trkpt>
      <trkpt lat="46.01982" lon="6.85134">
        <ele>2915</ele>
        <time>2022-07-15T07:08:13Z</time>
      </trkpt>
      <trkpt lat="46.01983" lon="6.85121">
        <ele>2916</ele>
        <time>2022-07-15T07:08:22Z</time>
      </trkpt>
      <trkpt lat="46.01987" lon="6.85095">
        <ele>2920</ele>
        <time>2022-07-15T07:08:49Z</time>
      </trkpt>
      <trkpt lat="46.0199" lon="6.85088">
        <ele>2921</ele>
        <time>2022-07-15T07:08:59Z</time>
      </trkpt>
      <trkpt lat="46.01996" lon="6.85074">
        <ele>2924</ele>
        <time>2022-07-15T07:09:19Z</time>
      </trkpt>
      <trkpt lat="46.01998" lon="6.85062">
        <ele>2925</ele>
        <time>2022-07-15T07:09:29Z</time>
      </trkpt>
      <trkpt lat="46.02" lon="6.85058">
        <ele>2925</ele>
        <time>2022-07-15T07:09:36Z</time>
      </trkpt>
      <trkpt lat="46.02004" lon="6.85043">
        <ele>2929</ele>
        <time>2022-07-15T07:09:56Z</time>
      </trkpt>
      <trkpt lat="46.02004" lon="6.85034">
        <ele>2930</ele>
        <time>2022-07-15T07:10:06Z</time>
      </trkpt>
      <trkpt lat="46.02005" lon="6.85026">
        <ele>2931</ele>
        <time>2022-07-15T07:10:17Z</time>
      </trkpt>
      <trkpt lat="46.02007" lon="6.8502">
        <ele>2933</ele>
        <time>2022-07-15T07:10:28Z</time>
      </trkpt>
      <trkpt lat="46.02007" lon="6.85006">
        <ele>2935</ele>
        <time>2022-07-15T07:10:48Z</time>
      </trkpt>
      <trkpt lat="46.02011" lon="6.85002">
        <ele>2938</ele>
        <time>2022-07-15T07:11:03Z</time>
      </trkpt>
      <trkpt lat="46.02015" lon="6.85005">
        <ele>2940</ele>
        <time>2022-07-15T07:11:18Z</time>
      </trkpt>
      <trkpt lat="46.0202" lon="6.85005">
        <ele>2943</ele>
        <time>2022-07-15T07:11:34Z</time>
      </trkpt>
      <trkpt lat="46.0203" lon="6.85009">
        <ele>2948</ele>
        <time>2022-07-15T07:12:09Z</time>
      </trkpt>
      <trkpt lat="46.02034" lon="6.85007">
        <ele>2950</ele>
        <time>2022-07-15T07:12:21Z</time>
      </trkpt>
      <trkpt lat="46.02036" lon="6.84999">
        <ele>2953</ele>
        <time>2022-07-15T07:12:43Z</time>
      </trkpt>
      <trkpt lat="46.02041" lon="6.85001">
        <ele>2956</ele>
        <time>2022-07-15T07:13:03Z</time>
      </trkpt>
      <trkpt lat="46.02046" lon="6.85002">
        <ele>2959</ele>
        <time>2022-07-15T07:13:18Z</time>
      </trkpt>
      <trkpt lat="46.0205" lon="6.85006">
        <ele>2960</ele>
        <time>2022-07-15T07:13:28Z</time>
      </trkpt>
      <trkpt lat="46.02055" lon="6.85006">
        <ele>2962</ele>
        <time>2022-07-15T07:13:43Z</time>
      </trkpt>
      <trkpt lat="46.0206" lon="6.85005">
        <ele>2966</ele>
        <time>2022-07-15T07:14:03Z</time>
      </trkpt>
      <trkpt lat="46.02064" lon="6.85006">
        <ele>2968</ele>
        <time>2022-07-15T07:14:18Z</time>
      </trkpt>
      <trkpt lat="46.02066" lon="6.85">
        <ele>2970</ele>
        <time>2022-07-15T07:14:30Z</time>
      </trkpt>
      <trkpt lat="46.02065" lon="6.84993">
        <ele>2972</ele>
        <time>2022-07-15T07:14:40Z</time>
      </trkpt>
      <trkpt lat="46.0207" lon="6.84991">
        <ele>2974</ele>
        <time>2022-07-15T07:14:51Z</time>
      </trkpt>
      <trkpt lat="46.02074" lon="6.84984">
        <ele>2978</ele>
        <time>2022-07-15T07:15:16Z</time>
      </trkpt>
      <trkpt lat="46.02079" lon="6.84985">
        <ele>2981</ele>
        <time>2022-07-15T07:15:36Z</time>
      </trkpt>
      <trkpt lat="46.02085" lon="6.84984">
        <ele>2984</ele>
        <time>2022-07-15T07:15:51Z</time>
      </trkpt>
      <trkpt lat="46.02089" lon="6.84988">
        <ele>2986</ele>
        <time>2022-07-15T07:16:06Z</time>
      </trkpt>
      <trkpt lat="46.02095" lon="6.84988">
        <ele>2989</ele>
        <time>2022-07-15T07:16:21Z</time>
      </trkpt>
      <trkpt lat="46.021" lon="6.84986">
        <ele>2990</ele>
        <time>2022-07-15T07:16:33Z</time>
      </trkpt>
      <trkpt lat="46.02101" lon="6.84979">
        <ele>2992</ele>
        <time>2022-07-15T07:16:45Z</time>
      </trkpt>
      <trkpt lat="46.02106" lon="6.84982">
        <ele>2996</ele>
        <time>2022-07-15T07:17:05Z</time>
      </trkpt>
      <trkpt lat="46.02111" lon="6.84981">
        <ele>2997</ele>
        <time>2022-07-15T07:17:15Z</time>
      </trkpt>
      <trkpt lat="46.02115" lon="6.8498">
        <ele>2999</ele>
        <time>2022-07-15T07:17:25Z</time>
      </trkpt>
      <trkpt lat="46.02121" lon="6.8498">
        <ele>3001</ele>
        <time>2022-07-15T07:17:40Z</time>
      </trkpt>
      <trkpt lat="46.02122" lon="6.84974">
        <ele>3003</ele>
        <time>2022-07-15T07:17:50Z</time>
      </trkpt>
      <trkpt lat="46.02126" lon="6.84967">
        <ele>3005</ele>
        <time>2022-07-15T07:18:05Z</time>
      </trkpt>
      <trkpt lat="46.02125" lon="6.84959">
        <ele>3008</ele>
        <time>2022-07-15T07:18:20Z</time>
      </trkpt>
      <trkpt lat="46.0212" lon="6.84945">
        <ele>3012</ele>
        <time>2022-07-15T07:18:47Z</time>
      </trkpt>
      <trkpt lat="46.02126" lon="6.8492">
        <ele>3018</ele>
        <time>2022-07-15T07:19:22Z</time>
      </trkpt>
      <trkpt lat="46.0213" lon="6.84916">
        <ele>3020</ele>
        <time>2022-07-15T07:19:37Z</time>
      </trkpt>
      <trkpt lat="46.02135" lon="6.84919">
        <ele>3023</ele>
        <time>2022-07-15T07:19:47Z</time>
      </trkpt>
      <trkpt lat="46.02139" lon="6.84927">
        <ele>3023</ele>
        <time>2022-07-15T07:19:57Z</time>
      </trkpt>
      <trkpt lat="46.02143" lon="6.84935">
        <ele>3024</ele>
        <time>2022-07-15T07:20:07Z</time>
      </trkpt>
      <trkpt lat="46.02147" lon="6.84932">
        <ele>3025</ele>
        <time>2022-07-15T07:20:22Z</time>
      </trkpt>
      <trkpt lat="46.02154" lon="6.84937">
        <ele>3025</ele>
        <time>2022-07-15T07:21:53Z</time>
      </trkpt>
      <trkpt lat="46.02161" lon="6.84944">
        <ele>3026</ele>
        <time>2022-07-15T07:22:01Z</time>
      </trkpt>
      <trkpt lat="46.02165" lon="6.84946">
        <ele>3026</ele>
        <time>2022-07-15T07:22:06Z</time>
      </trkpt>
      <trkpt lat="46.02172" lon="6.84952">
        <ele>3026</ele>
        <time>2022-07-15T07:22:20Z</time>
      </trkpt>
      <trkpt lat="46.02178" lon="6.84957">
        <ele>3027</ele>
        <time>2022-07-15T07:22:28Z</time>
      </trkpt>
      <trkpt lat="46.02182" lon="6.84962">
        <ele>3027</ele>
        <time>2022-07-15T07:22:33Z</time>
      </trkpt>
      <trkpt lat="46.02184" lon="6.84967">
        <ele>3028</ele>
        <time>2022-07-15T07:22:38Z</time>
      </trkpt>
      <trkpt lat="46.02195" lon="6.84975">
        <ele>3028</ele>
        <time>2022-07-15T07:22:55Z</time>
      </trkpt>
      <trkpt lat="46.02201" lon="6.84979">
        <ele>3029</ele>
        <time>2022-07-15T07:23:07Z</time>
      </trkpt>
      <trkpt lat="46.02211" lon="6.84985">
        <ele>3032</ele>
        <time>2022-07-15T07:23:27Z</time>
      </trkpt>
      <trkpt lat="46.02215" lon="6.84989">
        <ele>3032</ele>
        <time>2022-07-15T07:23:34Z</time>
      </trkpt>
      <trkpt lat="46.02219" lon="6.84992">
        <ele>3032</ele>
        <time>2022-07-15T07:23:39Z</time>
      </trkpt>
      <trkpt lat="46.02226" lon="6.84995">
        <ele>3033</ele>
        <time>2022-07-15T07:23:49Z</time>
      </trkpt>
      <trkpt lat="46.02234" lon="6.84997">
        <ele>3036</ele>
        <time>2022-07-15T07:24:01Z</time>
      </trkpt>
      <trkpt lat="46.0224" lon="6.85001">
        <ele>3037</ele>
        <time>2022-07-15T07:24:11Z</time>
      </trkpt>
      <trkpt lat="46.02244" lon="6.85005">
        <ele>3038</ele>
        <time>2022-07-15T07:24:15Z</time>
      </trkpt>
      <trkpt lat="46.02248" lon="6.85008">
        <ele>3038</ele>
        <time>2022-07-15T07:24:20Z</time>
      </trkpt>
      <trkpt lat="46.02276" lon="6.85015">
        <ele>3041</ele>
        <time>2022-07-15T07:24:51Z</time>
      </trkpt>
      <trkpt lat="46.0228" lon="6.85017">
        <ele>3041</ele>
        <time>2022-07-15T07:24:56Z</time>
      </trkpt>
      <trkpt lat="46.02285" lon="6.85023">
        <ele>3042</ele>
        <time>2022-07-15T07:25:04Z</time>
      </trkpt>
      <trkpt lat="46.02301" lon="6.85029">
        <ele>3044</ele>
        <time>2022-07-15T07:25:22Z</time>
      </trkpt>
      <trkpt lat="46.02308" lon="6.85034">
        <ele>3045</ele>
        <time>2022-07-15T07:25:32Z</time>
      </trkpt>
      <trkpt lat="46.02312" lon="6.85036">
        <ele>3045</ele>
        <time>2022-07-15T07:25:37Z</time>
      </trkpt>
      <trkpt lat="46.02332" lon="6.85052">
        <ele>3047</ele>
        <time>2022-07-15T07:26:02Z</time>
      </trkpt>
      <trkpt lat="46.02336" lon="6.85061">
        <ele>3048</ele>
        <time>2022-07-15T07:26:12Z</time>
      </trkpt>
      <trkpt lat="46.02341" lon="6.85063">
        <ele>3049</ele>
        <time>2022-07-15T07:26:18Z</time>
      </trkpt>
      <trkpt lat="46.02345" lon="6.85069">
        <ele>3050</ele>
        <time>2022-07-15T07:26:25Z</time>
      </trkpt>
      <trkpt lat="46.02352" lon="6.85089">
        <ele>3052</ele>
        <time>2022-07-15T07:26:45Z</time>
      </trkpt>
      <trkpt lat="46.02356" lon="6.85093">
        <ele>3052</ele>
        <time>2022-07-15T07:26:50Z</time>
      </trkpt>
      <trkpt lat="46.02359" lon="6.851">
        <ele>3053</ele>
        <time>2022-07-15T07:26:58Z</time>
      </trkpt>
      <trkpt lat="46.02364" lon="6.85107">
        <ele>3055</ele>
        <time>2022-07-15T07:27:08Z</time>
      </trkpt>
      <trkpt lat="46.02365" lon="6.85114">
        <ele>3056</ele>
        <time>2022-07-15T07:27:15Z</time>
      </trkpt>
      <trkpt lat="46.0237" lon="6.85124">
        <ele>3057</ele>
        <time>2022-07-15T07:27:25Z</time>
      </trkpt>
      <trkpt lat="46.02377" lon="6.85129">
        <ele>3058</ele>
        <time>2022-07-15T07:27:35Z</time>
      </trkpt>
      <trkpt lat="46.0238" lon="6.85137">
        <ele>3060</ele>
        <time>2022-07-15T07:27:45Z</time>
      </trkpt>
      <trkpt lat="46.02384" lon="6.85141">
        <ele>3061</ele>
        <time>2022-07-15T07:27:50Z</time>
      </trkpt>
      <trkpt lat="46.02397" lon="6.85147">
        <ele>3063</ele>
        <time>2022-07-15T07:28:08Z</time>
      </trkpt>
      <trkpt lat="46.02401" lon="6.85153">
        <ele>3065</ele>
        <time>2022-07-15T07:28:18Z</time>
      </trkpt>
      <trkpt lat="46.02403" lon="6.85161">
        <ele>3067</ele>
        <time>2022-07-15T07:28:28Z</time>
      </trkpt>
      <trkpt lat="46.02408" lon="6.85167">
        <ele>3068</ele>
        <time>2022-07-15T07:28:38Z</time>
      </trkpt>
      <trkpt lat="46.02413" lon="6.85172">
        <ele>3070</ele>
        <time>2022-07-15T07:28:48Z</time>
      </trkpt>
      <trkpt lat="46.02418" lon="6.85175">
        <ele>3071</ele>
        <time>2022-07-15T07:28:58Z</time>
      </trkpt>
      <trkpt lat="46.02423" lon="6.85181">
        <ele>3073</ele>
        <time>2022-07-15T07:29:09Z</time>
      </trkpt>
      <trkpt lat="46.02431" lon="6.85197">
        <ele>3076</ele>
        <time>2022-07-15T07:29:31Z</time>
      </trkpt>
      <trkpt lat="46.02434" lon="6.85202">
        <ele>3077</ele>
        <time>2022-07-15T07:29:38Z</time>
      </trkpt>
      <trkpt lat="46.0244" lon="6.85199">
        <ele>3079</ele>
        <time>2022-07-15T07:29:48Z</time>
      </trkpt>
      <trkpt lat="46.02451" lon="6.85206">
        <ele>3082</ele>
        <time>2022-07-15T07:30:08Z</time>
      </trkpt>
      <trkpt lat="46.02457" lon="6.85209">
        <ele>3083</ele>
        <time>2022-07-15T07:30:18Z</time>
      </trkpt>
      <trkpt lat="46.02462" lon="6.85211">
        <ele>3084</ele>
        <time>2022-07-15T07:30:28Z</time>
      </trkpt>
      <trkpt lat="46.02467" lon="6.85214">
        <ele>3086</ele>
        <time>2022-07-15T07:30:38Z</time>
      </trkpt>
      <trkpt lat="46.02471" lon="6.85228">
        <ele>3089</ele>
        <time>2022-07-15T07:30:58Z</time>
      </trkpt>
      <trkpt lat="46.02478" lon="6.85242">
        <ele>3092</ele>
        <time>2022-07-15T07:31:20Z</time>
      </trkpt>
      <trkpt lat="46.0248" lon="6.8525">
        <ele>3094</ele>
        <time>2022-07-15T07:31:30Z</time>
      </trkpt>
      <trkpt lat="46.0248" lon="6.85258">
        <ele>3095</ele>
        <time>2022-07-15T07:31:40Z</time>
      </trkpt>
      <trkpt lat="46.02476" lon="6.85268">
        <ele>3095</ele>
        <time>2022-07-15T07:31:50Z</time>
      </trkpt>
      <trkpt lat="46.02476" lon="6.85277">
        <ele>3096</ele>
        <time>2022-07-15T07:42:14Z</time>
      </trkpt>
      <trkpt lat="46.02474" lon="6.85283">
        <ele>3095</ele>
        <time>2022-07-15T07:42:21Z</time>
      </trkpt>
      <trkpt lat="46.02473" lon="6.85293">
        <ele>3095</ele>
        <time>2022-07-15T07:42:31Z</time>
      </trkpt>
      <trkpt lat="46.02464" lon="6.85316">
        <ele>3092</ele>
        <time>2022-07-15T07:42:56Z</time>
      </trkpt>
      <trkpt lat="46.0246" lon="6.85322">
        <ele>3090</ele>
        <time>2022-07-15T07:43:06Z</time>
      </trkpt>
      <trkpt lat="46.02453" lon="6.85338">
        <ele>3085</ele>
        <time>2022-07-15T07:43:26Z</time>
      </trkpt>
      <trkpt lat="46.02444" lon="6.85356">
        <ele>3082</ele>
        <time>2022-07-15T07:43:43Z</time>
      </trkpt>
      <trkpt lat="46.02442" lon="6.85363">
        <ele>3082</ele>
        <time>2022-07-15T07:43:48Z</time>
      </trkpt>
      <trkpt lat="46.02435" lon="6.85382">
        <ele>3082</ele>
        <time>2022-07-15T07:44:02Z</time>
      </trkpt>
      <trkpt lat="46.02432" lon="6.85387">
        <ele>3082</ele>
        <time>2022-07-15T07:44:07Z</time>
      </trkpt>
      <trkpt lat="46.02431" lon="6.85395">
        <ele>3082</ele>
        <time>2022-07-15T07:44:20Z</time>
      </trkpt>
      <trkpt lat="46.02429" lon="6.85402">
        <ele>3080</ele>
        <time>2022-07-15T07:44:30Z</time>
      </trkpt>
      <trkpt lat="46.02427" lon="6.8542">
        <ele>3077</ele>
        <time>2022-07-15T07:44:50Z</time>
      </trkpt>
      <trkpt lat="46.02423" lon="6.85423">
        <ele>3077</ele>
        <time>2022-07-15T07:46:29Z</time>
      </trkpt>
      <trkpt lat="46.02424" lon="6.85429">
        <ele>3076</ele>
        <time>2022-07-15T07:57:26Z</time>
      </trkpt>
      <trkpt lat="46.02424" lon="6.85429">
        <ele>3072</ele>
        <time>2022-07-15T08:04:48Z</time>
      </trkpt>
      <trkpt lat="46.02424" lon="6.85436">
        <ele>3071</ele>
        <time>2022-07-15T08:13:53Z</time>
      </trkpt>
      <trkpt lat="46.02424" lon="6.85445">
        <ele>3071</ele>
        <time>2022-07-15T08:14:03Z</time>
      </trkpt>
      <trkpt lat="46.02427" lon="6.8545">
        <ele>3070</ele>
        <time>2022-07-15T08:14:38Z</time>
      </trkpt>
      <trkpt lat="46.02427" lon="6.8545">
        <ele>3072</ele>
        <time>2022-07-15T08:16:11Z</time>
      </trkpt>
      <trkpt lat="46.02425" lon="6.85442">
        <ele>3071</ele>
        <time>2022-07-15T08:18:27Z</time>
      </trkpt>
      <trkpt lat="46.02426" lon="6.85436">
        <ele>3071</ele>
        <time>2022-07-15T08:18:37Z</time>
      </trkpt>
      <trkpt lat="46.0242" lon="6.85422">
        <ele>3072</ele>
        <time>2022-07-15T08:22:17Z</time>
      </trkpt>
      <trkpt lat="46.0242" lon="6.8543">
        <ele>3074</ele>
        <time>2022-07-15T08:37:35Z</time>
      </trkpt>
      <trkpt lat="46.02425" lon="6.85432">
        <ele>3070</ele>
        <time>2022-07-15T08:55:32Z</time>
      </trkpt>
      <trkpt lat="46.02425" lon="6.85439">
        <ele>3070</ele>
        <time>2022-07-15T08:55:47Z</time>
      </trkpt>
      <trkpt lat="46.02425" lon="6.85446">
        <ele>3070</ele>
        <time>2022-07-15T08:56:07Z</time>
      </trkpt>
      <trkpt lat="46.02426" lon="6.85455">
        <ele>3069</ele>
        <time>2022-07-15T08:56:27Z</time>
      </trkpt>
      <trkpt lat="46.02425" lon="6.85454">
        <ele>3072</ele>
        <time>2022-07-15T09:05:33Z</time>
      </trkpt>
      <trkpt lat="46.02424" lon="6.85447">
        <ele>3072</ele>
        <time>2022-07-15T09:05:38Z</time>
      </trkpt>
      <trkpt lat="46.02424" lon="6.85448">
        <ele>3072</ele>
        <time>2022-07-15T09:46:01Z</time>
      </trkpt>
      <trkpt lat="46.02423" lon="6.85444">
        <ele>3071</ele>
        <time>2022-07-15T10:00:13Z</time>
      </trkpt>
      <trkpt lat="46.02423" lon="6.85438">
        <ele>3071</ele>
        <time>2022-07-15T10:00:29Z</time>
      </trkpt>
      <trkpt lat="46.02424" lon="6.85431">
        <ele>3072</ele>
        <time>2022-07-15T10:00:44Z</time>
      </trkpt>
      <trkpt lat="46.02424" lon="6.85432">
        <ele>3072</ele>
        <time>2022-07-15T10:05:32Z</time>
      </trkpt>
      <trkpt lat="46.0242" lon="6.85439">
        <ele>3071</ele>
        <time>2022-07-15T10:05:57Z</time>
      </trkpt>
      <trkpt lat="46.02421" lon="6.85446">
        <ele>3072</ele>
        <time>2022-07-15T10:32:54Z</time>
      </trkpt>
      <trkpt lat="46.02425" lon="6.85436">
        <ele>3068</ele>
        <time>2022-07-15T10:47:06Z</time>
      </trkpt>
      <trkpt lat="46.02421" lon="6.85434">
        <ele>3068</ele>
        <time>2022-07-15T10:47:59Z</time>
      </trkpt>
      <trkpt lat="46.02423" lon="6.85435">
        <ele>3069</ele>
        <time>2022-07-15T10:48:55Z</time>
      </trkpt>
      <trkpt lat="46.02424" lon="6.85441">
        <ele>3068</ele>
        <time>2022-07-15T10:49:05Z</time>
      </trkpt>
      <trkpt lat="46.02424" lon="6.8544">
        <ele>3068</ele>
        <time>2022-07-15T10:57:07Z</time>
      </trkpt>
      <trkpt lat="46.02424" lon="6.85432">
        <ele>3068</ele>
        <time>2022-07-15T10:57:14Z</time>
      </trkpt>
      <trkpt lat="46.02423" lon="6.85426">
        <ele>3069</ele>
        <time>2022-07-15T10:57:24Z</time>
      </trkpt>
      <trkpt lat="46.02424" lon="6.85419">
        <ele>3071</ele>
        <time>2022-07-15T10:59:27Z</time>
      </trkpt>
      <trkpt lat="46.02427" lon="6.85413">
        <ele>3071</ele>
        <time>2022-07-15T10:59:42Z</time>
      </trkpt>
      <trkpt lat="46.0243" lon="6.85388">
        <ele>3076</ele>
        <time>2022-07-15T11:00:08Z</time>
      </trkpt>
      <trkpt lat="46.0243" lon="6.85382">
        <ele>3076</ele>
        <time>2022-07-15T11:00:13Z</time>
      </trkpt>
      <trkpt lat="46.02428" lon="6.85372">
        <ele>3075</ele>
        <time>2022-07-15T11:00:21Z</time>
      </trkpt>
      <trkpt lat="46.02423" lon="6.85362">
        <ele>3073</ele>
        <time>2022-07-15T11:00:32Z</time>
      </trkpt>
      <trkpt lat="46.02412" lon="6.85351">
        <ele>3070</ele>
        <time>2022-07-15T11:00:47Z</time>
      </trkpt>
      <trkpt lat="46.02401" lon="6.8533">
        <ele>3066</ele>
        <time>2022-07-15T11:01:15Z</time>
      </trkpt>
      <trkpt lat="46.02398" lon="6.8532">
        <ele>3065</ele>
        <time>2022-07-15T11:01:52Z</time>
      </trkpt>
      <trkpt lat="46.02392" lon="6.85306">
        <ele>3063</ele>
        <time>2022-07-15T11:02:04Z</time>
      </trkpt>
      <trkpt lat="46.02388" lon="6.85303">
        <ele>3062</ele>
        <time>2022-07-15T11:02:08Z</time>
      </trkpt>
      <trkpt lat="46.02382" lon="6.85292">
        <ele>3059</ele>
        <time>2022-07-15T11:02:19Z</time>
      </trkpt>
      <trkpt lat="46.02381" lon="6.85285">
        <ele>3058</ele>
        <time>2022-07-15T11:02:24Z</time>
      </trkpt>
      <trkpt lat="46.02366" lon="6.85252">
        <ele>3053</ele>
        <time>2022-07-15T11:02:55Z</time>
      </trkpt>
      <trkpt lat="46.02362" lon="6.85248">
        <ele>3051</ele>
        <time>2022-07-15T11:02:59Z</time>
      </trkpt>
      <trkpt lat="46.02358" lon="6.85239">
        <ele>3050</ele>
        <time>2022-07-15T11:03:06Z</time>
      </trkpt>
      <trkpt lat="46.02358" lon="6.85233">
        <ele>3049</ele>
        <time>2022-07-15T11:03:11Z</time>
      </trkpt>
      <trkpt lat="46.02358" lon="6.85227">
        <ele>3049</ele>
        <time>2022-07-15T11:03:17Z</time>
      </trkpt>
      <trkpt lat="46.02356" lon="6.85218">
        <ele>3049</ele>
        <time>2022-07-15T11:03:29Z</time>
      </trkpt>
      <trkpt lat="46.02353" lon="6.85208">
        <ele>3048</ele>
        <time>2022-07-15T11:03:41Z</time>
      </trkpt>
      <trkpt lat="46.02351" lon="6.85202">
        <ele>3047</ele>
        <time>2022-07-15T11:03:45Z</time>
      </trkpt>
      <trkpt lat="46.02349" lon="6.85194">
        <ele>3046</ele>
        <time>2022-07-15T11:03:52Z</time>
      </trkpt>
      <trkpt lat="46.02347" lon="6.85178">
        <ele>3046</ele>
        <time>2022-07-15T11:04:04Z</time>
      </trkpt>
      <trkpt lat="46.02349" lon="6.85172">
        <ele>3047</ele>
        <time>2022-07-15T11:04:09Z</time>
      </trkpt>
      <trkpt lat="46.02348" lon="6.85165">
        <ele>3047</ele>
        <time>2022-07-15T11:04:15Z</time>
      </trkpt>
      <trkpt lat="46.02344" lon="6.85152">
        <ele>3047</ele>
        <time>2022-07-15T11:04:24Z</time>
      </trkpt>
      <trkpt lat="46.02343" lon="6.85144">
        <ele>3046</ele>
        <time>2022-07-15T11:04:30Z</time>
      </trkpt>
      <trkpt lat="46.02341" lon="6.85137">
        <ele>3046</ele>
        <time>2022-07-15T11:04:35Z</time>
      </trkpt>
      <trkpt lat="46.02337" lon="6.85129">
        <ele>3045</ele>
        <time>2022-07-15T11:04:43Z</time>
      </trkpt>
      <trkpt lat="46.02335" lon="6.85123">
        <ele>3045</ele>
        <time>2022-07-15T11:04:47Z</time>
      </trkpt>
      <trkpt lat="46.02332" lon="6.85113">
        <ele>3044</ele>
        <time>2022-07-15T11:04:55Z</time>
      </trkpt>
      <trkpt lat="46.02327" lon="6.851">
        <ele>3042</ele>
        <time>2022-07-15T11:05:04Z</time>
      </trkpt>
      <trkpt lat="46.02318" lon="6.85095">
        <ele>3041</ele>
        <time>2022-07-15T11:05:12Z</time>
      </trkpt>
      <trkpt lat="46.02311" lon="6.85086">
        <ele>3039</ele>
        <time>2022-07-15T11:05:19Z</time>
      </trkpt>
      <trkpt lat="46.02288" lon="6.85046">
        <ele>3035</ele>
        <time>2022-07-15T11:05:51Z</time>
      </trkpt>
      <trkpt lat="46.02283" lon="6.85033">
        <ele>3036</ele>
        <time>2022-07-15T11:06:01Z</time>
      </trkpt>
      <trkpt lat="46.02276" lon="6.85025">
        <ele>3037</ele>
        <time>2022-07-15T11:06:11Z</time>
      </trkpt>
      <trkpt lat="46.02265" lon="6.85013">
        <ele>3035</ele>
        <time>2022-07-15T11:06:25Z</time>
      </trkpt>
      <trkpt lat="46.02259" lon="6.85009">
        <ele>3035</ele>
        <time>2022-07-15T11:06:32Z</time>
      </trkpt>
      <trkpt lat="46.02252" lon="6.85007">
        <ele>3035</ele>
        <time>2022-07-15T11:06:39Z</time>
      </trkpt>
      <trkpt lat="46.02244" lon="6.85003">
        <ele>3034</ele>
        <time>2022-07-15T11:06:50Z</time>
      </trkpt>
      <trkpt lat="46.02236" lon="6.85004">
        <ele>3033</ele>
        <time>2022-07-15T11:06:59Z</time>
      </trkpt>
      <trkpt lat="46.02231" lon="6.85">
        <ele>3032</ele>
        <time>2022-07-15T11:07:04Z</time>
      </trkpt>
      <trkpt lat="46.02228" lon="6.84995">
        <ele>3031</ele>
        <time>2022-07-15T11:07:09Z</time>
      </trkpt>
      <trkpt lat="46.02223" lon="6.84994">
        <ele>3030</ele>
        <time>2022-07-15T11:07:14Z</time>
      </trkpt>
      <trkpt lat="46.02215" lon="6.84986">
        <ele>3027</ele>
        <time>2022-07-15T11:07:25Z</time>
      </trkpt>
      <trkpt lat="46.02212" lon="6.84982">
        <ele>3025</ele>
        <time>2022-07-15T11:07:33Z</time>
      </trkpt>
      <trkpt lat="46.02205" lon="6.84974">
        <ele>3023</ele>
        <time>2022-07-15T11:07:45Z</time>
      </trkpt>
      <trkpt lat="46.02201" lon="6.84974">
        <ele>3022</ele>
        <time>2022-07-15T11:07:50Z</time>
      </trkpt>
      <trkpt lat="46.02196" lon="6.84973">
        <ele>3023</ele>
        <time>2022-07-15T11:07:55Z</time>
      </trkpt>
      <trkpt lat="46.02192" lon="6.84969">
        <ele>3022</ele>
        <time>2022-07-15T11:08:00Z</time>
      </trkpt>
      <trkpt lat="46.02188" lon="6.84968">
        <ele>3022</ele>
        <time>2022-07-15T11:08:04Z</time>
      </trkpt>
      <trkpt lat="46.02183" lon="6.84965">
        <ele>3024</ele>
        <time>2022-07-15T11:08:12Z</time>
      </trkpt>
      <trkpt lat="46.02181" lon="6.8496">
        <ele>3023</ele>
        <time>2022-07-15T11:08:18Z</time>
      </trkpt>
      <trkpt lat="46.02166" lon="6.84949">
        <ele>3022</ele>
        <time>2022-07-15T11:08:39Z</time>
      </trkpt>
      <trkpt lat="46.02161" lon="6.84945">
        <ele>3022</ele>
        <time>2022-07-15T11:08:44Z</time>
      </trkpt>
      <trkpt lat="46.02156" lon="6.84942">
        <ele>3022</ele>
        <time>2022-07-15T11:08:49Z</time>
      </trkpt>
      <trkpt lat="46.02144" lon="6.84935">
        <ele>3022</ele>
        <time>2022-07-15T11:09:03Z</time>
      </trkpt>
      <trkpt lat="46.02133" lon="6.84919">
        <ele>3019</ele>
        <time>2022-07-15T11:09:20Z</time>
      </trkpt>
      <trkpt lat="46.02128" lon="6.84916">
        <ele>3017</ele>
        <time>2022-07-15T11:09:28Z</time>
      </trkpt>
      <trkpt lat="46.02122" lon="6.84934">
        <ele>3011</ele>
        <time>2022-07-15T11:09:50Z</time>
      </trkpt>
      <trkpt lat="46.02121" lon="6.84951">
        <ele>3008</ele>
        <time>2022-07-15T11:10:07Z</time>
      </trkpt>
      <trkpt lat="46.02125" lon="6.84969">
        <ele>3003</ele>
        <time>2022-07-15T11:10:27Z</time>
      </trkpt>
      <trkpt lat="46.02119" lon="6.8498">
        <ele>2998</ele>
        <time>2022-07-15T11:10:47Z</time>
      </trkpt>
      <trkpt lat="46.02106" lon="6.84979">
        <ele>2994</ele>
        <time>2022-07-15T11:11:04Z</time>
      </trkpt>
      <trkpt lat="46.02102" lon="6.84979">
        <ele>2992</ele>
        <time>2022-07-15T11:11:11Z</time>
      </trkpt>
      <trkpt lat="46.02099" lon="6.84987">
        <ele>2989</ele>
        <time>2022-07-15T11:11:21Z</time>
      </trkpt>
      <trkpt lat="46.02077" lon="6.84986">
        <ele>2980</ele>
        <time>2022-07-15T11:11:53Z</time>
      </trkpt>
      <trkpt lat="46.02072" lon="6.84991">
        <ele>2976</ele>
        <time>2022-07-15T11:12:04Z</time>
      </trkpt>
      <trkpt lat="46.02068" lon="6.84994">
        <ele>2972</ele>
        <time>2022-07-15T11:12:15Z</time>
      </trkpt>
      <trkpt lat="46.02065" lon="6.85">
        <ele>2969</ele>
        <time>2022-07-15T11:12:25Z</time>
      </trkpt>
      <trkpt lat="46.02065" lon="6.85007">
        <ele>2968</ele>
        <time>2022-07-15T11:12:29Z</time>
      </trkpt>
      <trkpt lat="46.02053" lon="6.85008">
        <ele>2962</ele>
        <time>2022-07-15T11:12:47Z</time>
      </trkpt>
      <trkpt lat="46.02037" lon="6.84999">
        <ele>2954</ele>
        <time>2022-07-15T11:13:06Z</time>
      </trkpt>
      <trkpt lat="46.02035" lon="6.85008">
        <ele>2952</ele>
        <time>2022-07-15T11:13:15Z</time>
      </trkpt>
      <trkpt lat="46.0203" lon="6.8501">
        <ele>2949</ele>
        <time>2022-07-15T11:13:24Z</time>
      </trkpt>
      <trkpt lat="46.02026" lon="6.85006">
        <ele>2947</ele>
        <time>2022-07-15T11:13:29Z</time>
      </trkpt>
      <trkpt lat="46.0202" lon="6.85004">
        <ele>2944</ele>
        <time>2022-07-15T11:13:38Z</time>
      </trkpt>
      <trkpt lat="46.02018" lon="6.8501">
        <ele>2942</ele>
        <time>2022-07-15T11:13:43Z</time>
      </trkpt>
      <trkpt lat="46.02013" lon="6.85003">
        <ele>2941</ele>
        <time>2022-07-15T11:13:48Z</time>
      </trkpt>
      <trkpt lat="46.02009" lon="6.84999">
        <ele>2939</ele>
        <time>2022-07-15T11:13:54Z</time>
      </trkpt>
      <trkpt lat="46.02006" lon="6.85021">
        <ele>2934</ele>
        <time>2022-07-15T11:14:07Z</time>
      </trkpt>
      <trkpt lat="46.02004" lon="6.85028">
        <ele>2932</ele>
        <time>2022-07-15T11:14:14Z</time>
      </trkpt>
      <trkpt lat="46.02003" lon="6.85035">
        <ele>2931</ele>
        <time>2022-07-15T11:14:18Z</time>
      </trkpt>
      <trkpt lat="46.02" lon="6.85055">
        <ele>2927</ele>
        <time>2022-07-15T11:14:30Z</time>
      </trkpt>
      <trkpt lat="46.01998" lon="6.85062">
        <ele>2926</ele>
        <time>2022-07-15T11:14:34Z</time>
      </trkpt>
      <trkpt lat="46.01994" lon="6.85075">
        <ele>2924</ele>
        <time>2022-07-15T11:14:41Z</time>
      </trkpt>
      <trkpt lat="46.01994" lon="6.85081">
        <ele>2924</ele>
        <time>2022-07-15T11:14:45Z</time>
      </trkpt>
      <trkpt lat="46.0199" lon="6.85088">
        <ele>2922</ele>
        <time>2022-07-15T11:14:51Z</time>
      </trkpt>
      <trkpt lat="46.01987" lon="6.85093">
        <ele>2921</ele>
        <time>2022-07-15T11:14:55Z</time>
      </trkpt>
      <trkpt lat="46.01982" lon="6.85125">
        <ele>2917</ele>
        <time>2022-07-15T11:15:13Z</time>
      </trkpt>
      <trkpt lat="46.01982" lon="6.85132">
        <ele>2916</ele>
        <time>2022-07-15T11:15:16Z</time>
      </trkpt>
      <trkpt lat="46.01982" lon="6.85138">
        <ele>2915</ele>
        <time>2022-07-15T11:15:19Z</time>
      </trkpt>
      <trkpt lat="46.01984" lon="6.85153">
        <ele>2914</ele>
        <time>2022-07-15T11:15:28Z</time>
      </trkpt>
      <trkpt lat="46.01983" lon="6.85161">
        <ele>2913</ele>
        <time>2022-07-15T11:15:32Z</time>
      </trkpt>
      <trkpt lat="46.01978" lon="6.85159">
        <ele>2912</ele>
        <time>2022-07-15T11:15:36Z</time>
      </trkpt>
      <trkpt lat="46.01968" lon="6.85149">
        <ele>2909</ele>
        <time>2022-07-15T11:15:48Z</time>
      </trkpt>
      <trkpt lat="46.01966" lon="6.85143">
        <ele>2908</ele>
        <time>2022-07-15T11:15:51Z</time>
      </trkpt>
      <trkpt lat="46.01958" lon="6.85144">
        <ele>2903</ele>
        <time>2022-07-15T11:16:10Z</time>
      </trkpt>
      <trkpt lat="46.01955" lon="6.8514">
        <ele>2902</ele>
        <time>2022-07-15T11:16:14Z</time>
      </trkpt>
      <trkpt lat="46.0195" lon="6.85132">
        <ele>2899</ele>
        <time>2022-07-15T11:16:24Z</time>
      </trkpt>
      <trkpt lat="46.01944" lon="6.85152">
        <ele>2893</ele>
        <time>2022-07-15T11:16:41Z</time>
      </trkpt>
      <trkpt lat="46.0194" lon="6.85146">
        <ele>2891</ele>
        <time>2022-07-15T11:16:47Z</time>
      </trkpt>
      <trkpt lat="46.01938" lon="6.85155">
        <ele>2889</ele>
        <time>2022-07-15T11:16:54Z</time>
      </trkpt>
      <trkpt lat="46.01936" lon="6.85164">
        <ele>2886</ele>
        <time>2022-07-15T11:17:02Z</time>
      </trkpt>
      <trkpt lat="46.01928" lon="6.85153">
        <ele>2883</ele>
        <time>2022-07-15T11:17:14Z</time>
      </trkpt>
      <trkpt lat="46.01922" lon="6.85165">
        <ele>2877</ele>
        <time>2022-07-15T11:17:27Z</time>
      </trkpt>
      <trkpt lat="46.01922" lon="6.85172">
        <ele>2875</ele>
        <time>2022-07-15T11:17:32Z</time>
      </trkpt>
      <trkpt lat="46.01917" lon="6.85175">
        <ele>2872</ele>
        <time>2022-07-15T11:17:42Z</time>
      </trkpt>
      <trkpt lat="46.01904" lon="6.85161">
        <ele>2867</ele>
        <time>2022-07-15T11:17:57Z</time>
      </trkpt>
      <trkpt lat="46.01897" lon="6.8518">
        <ele>2860</ele>
        <time>2022-07-15T11:18:16Z</time>
      </trkpt>
      <trkpt lat="46.01897" lon="6.85187">
        <ele>2858</ele>
        <time>2022-07-15T11:18:23Z</time>
      </trkpt>
      <trkpt lat="46.01893" lon="6.85182">
        <ele>2857</ele>
        <time>2022-07-15T11:18:27Z</time>
      </trkpt>
      <trkpt lat="46.01887" lon="6.85193">
        <ele>2852</ele>
        <time>2022-07-15T11:18:39Z</time>
      </trkpt>
      <trkpt lat="46.01881" lon="6.85193">
        <ele>2851</ele>
        <time>2022-07-15T11:18:48Z</time>
      </trkpt>
      <trkpt lat="46.01875" lon="6.85191">
        <ele>2845</ele>
        <time>2022-07-15T11:18:58Z</time>
      </trkpt>
      <trkpt lat="46.0187" lon="6.85196">
        <ele>2841</ele>
        <time>2022-07-15T11:19:08Z</time>
      </trkpt>
      <trkpt lat="46.01867" lon="6.85201">
        <ele>2839</ele>
        <time>2022-07-15T11:19:13Z</time>
      </trkpt>
      <trkpt lat="46.01864" lon="6.85204">
        <ele>2837</ele>
        <time>2022-07-15T11:19:21Z</time>
      </trkpt>
      <trkpt lat="46.01856" lon="6.85198">
        <ele>2834</ele>
        <time>2022-07-15T11:19:31Z</time>
      </trkpt>
      <trkpt lat="46.01854" lon="6.85206">
        <ele>2831</ele>
        <time>2022-07-15T11:19:38Z</time>
      </trkpt>
      <trkpt lat="46.01848" lon="6.85204">
        <ele>2829</ele>
        <time>2022-07-15T11:19:48Z</time>
      </trkpt>
      <trkpt lat="46.01836" lon="6.85194">
        <ele>2819</ele>
        <time>2022-07-15T11:20:09Z</time>
      </trkpt>
      <trkpt lat="46.01831" lon="6.85197">
        <ele>2815</ele>
        <time>2022-07-15T11:20:17Z</time>
      </trkpt>
      <trkpt lat="46.01827" lon="6.85204">
        <ele>2812</ele>
        <time>2022-07-15T11:20:24Z</time>
      </trkpt>
      <trkpt lat="46.01821" lon="6.85208">
        <ele>2808</ele>
        <time>2022-07-15T11:20:36Z</time>
      </trkpt>
      <trkpt lat="46.01817" lon="6.85212">
        <ele>2804</ele>
        <time>2022-07-15T11:20:46Z</time>
      </trkpt>
      <trkpt lat="46.01814" lon="6.85221">
        <ele>2800</ele>
        <time>2022-07-15T11:20:56Z</time>
      </trkpt>
      <trkpt lat="46.0181" lon="6.85216">
        <ele>2799</ele>
        <time>2022-07-15T11:21:01Z</time>
      </trkpt>
      <trkpt lat="46.01807" lon="6.85222">
        <ele>2796</ele>
        <time>2022-07-15T11:21:08Z</time>
      </trkpt>
      <trkpt lat="46.01803" lon="6.85215">
        <ele>2795</ele>
        <time>2022-07-15T11:21:13Z</time>
      </trkpt>
      <trkpt lat="46.01801" lon="6.8521">
        <ele>2793</ele>
        <time>2022-07-15T11:21:17Z</time>
      </trkpt>
      <trkpt lat="46.01796" lon="6.85205">
        <ele>2791</ele>
        <time>2022-07-15T11:21:24Z</time>
      </trkpt>
      <trkpt lat="46.01792" lon="6.85206">
        <ele>2788</ele>
        <time>2022-07-15T11:21:31Z</time>
      </trkpt>
      <trkpt lat="46.01783" lon="6.85187">
        <ele>2782</ele>
        <time>2022-07-15T11:21:48Z</time>
      </trkpt>
      <trkpt lat="46.01775" lon="6.85186">
        <ele>2777</ele>
        <time>2022-07-15T11:21:58Z</time>
      </trkpt>
      <trkpt lat="46.01773" lon="6.8518">
        <ele>2775</ele>
        <time>2022-07-15T11:22:02Z</time>
      </trkpt>
      <trkpt lat="46.01769" lon="6.85187">
        <ele>2772</ele>
        <time>2022-07-15T11:22:08Z</time>
      </trkpt>
      <trkpt lat="46.01764" lon="6.8519">
        <ele>2771</ele>
        <time>2022-07-15T11:22:13Z</time>
      </trkpt>
      <trkpt lat="46.01761" lon="6.85182">
        <ele>2768</ele>
        <time>2022-07-15T11:22:19Z</time>
      </trkpt>
      <trkpt lat="46.01756" lon="6.85183">
        <ele>2766</ele>
        <time>2022-07-15T11:22:27Z</time>
      </trkpt>
      <trkpt lat="46.01751" lon="6.85177">
        <ele>2763</ele>
        <time>2022-07-15T11:22:36Z</time>
      </trkpt>
      <trkpt lat="46.01748" lon="6.85183">
        <ele>2762</ele>
        <time>2022-07-15T11:22:40Z</time>
      </trkpt>
      <trkpt lat="46.01746" lon="6.85176">
        <ele>2760</ele>
        <time>2022-07-15T11:22:46Z</time>
      </trkpt>
      <trkpt lat="46.0174" lon="6.85177">
        <ele>2757</ele>
        <time>2022-07-15T11:22:56Z</time>
      </trkpt>
      <trkpt lat="46.01736" lon="6.85175">
        <ele>2756</ele>
        <time>2022-07-15T11:23:01Z</time>
      </trkpt>
      <trkpt lat="46.01732" lon="6.8517">
        <ele>2754</ele>
        <time>2022-07-15T11:23:06Z</time>
      </trkpt>
      <trkpt lat="46.01728" lon="6.85162">
        <ele>2752</ele>
        <time>2022-07-15T11:23:12Z</time>
      </trkpt>
      <trkpt lat="46.01724" lon="6.85166">
        <ele>2751</ele>
        <time>2022-07-15T11:23:16Z</time>
      </trkpt>
      <trkpt lat="46.01723" lon="6.85173">
        <ele>2749</ele>
        <time>2022-07-15T11:23:21Z</time>
      </trkpt>
      <trkpt lat="46.01716" lon="6.85171">
        <ele>2746</ele>
        <time>2022-07-15T11:23:30Z</time>
      </trkpt>
      <trkpt lat="46.01712" lon="6.8517">
        <ele>2744</ele>
        <time>2022-07-15T11:23:35Z</time>
      </trkpt>
      <trkpt lat="46.01708" lon="6.85163">
        <ele>2742</ele>
        <time>2022-07-15T11:23:40Z</time>
      </trkpt>
      <trkpt lat="46.01698" lon="6.85167">
        <ele>2738</ele>
        <time>2022-07-15T11:23:53Z</time>
      </trkpt>
      <trkpt lat="46.01694" lon="6.85168">
        <ele>2736</ele>
        <time>2022-07-15T11:23:59Z</time>
      </trkpt>
      <trkpt lat="46.0169" lon="6.85165">
        <ele>2735</ele>
        <time>2022-07-15T11:24:04Z</time>
      </trkpt>
      <trkpt lat="46.01688" lon="6.85155">
        <ele>2733</ele>
        <time>2022-07-15T11:24:20Z</time>
      </trkpt>
      <trkpt lat="46.01681" lon="6.85147">
        <ele>2731</ele>
        <time>2022-07-15T11:24:27Z</time>
      </trkpt>
      <trkpt lat="46.01659" lon="6.85134">
        <ele>2728</ele>
        <time>2022-07-15T11:24:45Z</time>
      </trkpt>
      <trkpt lat="46.01649" lon="6.85125">
        <ele>2725</ele>
        <time>2022-07-15T11:24:56Z</time>
      </trkpt>
      <trkpt lat="46.01641" lon="6.85119">
        <ele>2723</ele>
        <time>2022-07-15T11:25:05Z</time>
      </trkpt>
      <trkpt lat="46.01636" lon="6.85115">
        <ele>2721</ele>
        <time>2022-07-15T11:25:09Z</time>
      </trkpt>
      <trkpt lat="46.0163" lon="6.85114">
        <ele>2719</ele>
        <time>2022-07-15T11:25:13Z</time>
      </trkpt>
      <trkpt lat="46.01618" lon="6.85103">
        <ele>2715</ele>
        <time>2022-07-15T11:25:27Z</time>
      </trkpt>
      <trkpt lat="46.01614" lon="6.85102">
        <ele>2713</ele>
        <time>2022-07-15T11:25:32Z</time>
      </trkpt>
      <trkpt lat="46.01606" lon="6.8509">
        <ele>2710</ele>
        <time>2022-07-15T11:25:45Z</time>
      </trkpt>
      <trkpt lat="46.01599" lon="6.85085">
        <ele>2708</ele>
        <time>2022-07-15T11:25:53Z</time>
      </trkpt>
      <trkpt lat="46.01592" lon="6.85077">
        <ele>2706</ele>
        <time>2022-07-15T11:26:02Z</time>
      </trkpt>
      <trkpt lat="46.0159" lon="6.85072">
        <ele>2704</ele>
        <time>2022-07-15T11:26:07Z</time>
      </trkpt>
      <trkpt lat="46.01587" lon="6.85068">
        <ele>2703</ele>
        <time>2022-07-15T11:26:11Z</time>
      </trkpt>
      <trkpt lat="46.01582" lon="6.85065">
        <ele>2701</ele>
        <time>2022-07-15T11:26:15Z</time>
      </trkpt>
      <trkpt lat="46.01578" lon="6.85059">
        <ele>2700</ele>
        <time>2022-07-15T11:26:22Z</time>
      </trkpt>
      <trkpt lat="46.01563" lon="6.85062">
        <ele>2696</ele>
        <time>2022-07-15T11:26:34Z</time>
      </trkpt>
      <trkpt lat="46.01559" lon="6.85059">
        <ele>2695</ele>
        <time>2022-07-15T11:26:38Z</time>
      </trkpt>
      <trkpt lat="46.01529" lon="6.85031">
        <ele>2686</ele>
        <time>2022-07-15T11:27:15Z</time>
      </trkpt>
      <trkpt lat="46.01522" lon="6.85028">
        <ele>2684</ele>
        <time>2022-07-15T11:27:22Z</time>
      </trkpt>
      <trkpt lat="46.01517" lon="6.85026">
        <ele>2683</ele>
        <time>2022-07-15T11:27:27Z</time>
      </trkpt>
      <trkpt lat="46.01514" lon="6.85021">
        <ele>2682</ele>
        <time>2022-07-15T11:27:32Z</time>
      </trkpt>
      <trkpt lat="46.01502" lon="6.85018">
        <ele>2679</ele>
        <time>2022-07-15T11:27:42Z</time>
      </trkpt>
      <trkpt lat="46.01499" lon="6.85013">
        <ele>2678</ele>
        <time>2022-07-15T11:27:46Z</time>
      </trkpt>
      <trkpt lat="46.01491" lon="6.85004">
        <ele>2675</ele>
        <time>2022-07-15T11:27:56Z</time>
      </trkpt>
      <trkpt lat="46.01486" lon="6.85001">
        <ele>2673</ele>
        <time>2022-07-15T11:28:04Z</time>
      </trkpt>
      <trkpt lat="46.01482" lon="6.84997">
        <ele>2672</ele>
        <time>2022-07-15T11:28:09Z</time>
      </trkpt>
      <trkpt lat="46.01476" lon="6.84992">
        <ele>2670</ele>
        <time>2022-07-15T11:28:16Z</time>
      </trkpt>
      <trkpt lat="46.01462" lon="6.8498">
        <ele>2664</ele>
        <time>2022-07-15T11:28:34Z</time>
      </trkpt>
      <trkpt lat="46.01457" lon="6.84979">
        <ele>2662</ele>
        <time>2022-07-15T11:28:38Z</time>
      </trkpt>
      <trkpt lat="46.01452" lon="6.8498">
        <ele>2661</ele>
        <time>2022-07-15T11:28:45Z</time>
      </trkpt>
      <trkpt lat="46.01444" lon="6.84986">
        <ele>2659</ele>
        <time>2022-07-15T11:28:54Z</time>
      </trkpt>
      <trkpt lat="46.01439" lon="6.84988">
        <ele>2658</ele>
        <time>2022-07-15T11:28:59Z</time>
      </trkpt>
      <trkpt lat="46.01432" lon="6.84991">
        <ele>2656</ele>
        <time>2022-07-15T11:29:07Z</time>
      </trkpt>
      <trkpt lat="46.01426" lon="6.8499">
        <ele>2654</ele>
        <time>2022-07-15T11:29:14Z</time>
      </trkpt>
      <trkpt lat="46.01422" lon="6.84986">
        <ele>2653</ele>
        <time>2022-07-15T11:29:18Z</time>
      </trkpt>
      <trkpt lat="46.01417" lon="6.84986">
        <ele>2652</ele>
        <time>2022-07-15T11:29:22Z</time>
      </trkpt>
      <trkpt lat="46.01406" lon="6.84987">
        <ele>2649</ele>
        <time>2022-07-15T11:29:34Z</time>
      </trkpt>
      <trkpt lat="46.01403" lon="6.84991">
        <ele>2647</ele>
        <time>2022-07-15T11:29:41Z</time>
      </trkpt>
      <trkpt lat="46.01396" lon="6.84998">
        <ele>2644</ele>
        <time>2022-07-15T11:29:51Z</time>
      </trkpt>
      <trkpt lat="46.01374" lon="6.85015">
        <ele>2638</ele>
        <time>2022-07-15T11:30:14Z</time>
      </trkpt>
      <trkpt lat="46.01369" lon="6.85027">
        <ele>2635</ele>
        <time>2022-07-15T11:30:23Z</time>
      </trkpt>
      <trkpt lat="46.0137" lon="6.85033">
        <ele>2633</ele>
        <time>2022-07-15T11:30:26Z</time>
      </trkpt>
      <trkpt lat="46.01364" lon="6.85035">
        <ele>2630</ele>
        <time>2022-07-15T11:30:34Z</time>
      </trkpt>
      <trkpt lat="46.01353" lon="6.85043">
        <ele>2626</ele>
        <time>2022-07-15T11:30:46Z</time>
      </trkpt>
      <trkpt lat="46.01351" lon="6.85048">
        <ele>2624</ele>
        <time>2022-07-15T11:30:50Z</time>
      </trkpt>
      <trkpt lat="46.01341" lon="6.85055">
        <ele>2622</ele>
        <time>2022-07-15T11:30:59Z</time>
      </trkpt>
      <trkpt lat="46.0134" lon="6.8506">
        <ele>2621</ele>
        <time>2022-07-15T11:31:03Z</time>
      </trkpt>
      <trkpt lat="46.01326" lon="6.85071">
        <ele>2617</ele>
        <time>2022-07-15T11:31:14Z</time>
      </trkpt>
      <trkpt lat="46.01324" lon="6.85077">
        <ele>2616</ele>
        <time>2022-07-15T11:31:18Z</time>
      </trkpt>
      <trkpt lat="46.01312" lon="6.85083">
        <ele>2611</ele>
        <time>2022-07-15T11:31:30Z</time>
      </trkpt>
      <trkpt lat="46.01303" lon="6.85082">
        <ele>2609</ele>
        <time>2022-07-15T11:31:37Z</time>
      </trkpt>
      <trkpt lat="46.01298" lon="6.85095">
        <ele>2607</ele>
        <time>2022-07-15T11:31:43Z</time>
      </trkpt>
      <trkpt lat="46.01296" lon="6.85102">
        <ele>2605</ele>
        <time>2022-07-15T11:31:48Z</time>
      </trkpt>
      <trkpt lat="46.01292" lon="6.85106">
        <ele>2604</ele>
        <time>2022-07-15T11:31:53Z</time>
      </trkpt>
      <trkpt lat="46.01282" lon="6.85107">
        <ele>2601</ele>
        <time>2022-07-15T11:32:01Z</time>
      </trkpt>
      <trkpt lat="46.01272" lon="6.85115">
        <ele>2597</ele>
        <time>2022-07-15T11:32:13Z</time>
      </trkpt>
      <trkpt lat="46.01268" lon="6.85112">
        <ele>2596</ele>
        <time>2022-07-15T11:32:17Z</time>
      </trkpt>
      <trkpt lat="46.01262" lon="6.85116">
        <ele>2595</ele>
        <time>2022-07-15T11:32:21Z</time>
      </trkpt>
      <trkpt lat="46.0126" lon="6.85123">
        <ele>2594</ele>
        <time>2022-07-15T11:32:25Z</time>
      </trkpt>
      <trkpt lat="46.01256" lon="6.85127">
        <ele>2593</ele>
        <time>2022-07-15T11:32:28Z</time>
      </trkpt>
      <trkpt lat="46.01255" lon="6.85133">
        <ele>2592</ele>
        <time>2022-07-15T11:32:32Z</time>
      </trkpt>
      <trkpt lat="46.01252" lon="6.85139">
        <ele>2590</ele>
        <time>2022-07-15T11:32:37Z</time>
      </trkpt>
      <trkpt lat="46.01251" lon="6.8515">
        <ele>2588</ele>
        <time>2022-07-15T11:32:59Z</time>
      </trkpt>
      <trkpt lat="46.01237" lon="6.85167">
        <ele>2582</ele>
        <time>2022-07-15T11:33:17Z</time>
      </trkpt>
      <trkpt lat="46.01232" lon="6.85179">
        <ele>2579</ele>
        <time>2022-07-15T11:33:26Z</time>
      </trkpt>
      <trkpt lat="46.0123" lon="6.85189">
        <ele>2577</ele>
        <time>2022-07-15T11:33:33Z</time>
      </trkpt>
      <trkpt lat="46.01226" lon="6.85195">
        <ele>2575</ele>
        <time>2022-07-15T11:33:38Z</time>
      </trkpt>
      <trkpt lat="46.01224" lon="6.85202">
        <ele>2573</ele>
        <time>2022-07-15T11:33:45Z</time>
      </trkpt>
      <trkpt lat="46.01217" lon="6.85211">
        <ele>2570</ele>
        <time>2022-07-15T11:33:54Z</time>
      </trkpt>
      <trkpt lat="46.01215" lon="6.85217">
        <ele>2569</ele>
        <time>2022-07-15T11:33:59Z</time>
      </trkpt>
      <trkpt lat="46.01215" lon="6.85226">
        <ele>2567</ele>
        <time>2022-07-15T11:34:04Z</time>
      </trkpt>
      <trkpt lat="46.01212" lon="6.85237">
        <ele>2565</ele>
        <time>2022-07-15T11:34:12Z</time>
      </trkpt>
      <trkpt lat="46.0121" lon="6.85242">
        <ele>2563</ele>
        <time>2022-07-15T11:34:17Z</time>
      </trkpt>
      <trkpt lat="46.01208" lon="6.85248">
        <ele>2562</ele>
        <time>2022-07-15T11:34:22Z</time>
      </trkpt>
      <trkpt lat="46.01201" lon="6.85262">
        <ele>2559</ele>
        <time>2022-07-15T11:34:33Z</time>
      </trkpt>
      <trkpt lat="46.01192" lon="6.85269">
        <ele>2557</ele>
        <time>2022-07-15T11:34:43Z</time>
      </trkpt>
      <trkpt lat="46.0119" lon="6.85276">
        <ele>2557</ele>
        <time>2022-07-15T11:34:46Z</time>
      </trkpt>
      <trkpt lat="46.01187" lon="6.8528">
        <ele>2555</ele>
        <time>2022-07-15T11:34:50Z</time>
      </trkpt>
      <trkpt lat="46.01182" lon="6.85282">
        <ele>2554</ele>
        <time>2022-07-15T11:34:53Z</time>
      </trkpt>
      <trkpt lat="46.01173" lon="6.85288">
        <ele>2554</ele>
        <time>2022-07-15T11:35:02Z</time>
      </trkpt>
      <trkpt lat="46.0117" lon="6.85294">
        <ele>2552</ele>
        <time>2022-07-15T11:35:07Z</time>
      </trkpt>
      <trkpt lat="46.01165" lon="6.85293">
        <ele>2552</ele>
        <time>2022-07-15T11:35:12Z</time>
      </trkpt>
      <trkpt lat="46.01159" lon="6.85305">
        <ele>2549</ele>
        <time>2022-07-15T11:35:21Z</time>
      </trkpt>
      <trkpt lat="46.01152" lon="6.85308">
        <ele>2547</ele>
        <time>2022-07-15T11:35:29Z</time>
      </trkpt>
      <trkpt lat="46.01154" lon="6.85317">
        <ele>2545</ele>
        <time>2022-07-15T11:35:35Z</time>
      </trkpt>
      <trkpt lat="46.01146" lon="6.85331">
        <ele>2540</ele>
        <time>2022-07-15T11:35:52Z</time>
      </trkpt>
      <trkpt lat="46.01139" lon="6.85341">
        <ele>2536</ele>
        <time>2022-07-15T11:36:01Z</time>
      </trkpt>
      <trkpt lat="46.01135" lon="6.85345">
        <ele>2535</ele>
        <time>2022-07-15T11:36:04Z</time>
      </trkpt>
      <trkpt lat="46.01131" lon="6.85349">
        <ele>2535</ele>
        <time>2022-07-15T11:36:08Z</time>
      </trkpt>
      <trkpt lat="46.01129" lon="6.85356">
        <ele>2535</ele>
        <time>2022-07-15T11:36:12Z</time>
      </trkpt>
      <trkpt lat="46.01127" lon="6.85361">
        <ele>2534</ele>
        <time>2022-07-15T11:36:15Z</time>
      </trkpt>
      <trkpt lat="46.01121" lon="6.8537">
        <ele>2531</ele>
        <time>2022-07-15T11:36:23Z</time>
      </trkpt>
      <trkpt lat="46.01118" lon="6.85379">
        <ele>2529</ele>
        <time>2022-07-15T11:36:31Z</time>
      </trkpt>
      <trkpt lat="46.01104" lon="6.85398">
        <ele>2527</ele>
        <time>2022-07-15T11:36:47Z</time>
      </trkpt>
      <trkpt lat="46.01099" lon="6.85412">
        <ele>2525</ele>
        <time>2022-07-15T11:37:03Z</time>
      </trkpt>
      <trkpt lat="46.01094" lon="6.85429">
        <ele>2524</ele>
        <time>2022-07-15T11:37:20Z</time>
      </trkpt>
      <trkpt lat="46.01093" lon="6.85435">
        <ele>2524</ele>
        <time>2022-07-15T11:37:24Z</time>
      </trkpt>
      <trkpt lat="46.0109" lon="6.85441">
        <ele>2524</ele>
        <time>2022-07-15T11:37:28Z</time>
      </trkpt>
      <trkpt lat="46.01087" lon="6.85456">
        <ele>2523</ele>
        <time>2022-07-15T11:37:37Z</time>
      </trkpt>
      <trkpt lat="46.01085" lon="6.85461">
        <ele>2522</ele>
        <time>2022-07-15T11:37:41Z</time>
      </trkpt>
      <trkpt lat="46.01084" lon="6.85469">
        <ele>2522</ele>
        <time>2022-07-15T11:37:45Z</time>
      </trkpt>
      <trkpt lat="46.01084" lon="6.85476">
        <ele>2522</ele>
        <time>2022-07-15T11:37:49Z</time>
      </trkpt>
      <trkpt lat="46.01084" lon="6.85485">
        <ele>2522</ele>
        <time>2022-07-15T11:37:54Z</time>
      </trkpt>
      <trkpt lat="46.01084" lon="6.85491">
        <ele>2521</ele>
        <time>2022-07-15T11:37:57Z</time>
      </trkpt>
      <trkpt lat="46.01085" lon="6.85497">
        <ele>2520</ele>
        <time>2022-07-15T11:38:00Z</time>
      </trkpt>
      <trkpt lat="46.01085" lon="6.85504">
        <ele>2520</ele>
        <time>2022-07-15T11:38:04Z</time>
      </trkpt>
      <trkpt lat="46.01087" lon="6.85511">
        <ele>2519</ele>
        <time>2022-07-15T11:38:09Z</time>
      </trkpt>
      <trkpt lat="46.01084" lon="6.85524">
        <ele>2518</ele>
        <time>2022-07-15T11:38:16Z</time>
      </trkpt>
      <trkpt lat="46.01085" lon="6.85538">
        <ele>2516</ele>
        <time>2022-07-15T11:38:25Z</time>
      </trkpt>
      <trkpt lat="46.01082" lon="6.8555">
        <ele>2515</ele>
        <time>2022-07-15T11:38:32Z</time>
      </trkpt>
      <trkpt lat="46.01082" lon="6.85564">
        <ele>2515</ele>
        <time>2022-07-15T11:38:41Z</time>
      </trkpt>
      <trkpt lat="46.01072" lon="6.85582">
        <ele>2511</ele>
        <time>2022-07-15T11:38:58Z</time>
      </trkpt>
      <trkpt lat="46.01074" lon="6.85588">
        <ele>2510</ele>
        <time>2022-07-15T11:39:02Z</time>
      </trkpt>
      <trkpt lat="46.01069" lon="6.85593">
        <ele>2508</ele>
        <time>2022-07-15T11:39:10Z</time>
      </trkpt>
      <trkpt lat="46.01064" lon="6.85599">
        <ele>2506</ele>
        <time>2022-07-15T11:39:17Z</time>
      </trkpt>
      <trkpt lat="46.01059" lon="6.85602">
        <ele>2504</ele>
        <time>2022-07-15T11:39:23Z</time>
      </trkpt>
      <trkpt lat="46.01054" lon="6.85602">
        <ele>2503</ele>
        <time>2022-07-15T11:39:27Z</time>
      </trkpt>
      <trkpt lat="46.0105" lon="6.85601">
        <ele>2503</ele>
        <time>2022-07-15T11:39:30Z</time>
      </trkpt>
      <trkpt lat="46.01046" lon="6.85603">
        <ele>2503</ele>
        <time>2022-07-15T11:39:34Z</time>
      </trkpt>
      <trkpt lat="46.01038" lon="6.85603">
        <ele>2504</ele>
        <time>2022-07-15T11:39:41Z</time>
      </trkpt>
      <trkpt lat="46.01034" lon="6.85602">
        <ele>2504</ele>
        <time>2022-07-15T11:39:44Z</time>
      </trkpt>
      <trkpt lat="46.0103" lon="6.85606">
        <ele>2503</ele>
        <time>2022-07-15T11:39:49Z</time>
      </trkpt>
      <trkpt lat="46.01024" lon="6.85607">
        <ele>2502</ele>
        <time>2022-07-15T11:39:56Z</time>
      </trkpt>
      <trkpt lat="46.0102" lon="6.85604">
        <ele>2501</ele>
        <time>2022-07-15T11:40:00Z</time>
      </trkpt>
      <trkpt lat="46.01015" lon="6.85603">
        <ele>2500</ele>
        <time>2022-07-15T11:40:04Z</time>
      </trkpt>
      <trkpt lat="46.01011" lon="6.85604">
        <ele>2500</ele>
        <time>2022-07-15T11:40:08Z</time>
      </trkpt>
      <trkpt lat="46.01006" lon="6.85606">
        <ele>2500</ele>
        <time>2022-07-15T11:40:12Z</time>
      </trkpt>
      <trkpt lat="46.01003" lon="6.85609">
        <ele>2498</ele>
        <time>2022-07-15T11:40:16Z</time>
      </trkpt>
      <trkpt lat="46.00998" lon="6.85608">
        <ele>2497</ele>
        <time>2022-07-15T11:40:19Z</time>
      </trkpt>
      <trkpt lat="46.00994" lon="6.8561">
        <ele>2496</ele>
        <time>2022-07-15T11:40:25Z</time>
      </trkpt>
      <trkpt lat="46.00982" lon="6.85611">
        <ele>2494</ele>
        <time>2022-07-15T11:40:37Z</time>
      </trkpt>
      <trkpt lat="46.00975" lon="6.85606">
        <ele>2492</ele>
        <time>2022-07-15T11:40:44Z</time>
      </trkpt>
      <trkpt lat="46.00966" lon="6.85607">
        <ele>2491</ele>
        <time>2022-07-15T11:40:52Z</time>
      </trkpt>
      <trkpt lat="46.00961" lon="6.85605">
        <ele>2491</ele>
        <time>2022-07-15T11:40:56Z</time>
      </trkpt>
      <trkpt lat="46.00951" lon="6.85609">
        <ele>2490</ele>
        <time>2022-07-15T11:41:09Z</time>
      </trkpt>
      <trkpt lat="46.00946" lon="6.85611">
        <ele>2490</ele>
        <time>2022-07-15T11:41:14Z</time>
      </trkpt>
      <trkpt lat="46.00941" lon="6.85618">
        <ele>2490</ele>
        <time>2022-07-15T11:41:22Z</time>
      </trkpt>
      <trkpt lat="46.00935" lon="6.85617">
        <ele>2490</ele>
        <time>2022-07-15T11:41:29Z</time>
      </trkpt>
      <trkpt lat="46.00931" lon="6.85617">
        <ele>2491</ele>
        <time>2022-07-15T11:41:34Z</time>
      </trkpt>
      <trkpt lat="46.00922" lon="6.85615">
        <ele>2492</ele>
        <time>2022-07-15T11:41:41Z</time>
      </trkpt>
      <trkpt lat="46.00916" lon="6.85615">
        <ele>2490</ele>
        <time>2022-07-15T11:41:48Z</time>
      </trkpt>
      <trkpt lat="46.00914" lon="6.85622">
        <ele>2490</ele>
        <time>2022-07-15T11:41:51Z</time>
      </trkpt>
      <trkpt lat="46.00911" lon="6.85628">
        <ele>2490</ele>
        <time>2022-07-15T11:41:55Z</time>
      </trkpt>
      <trkpt lat="46.00907" lon="6.8563">
        <ele>2490</ele>
        <time>2022-07-15T11:41:59Z</time>
      </trkpt>
      <trkpt lat="46.00899" lon="6.85632">
        <ele>2490</ele>
        <time>2022-07-15T11:42:11Z</time>
      </trkpt>
      <trkpt lat="46.00891" lon="6.85631">
        <ele>2491</ele>
        <time>2022-07-15T11:42:19Z</time>
      </trkpt>
      <trkpt lat="46.00885" lon="6.85631">
        <ele>2490</ele>
        <time>2022-07-15T11:42:28Z</time>
      </trkpt>
      <trkpt lat="46.00873" lon="6.85616">
        <ele>2492</ele>
        <time>2022-07-15T11:42:45Z</time>
      </trkpt>
      <trkpt lat="46.00867" lon="6.85615">
        <ele>2493</ele>
        <time>2022-07-15T11:42:52Z</time>
      </trkpt>
      <trkpt lat="46.00863" lon="6.85617">
        <ele>2494</ele>
        <time>2022-07-15T11:43:00Z</time>
      </trkpt>
      <trkpt lat="46.00855" lon="6.85613">
        <ele>2495</ele>
        <time>2022-07-15T11:43:10Z</time>
      </trkpt>
      <trkpt lat="46.00847" lon="6.8561">
        <ele>2494</ele>
        <time>2022-07-15T11:43:19Z</time>
      </trkpt>
      <trkpt lat="46.00843" lon="6.85609">
        <ele>2494</ele>
        <time>2022-07-15T11:43:25Z</time>
      </trkpt>
      <trkpt lat="46.0084" lon="6.85603">
        <ele>2495</ele>
        <time>2022-07-15T11:43:30Z</time>
      </trkpt>
      <trkpt lat="46.00837" lon="6.85601">
        <ele>2496</ele>
        <time>2022-07-15T11:43:38Z</time>
      </trkpt>
      <trkpt lat="46.0082" lon="6.85597">
        <ele>2500</ele>
        <time>2022-07-15T11:44:01Z</time>
      </trkpt>
      <trkpt lat="46.00816" lon="6.85596">
        <ele>2500</ele>
        <time>2022-07-15T11:44:05Z</time>
      </trkpt>
      <trkpt lat="46.00814" lon="6.8559">
        <ele>2501</ele>
        <time>2022-07-15T11:44:13Z</time>
      </trkpt>
      <trkpt lat="46.00806" lon="6.85586">
        <ele>2502</ele>
        <time>2022-07-15T11:44:23Z</time>
      </trkpt>
      <trkpt lat="46.00797" lon="6.8557">
        <ele>2505</ele>
        <time>2022-07-15T11:44:46Z</time>
      </trkpt>
      <trkpt lat="46.00791" lon="6.85568">
        <ele>2505</ele>
        <time>2022-07-15T11:44:51Z</time>
      </trkpt>
      <trkpt lat="46.00784" lon="6.85561">
        <ele>2506</ele>
        <time>2022-07-15T11:45:01Z</time>
      </trkpt>
      <trkpt lat="46.00784" lon="6.85553">
        <ele>2508</ele>
        <time>2022-07-15T11:45:12Z</time>
      </trkpt>
      <trkpt lat="46.00781" lon="6.85547">
        <ele>2510</ele>
        <time>2022-07-15T11:45:24Z</time>
      </trkpt>
      <trkpt lat="46.00778" lon="6.85538">
        <ele>2511</ele>
        <time>2022-07-15T11:45:36Z</time>
      </trkpt>
      <trkpt lat="46.00778" lon="6.85532">
        <ele>2513</ele>
        <time>2022-07-15T11:45:46Z</time>
      </trkpt>
      <trkpt lat="46.00771" lon="6.85523">
        <ele>2515</ele>
        <time>2022-07-15T11:45:54Z</time>
      </trkpt>
      <trkpt lat="46.00766" lon="6.8552">
        <ele>2515</ele>
        <time>2022-07-15T11:46:01Z</time>
      </trkpt>
      <trkpt lat="46.00761" lon="6.85517">
        <ele>2516</ele>
        <time>2022-07-15T11:46:05Z</time>
      </trkpt>
      <trkpt lat="46.00747" lon="6.85518">
        <ele>2518</ele>
        <time>2022-07-15T11:46:22Z</time>
      </trkpt>
      <trkpt lat="46.00741" lon="6.85523">
        <ele>2520</ele>
        <time>2022-07-15T11:46:32Z</time>
      </trkpt>
      <trkpt lat="46.00737" lon="6.85531">
        <ele>2521</ele>
        <time>2022-07-15T11:46:42Z</time>
      </trkpt>
      <trkpt lat="46.00734" lon="6.85535">
        <ele>2522</ele>
        <time>2022-07-15T11:46:50Z</time>
      </trkpt>
      <trkpt lat="46.00729" lon="6.85535">
        <ele>2524</ele>
        <time>2022-07-15T11:47:01Z</time>
      </trkpt>
      <trkpt lat="46.00723" lon="6.85534">
        <ele>2528</ele>
        <time>2022-07-15T11:47:11Z</time>
      </trkpt>
      <trkpt lat="46.0072" lon="6.8553">
        <ele>2528</ele>
        <time>2022-07-15T11:47:16Z</time>
      </trkpt>
      <trkpt lat="46.00716" lon="6.85526">
        <ele>2527</ele>
        <time>2022-07-15T11:47:21Z</time>
      </trkpt>
      <trkpt lat="46.00712" lon="6.85528">
        <ele>2526</ele>
        <time>2022-07-15T11:47:29Z</time>
      </trkpt>
      <trkpt lat="46.00711" lon="6.8553">
        <ele>2521</ele>
        <time>2022-07-15T11:51:28Z</time>
      </trkpt>
      <trkpt lat="46.00716" lon="6.85522">
        <ele>2521</ele>
        <time>2022-07-15T11:57:00Z</time>
      </trkpt>
      <trkpt lat="46.00716" lon="6.85514">
        <ele>2519</ele>
        <time>2022-07-15T11:57:07Z</time>
      </trkpt>
      <trkpt lat="46.00712" lon="6.85511">
        <ele>2518</ele>
        <time>2022-07-15T11:57:11Z</time>
      </trkpt>
      <trkpt lat="46.00708" lon="6.85505">
        <ele>2515</ele>
        <time>2022-07-15T11:57:18Z</time>
      </trkpt>
      <trkpt lat="46.00707" lon="6.85498">
        <ele>2513</ele>
        <time>2022-07-15T11:57:26Z</time>
      </trkpt>
      <trkpt lat="46.00703" lon="6.85492">
        <ele>2511</ele>
        <time>2022-07-15T11:57:30Z</time>
      </trkpt>
      <trkpt lat="46.00703" lon="6.85485">
        <ele>2507</ele>
        <time>2022-07-15T11:57:38Z</time>
      </trkpt>
      <trkpt lat="46.00702" lon="6.85469">
        <ele>2504</ele>
        <time>2022-07-15T11:57:54Z</time>
      </trkpt>
      <trkpt lat="46.007" lon="6.85462">
        <ele>2500</ele>
        <time>2022-07-15T11:58:05Z</time>
      </trkpt>
      <trkpt lat="46.00696" lon="6.85457">
        <ele>2499</ele>
        <time>2022-07-15T11:58:09Z</time>
      </trkpt>
      <trkpt lat="46.00689" lon="6.85439">
        <ele>2492</ele>
        <time>2022-07-15T11:58:30Z</time>
      </trkpt>
      <trkpt lat="46.00692" lon="6.85433">
        <ele>2490</ele>
        <time>2022-07-15T11:58:37Z</time>
      </trkpt>
      <trkpt lat="46.00686" lon="6.8543">
        <ele>2487</ele>
        <time>2022-07-15T11:58:42Z</time>
      </trkpt>
      <trkpt lat="46.00685" lon="6.85422">
        <ele>2484</ele>
        <time>2022-07-15T11:58:55Z</time>
      </trkpt>
      <trkpt lat="46.00688" lon="6.85394">
        <ele>2477</ele>
        <time>2022-07-15T11:59:30Z</time>
      </trkpt>
      <trkpt lat="46.00686" lon="6.85387">
        <ele>2475</ele>
        <time>2022-07-15T11:59:40Z</time>
      </trkpt>
      <trkpt lat="46.00686" lon="6.8538">
        <ele>2474</ele>
        <time>2022-07-15T11:59:50Z</time>
      </trkpt>
      <trkpt lat="46.00684" lon="6.85374">
        <ele>2473</ele>
        <time>2022-07-15T11:59:55Z</time>
      </trkpt>
      <trkpt lat="46.00683" lon="6.85366">
        <ele>2471</ele>
        <time>2022-07-15T12:00:07Z</time>
      </trkpt>
      <trkpt lat="46.00685" lon="6.85359">
        <ele>2470</ele>
        <time>2022-07-15T12:00:13Z</time>
      </trkpt>
      <trkpt lat="46.00683" lon="6.85347">
        <ele>2467</ele>
        <time>2022-07-15T12:00:26Z</time>
      </trkpt>
      <trkpt lat="46.00679" lon="6.85337">
        <ele>2464</ele>
        <time>2022-07-15T12:00:37Z</time>
      </trkpt>
      <trkpt lat="46.00682" lon="6.85327">
        <ele>2461</ele>
        <time>2022-07-15T12:00:47Z</time>
      </trkpt>
      <trkpt lat="46.0068" lon="6.85319">
        <ele>2460</ele>
        <time>2022-07-15T12:00:52Z</time>
      </trkpt>
      <trkpt lat="46.00678" lon="6.85314">
        <ele>2459</ele>
        <time>2022-07-15T12:00:57Z</time>
      </trkpt>
      <trkpt lat="46.00676" lon="6.85291">
        <ele>2455</ele>
        <time>2022-07-15T12:01:16Z</time>
      </trkpt>
      <trkpt lat="46.00677" lon="6.85281">
        <ele>2453</ele>
        <time>2022-07-15T12:01:26Z</time>
      </trkpt>
      <trkpt lat="46.00673" lon="6.85278">
        <ele>2451</ele>
        <time>2022-07-15T12:01:30Z</time>
      </trkpt>
      <trkpt lat="46.00672" lon="6.85266">
        <ele>2448</ele>
        <time>2022-07-15T12:01:40Z</time>
      </trkpt>
      <trkpt lat="46.00675" lon="6.85258">
        <ele>2445</ele>
        <time>2022-07-15T12:01:51Z</time>
      </trkpt>
      <trkpt lat="46.00669" lon="6.85243">
        <ele>2440</ele>
        <time>2022-07-15T12:02:05Z</time>
      </trkpt>
      <trkpt lat="46.00666" lon="6.85239">
        <ele>2439</ele>
        <time>2022-07-15T12:02:08Z</time>
      </trkpt>
      <trkpt lat="46.00661" lon="6.8524">
        <ele>2438</ele>
        <time>2022-07-15T12:02:12Z</time>
      </trkpt>
      <trkpt lat="46.00662" lon="6.85231">
        <ele>2436</ele>
        <time>2022-07-15T12:02:19Z</time>
      </trkpt>
      <trkpt lat="46.00662" lon="6.8521">
        <ele>2430</ele>
        <time>2022-07-15T12:02:36Z</time>
      </trkpt>
      <trkpt lat="46.00658" lon="6.85203">
        <ele>2427</ele>
        <time>2022-07-15T12:02:45Z</time>
      </trkpt>
      <trkpt lat="46.00657" lon="6.85195">
        <ele>2424</ele>
        <time>2022-07-15T12:02:54Z</time>
      </trkpt>
      <trkpt lat="46.00653" lon="6.85185">
        <ele>2420</ele>
        <time>2022-07-15T12:03:05Z</time>
      </trkpt>
      <trkpt lat="46.00655" lon="6.85178">
        <ele>2418</ele>
        <time>2022-07-15T12:03:12Z</time>
      </trkpt>
      <trkpt lat="46.00657" lon="6.85161">
        <ele>2415</ele>
        <time>2022-07-15T12:03:24Z</time>
      </trkpt>
      <trkpt lat="46.0066" lon="6.85151">
        <ele>2412</ele>
        <time>2022-07-15T12:03:32Z</time>
      </trkpt>
      <trkpt lat="46.00659" lon="6.85144">
        <ele>2411</ele>
        <time>2022-07-15T12:03:37Z</time>
      </trkpt>
      <trkpt lat="46.00656" lon="6.85138">
        <ele>2410</ele>
        <time>2022-07-15T12:03:40Z</time>
      </trkpt>
      <trkpt lat="46.0065" lon="6.85135">
        <ele>2409</ele>
        <time>2022-07-15T12:03:43Z</time>
      </trkpt>
      <trkpt lat="46.00651" lon="6.85127">
        <ele>2406</ele>
        <time>2022-07-15T12:03:51Z</time>
      </trkpt>
      <trkpt lat="46.00646" lon="6.85125">
        <ele>2406</ele>
        <time>2022-07-15T12:03:53Z</time>
      </trkpt>
      <trkpt lat="46.00645" lon="6.85113">
        <ele>2400</ele>
        <time>2022-07-15T12:04:11Z</time>
      </trkpt>
      <trkpt lat="46.00638" lon="6.85111">
        <ele>2398</ele>
        <time>2022-07-15T12:04:15Z</time>
      </trkpt>
      <trkpt lat="46.00642" lon="6.851">
        <ele>2395</ele>
        <time>2022-07-15T12:04:27Z</time>
      </trkpt>
      <trkpt lat="46.00641" lon="6.85094">
        <ele>2393</ele>
        <time>2022-07-15T12:04:32Z</time>
      </trkpt>
      <trkpt lat="46.00631" lon="6.8508">
        <ele>2389</ele>
        <time>2022-07-15T12:04:47Z</time>
      </trkpt>
      <trkpt lat="46.0063" lon="6.85063">
        <ele>2385</ele>
        <time>2022-07-15T12:04:59Z</time>
      </trkpt>
      <trkpt lat="46.00633" lon="6.85058">
        <ele>2384</ele>
        <time>2022-07-15T12:05:04Z</time>
      </trkpt>
      <trkpt lat="46.00632" lon="6.85051">
        <ele>2382</ele>
        <time>2022-07-15T12:05:09Z</time>
      </trkpt>
      <trkpt lat="46.00635" lon="6.85046">
        <ele>2381</ele>
        <time>2022-07-15T12:05:13Z</time>
      </trkpt>
      <trkpt lat="46.00644" lon="6.85035">
        <ele>2378</ele>
        <time>2022-07-15T12:05:25Z</time>
      </trkpt>
      <trkpt lat="46.00647" lon="6.85026">
        <ele>2376</ele>
        <time>2022-07-15T12:05:33Z</time>
      </trkpt>
      <trkpt lat="46.00644" lon="6.85012">
        <ele>2375</ele>
        <time>2022-07-15T12:05:42Z</time>
      </trkpt>
      <trkpt lat="46.00641" lon="6.85005">
        <ele>2374</ele>
        <time>2022-07-15T12:05:46Z</time>
      </trkpt>
      <trkpt lat="46.00636" lon="6.85">
        <ele>2374</ele>
        <time>2022-07-15T12:05:51Z</time>
      </trkpt>
      <trkpt lat="46.00639" lon="6.8498">
        <ele>2371</ele>
        <time>2022-07-15T12:06:06Z</time>
      </trkpt>
      <trkpt lat="46.00642" lon="6.84969">
        <ele>2370</ele>
        <time>2022-07-15T12:06:14Z</time>
      </trkpt>
      <trkpt lat="46.00637" lon="6.84955">
        <ele>2368</ele>
        <time>2022-07-15T12:06:24Z</time>
      </trkpt>
      <trkpt lat="46.0064" lon="6.84941">
        <ele>2366</ele>
        <time>2022-07-15T12:06:33Z</time>
      </trkpt>
      <trkpt lat="46.00638" lon="6.84934">
        <ele>2366</ele>
        <time>2022-07-15T12:06:37Z</time>
      </trkpt>
      <trkpt lat="46.00642" lon="6.84928">
        <ele>2366</ele>
        <time>2022-07-15T12:06:42Z</time>
      </trkpt>
      <trkpt lat="46.00641" lon="6.84921">
        <ele>2365</ele>
        <time>2022-07-15T12:06:46Z</time>
      </trkpt>
      <trkpt lat="46.00643" lon="6.84905">
        <ele>2363</ele>
        <time>2022-07-15T12:06:58Z</time>
      </trkpt>
      <trkpt lat="46.00641" lon="6.84893">
        <ele>2362</ele>
        <time>2022-07-15T12:07:05Z</time>
      </trkpt>
      <trkpt lat="46.00644" lon="6.84885">
        <ele>2361</ele>
        <time>2022-07-15T12:07:12Z</time>
      </trkpt>
      <trkpt lat="46.00643" lon="6.84866">
        <ele>2359</ele>
        <time>2022-07-15T12:07:23Z</time>
      </trkpt>
      <trkpt lat="46.00636" lon="6.84857">
        <ele>2358</ele>
        <time>2022-07-15T12:07:27Z</time>
      </trkpt>
      <trkpt lat="46.00633" lon="6.84842">
        <ele>2355</ele>
        <time>2022-07-15T12:07:39Z</time>
      </trkpt>
      <trkpt lat="46.00631" lon="6.84833">
        <ele>2353</ele>
        <time>2022-07-15T12:07:46Z</time>
      </trkpt>
      <trkpt lat="46.00632" lon="6.84825">
        <ele>2351</ele>
        <time>2022-07-15T12:07:53Z</time>
      </trkpt>
      <trkpt lat="46.0064" lon="6.84789">
        <ele>2348</ele>
        <time>2022-07-15T12:08:18Z</time>
      </trkpt>
      <trkpt lat="46.00637" lon="6.8478">
        <ele>2346</ele>
        <time>2022-07-15T12:08:24Z</time>
      </trkpt>
      <trkpt lat="46.00639" lon="6.84773">
        <ele>2345</ele>
        <time>2022-07-15T12:08:30Z</time>
      </trkpt>
      <trkpt lat="46.00635" lon="6.84767">
        <ele>2345</ele>
        <time>2022-07-15T12:08:33Z</time>
      </trkpt>
      <trkpt lat="46.00633" lon="6.84761">
        <ele>2344</ele>
        <time>2022-07-15T12:08:36Z</time>
      </trkpt>
      <trkpt lat="46.00632" lon="6.84751">
        <ele>2343</ele>
        <time>2022-07-15T12:08:41Z</time>
      </trkpt>
      <trkpt lat="46.00634" lon="6.84734">
        <ele>2342</ele>
        <time>2022-07-15T12:08:56Z</time>
      </trkpt>
      <trkpt lat="46.00638" lon="6.84728">
        <ele>2341</ele>
        <time>2022-07-15T12:09:00Z</time>
      </trkpt>
      <trkpt lat="46.0064" lon="6.84691">
        <ele>2332</ele>
        <time>2022-07-15T12:09:35Z</time>
      </trkpt>
      <trkpt lat="46.00638" lon="6.84685">
        <ele>2331</ele>
        <time>2022-07-15T12:09:40Z</time>
      </trkpt>
      <trkpt lat="46.00637" lon="6.84674">
        <ele>2329</ele>
        <time>2022-07-15T12:09:49Z</time>
      </trkpt>
      <trkpt lat="46.00637" lon="6.84665">
        <ele>2326</ele>
        <time>2022-07-15T12:09:58Z</time>
      </trkpt>
      <trkpt lat="46.00642" lon="6.84652">
        <ele>2323</ele>
        <time>2022-07-15T12:10:08Z</time>
      </trkpt>
      <trkpt lat="46.0064" lon="6.84646">
        <ele>2321</ele>
        <time>2022-07-15T12:10:15Z</time>
      </trkpt>
      <trkpt lat="46.00638" lon="6.8464">
        <ele>2320</ele>
        <time>2022-07-15T12:10:19Z</time>
      </trkpt>
      <trkpt lat="46.00638" lon="6.84624">
        <ele>2315</ele>
        <time>2022-07-15T12:10:32Z</time>
      </trkpt>
      <trkpt lat="46.00636" lon="6.84606">
        <ele>2314</ele>
        <time>2022-07-15T12:10:42Z</time>
      </trkpt>
      <trkpt lat="46.00638" lon="6.84601">
        <ele>2313</ele>
        <time>2022-07-15T12:10:47Z</time>
      </trkpt>
      <trkpt lat="46.00645" lon="6.84601">
        <ele>2311</ele>
        <time>2022-07-15T12:10:56Z</time>
      </trkpt>
      <trkpt lat="46.00649" lon="6.84606">
        <ele>2311</ele>
        <time>2022-07-15T12:11:01Z</time>
      </trkpt>
      <trkpt lat="46.00653" lon="6.84606">
        <ele>2311</ele>
        <time>2022-07-15T12:11:06Z</time>
      </trkpt>
      <trkpt lat="46.00658" lon="6.84601">
        <ele>2311</ele>
        <time>2022-07-15T12:11:09Z</time>
      </trkpt>
      <trkpt lat="46.00666" lon="6.84582">
        <ele>2307</ele>
        <time>2022-07-15T12:11:26Z</time>
      </trkpt>
      <trkpt lat="46.00675" lon="6.84579">
        <ele>2305</ele>
        <time>2022-07-15T12:11:38Z</time>
      </trkpt>
      <trkpt lat="46.0068" lon="6.84575">
        <ele>2303</ele>
        <time>2022-07-15T12:11:44Z</time>
      </trkpt>
      <trkpt lat="46.00693" lon="6.84572">
        <ele>2301</ele>
        <time>2022-07-15T12:11:55Z</time>
      </trkpt>
      <trkpt lat="46.00702" lon="6.84565">
        <ele>2300</ele>
        <time>2022-07-15T12:12:05Z</time>
      </trkpt>
      <trkpt lat="46.00707" lon="6.84564">
        <ele>2299</ele>
        <time>2022-07-15T12:12:09Z</time>
      </trkpt>
      <trkpt lat="46.00711" lon="6.84567">
        <ele>2298</ele>
        <time>2022-07-15T12:12:13Z</time>
      </trkpt>
      <trkpt lat="46.00721" lon="6.84568">
        <ele>2297</ele>
        <time>2022-07-15T12:12:21Z</time>
      </trkpt>
      <trkpt lat="46.00727" lon="6.84567">
        <ele>2297</ele>
        <time>2022-07-15T12:12:26Z</time>
      </trkpt>
      <trkpt lat="46.0073" lon="6.84563">
        <ele>2296</ele>
        <time>2022-07-15T12:12:31Z</time>
      </trkpt>
      <trkpt lat="46.00726" lon="6.84557">
        <ele>2295</ele>
        <time>2022-07-15T12:12:36Z</time>
      </trkpt>
      <trkpt lat="46.00721" lon="6.84546">
        <ele>2293</ele>
        <time>2022-07-15T12:12:43Z</time>
      </trkpt>
      <trkpt lat="46.00718" lon="6.84536">
        <ele>2290</ele>
        <time>2022-07-15T12:12:54Z</time>
      </trkpt>
      <trkpt lat="46.00714" lon="6.84532">
        <ele>2288</ele>
        <time>2022-07-15T12:13:01Z</time>
      </trkpt>
      <trkpt lat="46.00709" lon="6.8451">
        <ele>2283</ele>
        <time>2022-07-15T12:13:22Z</time>
      </trkpt>
      <trkpt lat="46.00713" lon="6.84504">
        <ele>2281</ele>
        <time>2022-07-15T12:13:31Z</time>
      </trkpt>
      <trkpt lat="46.00717" lon="6.84502">
        <ele>2280</ele>
        <time>2022-07-15T12:13:36Z</time>
      </trkpt>
      <trkpt lat="46.0071" lon="6.84488">
        <ele>2274</ele>
        <time>2022-07-15T12:13:55Z</time>
      </trkpt>
      <trkpt lat="46.00715" lon="6.84481">
        <ele>2270</ele>
        <time>2022-07-15T12:14:10Z</time>
      </trkpt>
      <trkpt lat="46.00711" lon="6.84476">
        <ele>2268</ele>
        <time>2022-07-15T12:14:18Z</time>
      </trkpt>
      <trkpt lat="46.00713" lon="6.8447">
        <ele>2265</ele>
        <time>2022-07-15T12:14:30Z</time>
      </trkpt>
      <trkpt lat="46.00718" lon="6.84468">
        <ele>2262</ele>
        <time>2022-07-15T12:17:26Z</time>
      </trkpt>
      <trkpt lat="46.00719" lon="6.8446">
        <ele>2259</ele>
        <time>2022-07-15T12:18:46Z</time>
      </trkpt>
      <trkpt lat="46.00715" lon="6.84456">
        <ele>2258</ele>
        <time>2022-07-15T12:18:51Z</time>
      </trkpt>
      <trkpt lat="46.0071" lon="6.84448">
        <ele>2256</ele>
        <time>2022-07-15T12:18:59Z</time>
      </trkpt>
      <trkpt lat="46.00716" lon="6.84443">
        <ele>2252</ele>
        <time>2022-07-15T12:19:12Z</time>
      </trkpt>
      <trkpt lat="46.00707" lon="6.84433">
        <ele>2249</ele>
        <time>2022-07-15T12:19:24Z</time>
      </trkpt>
      <trkpt lat="46.00702" lon="6.84427">
        <ele>2247</ele>
        <time>2022-07-15T12:19:33Z</time>
      </trkpt>
      <trkpt lat="46.00708" lon="6.84425">
        <ele>2245</ele>
        <time>2022-07-15T12:19:41Z</time>
      </trkpt>
      <trkpt lat="46.00713" lon="6.84426">
        <ele>2244</ele>
        <time>2022-07-15T12:19:45Z</time>
      </trkpt>
      <trkpt lat="46.00717" lon="6.84422">
        <ele>2243</ele>
        <time>2022-07-15T12:19:49Z</time>
      </trkpt>
      <trkpt lat="46.00722" lon="6.84418">
        <ele>2241</ele>
        <time>2022-07-15T12:19:57Z</time>
      </trkpt>
      <trkpt lat="46.00721" lon="6.84407">
        <ele>2237</ele>
        <time>2022-07-15T12:20:07Z</time>
      </trkpt>
      <trkpt lat="46.00726" lon="6.84404">
        <ele>2236</ele>
        <time>2022-07-15T12:20:13Z</time>
      </trkpt>
      <trkpt lat="46.00729" lon="6.84398">
        <ele>2234</ele>
        <time>2022-07-15T12:20:18Z</time>
      </trkpt>
      <trkpt lat="46.00734" lon="6.84395">
        <ele>2233</ele>
        <time>2022-07-15T12:20:25Z</time>
      </trkpt>
      <trkpt lat="46.00724" lon="6.8438">
        <ele>2229</ele>
        <time>2022-07-15T12:20:40Z</time>
      </trkpt>
      <trkpt lat="46.0071" lon="6.84374">
        <ele>2225</ele>
        <time>2022-07-15T12:20:58Z</time>
      </trkpt>
      <trkpt lat="46.00689" lon="6.84365">
        <ele>2218</ele>
        <time>2022-07-15T12:21:23Z</time>
      </trkpt>
      <trkpt lat="46.00682" lon="6.84355">
        <ele>2216</ele>
        <time>2022-07-15T12:21:35Z</time>
      </trkpt>
      <trkpt lat="46.00677" lon="6.84347">
        <ele>2213</ele>
        <time>2022-07-15T12:21:45Z</time>
      </trkpt>
      <trkpt lat="46.00658" lon="6.84336">
        <ele>2203</ele>
        <time>2022-07-15T12:22:16Z</time>
      </trkpt>
      <trkpt lat="46.00653" lon="6.84339">
        <ele>2201</ele>
        <time>2022-07-15T12:22:24Z</time>
      </trkpt>
      <trkpt lat="46.00649" lon="6.84341">
        <ele>2199</ele>
        <time>2022-07-15T12:22:29Z</time>
      </trkpt>
      <trkpt lat="46.00653" lon="6.84332">
        <ele>2196</ele>
        <time>2022-07-15T12:22:39Z</time>
      </trkpt>
      <trkpt lat="46.00649" lon="6.84324">
        <ele>2194</ele>
        <time>2022-07-15T12:22:46Z</time>
      </trkpt>
      <trkpt lat="46.00651" lon="6.84313">
        <ele>2192</ele>
        <time>2022-07-15T12:22:56Z</time>
      </trkpt>
      <trkpt lat="46.00652" lon="6.84304">
        <ele>2191</ele>
        <time>2022-07-15T12:23:00Z</time>
      </trkpt>
      <trkpt lat="46.00658" lon="6.84295">
        <ele>2190</ele>
        <time>2022-07-15T12:23:07Z</time>
      </trkpt>
      <trkpt lat="46.00662" lon="6.84295">
        <ele>2189</ele>
        <time>2022-07-15T12:23:12Z</time>
      </trkpt>
      <trkpt lat="46.00668" lon="6.84292">
        <ele>2186</ele>
        <time>2022-07-15T12:23:21Z</time>
      </trkpt>
      <trkpt lat="46.00672" lon="6.84283">
        <ele>2183</ele>
        <time>2022-07-15T12:23:31Z</time>
      </trkpt>
      <trkpt lat="46.0068" lon="6.84276">
        <ele>2181</ele>
        <time>2022-07-15T12:23:39Z</time>
      </trkpt>
      <trkpt lat="46.00687" lon="6.84272">
        <ele>2179</ele>
        <time>2022-07-15T12:23:46Z</time>
      </trkpt>
      <trkpt lat="46.00692" lon="6.84267">
        <ele>2179</ele>
        <time>2022-07-15T12:23:52Z</time>
      </trkpt>
      <trkpt lat="46.00696" lon="6.8426">
        <ele>2177</ele>
        <time>2022-07-15T12:23:58Z</time>
      </trkpt>
      <trkpt lat="46.00695" lon="6.84246">
        <ele>2176</ele>
        <time>2022-07-15T12:24:06Z</time>
      </trkpt>
      <trkpt lat="46.00691" lon="6.8424">
        <ele>2175</ele>
        <time>2022-07-15T12:24:10Z</time>
      </trkpt>
      <trkpt lat="46.00687" lon="6.84229">
        <ele>2174</ele>
        <time>2022-07-15T12:24:18Z</time>
      </trkpt>
      <trkpt lat="46.00677" lon="6.84209">
        <ele>2171</ele>
        <time>2022-07-15T12:24:35Z</time>
      </trkpt>
      <trkpt lat="46.00671" lon="6.84187">
        <ele>2167</ele>
        <time>2022-07-15T12:24:53Z</time>
      </trkpt>
      <trkpt lat="46.00666" lon="6.84182">
        <ele>2166</ele>
        <time>2022-07-15T12:24:57Z</time>
      </trkpt>
      <trkpt lat="46.00657" lon="6.84162">
        <ele>2163</ele>
        <time>2022-07-15T12:25:13Z</time>
      </trkpt>
      <trkpt lat="46.00652" lon="6.84155">
        <ele>2163</ele>
        <time>2022-07-15T12:25:19Z</time>
      </trkpt>
      <trkpt lat="46.00648" lon="6.84146">
        <ele>2160</ele>
        <time>2022-07-15T12:25:29Z</time>
      </trkpt>
      <trkpt lat="46.00648" lon="6.84133">
        <ele>2157</ele>
        <time>2022-07-15T12:25:40Z</time>
      </trkpt>
      <trkpt lat="46.00646" lon="6.84128">
        <ele>2155</ele>
        <time>2022-07-15T12:25:49Z</time>
      </trkpt>
      <trkpt lat="46.00646" lon="6.84119">
        <ele>2151</ele>
        <time>2022-07-15T12:26:00Z</time>
      </trkpt>
      <trkpt lat="46.00641" lon="6.84118">
        <ele>2150</ele>
        <time>2022-07-15T12:26:04Z</time>
      </trkpt>
      <trkpt lat="46.00635" lon="6.84114">
        <ele>2148</ele>
        <time>2022-07-15T12:26:11Z</time>
      </trkpt>
      <trkpt lat="46.00629" lon="6.84104">
        <ele>2145</ele>
        <time>2022-07-15T12:26:20Z</time>
      </trkpt>
      <trkpt lat="46.00623" lon="6.84104">
        <ele>2143</ele>
        <time>2022-07-15T12:26:32Z</time>
      </trkpt>
      <trkpt lat="46.00617" lon="6.84094">
        <ele>2141</ele>
        <time>2022-07-15T12:28:05Z</time>
      </trkpt>
      <trkpt lat="46.00606" lon="6.84082">
        <ele>2137</ele>
        <time>2022-07-15T12:28:22Z</time>
      </trkpt>
      <trkpt lat="46.00601" lon="6.84082">
        <ele>2137</ele>
        <time>2022-07-15T12:28:26Z</time>
      </trkpt>
      <trkpt lat="46.00581" lon="6.84068">
        <ele>2131</ele>
        <time>2022-07-15T12:28:49Z</time>
      </trkpt>
      <trkpt lat="46.00578" lon="6.84062">
        <ele>2129</ele>
        <time>2022-07-15T12:28:54Z</time>
      </trkpt>
      <trkpt lat="46.00577" lon="6.84053">
        <ele>2127</ele>
        <time>2022-07-15T12:29:00Z</time>
      </trkpt>
      <trkpt lat="46.00573" lon="6.84048">
        <ele>2127</ele>
        <time>2022-07-15T12:29:04Z</time>
      </trkpt>
      <trkpt lat="46.00566" lon="6.84045">
        <ele>2124</ele>
        <time>2022-07-15T12:29:12Z</time>
      </trkpt>
      <trkpt lat="46.00555" lon="6.84035">
        <ele>2121</ele>
        <time>2022-07-15T12:29:25Z</time>
      </trkpt>
      <trkpt lat="46.00543" lon="6.84026">
        <ele>2119</ele>
        <time>2022-07-15T12:29:37Z</time>
      </trkpt>
      <trkpt lat="46.00539" lon="6.84022">
        <ele>2118</ele>
        <time>2022-07-15T12:29:42Z</time>
      </trkpt>
      <trkpt lat="46.00534" lon="6.84019">
        <ele>2117</ele>
        <time>2022-07-15T12:29:54Z</time>
      </trkpt>
      <trkpt lat="46.00529" lon="6.84017">
        <ele>2116</ele>
        <time>2022-07-15T12:29:59Z</time>
      </trkpt>
      <trkpt lat="46.00524" lon="6.84012">
        <ele>2115</ele>
        <time>2022-07-15T12:30:06Z</time>
      </trkpt>
      <trkpt lat="46.00514" lon="6.84009">
        <ele>2114</ele>
        <time>2022-07-15T12:30:14Z</time>
      </trkpt>
      <trkpt lat="46.00509" lon="6.84009">
        <ele>2114</ele>
        <time>2022-07-15T12:30:18Z</time>
      </trkpt>
      <trkpt lat="46.00504" lon="6.84007">
        <ele>2113</ele>
        <time>2022-07-15T12:30:23Z</time>
      </trkpt>
      <trkpt lat="46.00495" lon="6.84009">
        <ele>2112</ele>
        <time>2022-07-15T12:30:31Z</time>
      </trkpt>
      <trkpt lat="46.00491" lon="6.84013">
        <ele>2111</ele>
        <time>2022-07-15T12:30:35Z</time>
      </trkpt>
      <trkpt lat="46.00484" lon="6.84011">
        <ele>2110</ele>
        <time>2022-07-15T12:30:42Z</time>
      </trkpt>
      <trkpt lat="46.00452" lon="6.83992">
        <ele>2105</ele>
        <time>2022-07-15T12:31:14Z</time>
      </trkpt>
      <trkpt lat="46.00449" lon="6.83989">
        <ele>2104</ele>
        <time>2022-07-15T12:31:18Z</time>
      </trkpt>
      <trkpt lat="46.00445" lon="6.83984">
        <ele>2104</ele>
        <time>2022-07-15T12:31:22Z</time>
      </trkpt>
      <trkpt lat="46.00436" lon="6.83979">
        <ele>2103</ele>
        <time>2022-07-15T12:31:30Z</time>
      </trkpt>
      <trkpt lat="46.00432" lon="6.83974">
        <ele>2102</ele>
        <time>2022-07-15T12:31:35Z</time>
      </trkpt>
      <trkpt lat="46.00429" lon="6.83969">
        <ele>2101</ele>
        <time>2022-07-15T12:31:39Z</time>
      </trkpt>
      <trkpt lat="46.00424" lon="6.83957">
        <ele>2100</ele>
        <time>2022-07-15T12:31:47Z</time>
      </trkpt>
      <trkpt lat="46.00414" lon="6.83951">
        <ele>2099</ele>
        <time>2022-07-15T12:31:55Z</time>
      </trkpt>
      <trkpt lat="46.00405" lon="6.83939">
        <ele>2095</ele>
        <time>2022-07-15T12:32:11Z</time>
      </trkpt>
      <trkpt lat="46.00393" lon="6.83933">
        <ele>2092</ele>
        <time>2022-07-15T12:32:24Z</time>
      </trkpt>
      <trkpt lat="46.00383" lon="6.83924">
        <ele>2090</ele>
        <time>2022-07-15T12:32:36Z</time>
      </trkpt>
      <trkpt lat="46.00363" lon="6.83916">
        <ele>2087</ele>
        <time>2022-07-15T12:32:57Z</time>
      </trkpt>
      <trkpt lat="46.00344" lon="6.83916">
        <ele>2082</ele>
        <time>2022-07-15T12:33:17Z</time>
      </trkpt>
      <trkpt lat="46.00336" lon="6.83923">
        <ele>2079</ele>
        <time>2022-07-15T12:33:29Z</time>
      </trkpt>
      <trkpt lat="46.00334" lon="6.83929">
        <ele>2077</ele>
        <time>2022-07-15T12:33:35Z</time>
      </trkpt>
      <trkpt lat="46.00328" lon="6.83932">
        <ele>2076</ele>
        <time>2022-07-15T12:33:40Z</time>
      </trkpt>
      <trkpt lat="46.00321" lon="6.83931">
        <ele>2073</ele>
        <time>2022-07-15T12:33:51Z</time>
      </trkpt>
      <trkpt lat="46.00315" lon="6.83928">
        <ele>2070</ele>
        <time>2022-07-15T12:34:01Z</time>
      </trkpt>
      <trkpt lat="46.00309" lon="6.83924">
        <ele>2068</ele>
        <time>2022-07-15T12:34:08Z</time>
      </trkpt>
      <trkpt lat="46.00303" lon="6.83925">
        <ele>2067</ele>
        <time>2022-07-15T12:34:13Z</time>
      </trkpt>
      <trkpt lat="46.00299" lon="6.83927">
        <ele>2066</ele>
        <time>2022-07-15T12:34:17Z</time>
      </trkpt>
      <trkpt lat="46.00295" lon="6.83927">
        <ele>2066</ele>
        <time>2022-07-15T12:34:22Z</time>
      </trkpt>
      <trkpt lat="46.00286" lon="6.83915">
        <ele>2062</ele>
        <time>2022-07-15T12:34:35Z</time>
      </trkpt>
      <trkpt lat="46.00282" lon="6.83909">
        <ele>2060</ele>
        <time>2022-07-15T12:34:43Z</time>
      </trkpt>
      <trkpt lat="46.00277" lon="6.83904">
        <ele>2058</ele>
        <time>2022-07-15T12:34:51Z</time>
      </trkpt>
      <trkpt lat="46.00274" lon="6.83896">
        <ele>2055</ele>
        <time>2022-07-15T12:35:01Z</time>
      </trkpt>
      <trkpt lat="46.00264" lon="6.83881">
        <ele>2051</ele>
        <time>2022-07-15T12:35:17Z</time>
      </trkpt>
      <trkpt lat="46.00261" lon="6.83877">
        <ele>2049</ele>
        <time>2022-07-15T12:35:21Z</time>
      </trkpt>
      <trkpt lat="46.00257" lon="6.83871">
        <ele>2048</ele>
        <time>2022-07-15T12:35:26Z</time>
      </trkpt>
      <trkpt lat="46.00254" lon="6.83861">
        <ele>2047</ele>
        <time>2022-07-15T12:35:33Z</time>
      </trkpt>
      <trkpt lat="46.00252" lon="6.83852">
        <ele>2045</ele>
        <time>2022-07-15T12:35:42Z</time>
      </trkpt>
      <trkpt lat="46.00252" lon="6.83847">
        <ele>2045</ele>
        <time>2022-07-15T12:35:46Z</time>
      </trkpt>
      <trkpt lat="46.00246" lon="6.83827">
        <ele>2040</ele>
        <time>2022-07-15T12:36:03Z</time>
      </trkpt>
      <trkpt lat="46.00241" lon="6.83822">
        <ele>2039</ele>
        <time>2022-07-15T12:36:09Z</time>
      </trkpt>
      <trkpt lat="46.00236" lon="6.8382">
        <ele>2038</ele>
        <time>2022-07-15T12:36:14Z</time>
      </trkpt>
      <trkpt lat="46.00231" lon="6.83814">
        <ele>2037</ele>
        <time>2022-07-15T12:36:20Z</time>
      </trkpt>
      <trkpt lat="46.00226" lon="6.83812">
        <ele>2036</ele>
        <time>2022-07-15T12:36:24Z</time>
      </trkpt>
      <trkpt lat="46.00225" lon="6.83805">
        <ele>2034</ele>
        <time>2022-07-15T12:36:30Z</time>
      </trkpt>
      <trkpt lat="46.0022" lon="6.83799">
        <ele>2032</ele>
        <time>2022-07-15T12:36:40Z</time>
      </trkpt>
      <trkpt lat="46.00217" lon="6.83793">
        <ele>2031</ele>
        <time>2022-07-15T12:36:45Z</time>
      </trkpt>
      <trkpt lat="46.00198" lon="6.83783">
        <ele>2027</ele>
        <time>2022-07-15T12:37:01Z</time>
      </trkpt>
      <trkpt lat="46.00189" lon="6.83771">
        <ele>2025</ele>
        <time>2022-07-15T12:37:12Z</time>
      </trkpt>
      <trkpt lat="46.00179" lon="6.83766">
        <ele>2023</ele>
        <time>2022-07-15T12:37:24Z</time>
      </trkpt>
      <trkpt lat="46.00174" lon="6.83765">
        <ele>2022</ele>
        <time>2022-07-15T12:37:28Z</time>
      </trkpt>
      <trkpt lat="46.00159" lon="6.83745">
        <ele>2019</ele>
        <time>2022-07-15T12:37:46Z</time>
      </trkpt>
      <trkpt lat="46.00149" lon="6.8374">
        <ele>2019</ele>
        <time>2022-07-15T12:37:54Z</time>
      </trkpt>
      <trkpt lat="46.00146" lon="6.83735">
        <ele>2018</ele>
        <time>2022-07-15T12:37:59Z</time>
      </trkpt>
      <trkpt lat="46.00131" lon="6.83723">
        <ele>2019</ele>
        <time>2022-07-15T12:38:13Z</time>
      </trkpt>
      <trkpt lat="46.00124" lon="6.83713">
        <ele>2018</ele>
        <time>2022-07-15T12:38:20Z</time>
      </trkpt>
      <trkpt lat="46.0012" lon="6.83709">
        <ele>2018</ele>
        <time>2022-07-15T12:38:24Z</time>
      </trkpt>
      <trkpt lat="46.00115" lon="6.83704">
        <ele>2018</ele>
        <time>2022-07-15T12:38:30Z</time>
      </trkpt>
      <trkpt lat="46.00108" lon="6.83695">
        <ele>2017</ele>
        <time>2022-07-15T12:38:38Z</time>
      </trkpt>
      <trkpt lat="46.00105" lon="6.8369">
        <ele>2017</ele>
        <time>2022-07-15T12:38:42Z</time>
      </trkpt>
      <trkpt lat="46.00101" lon="6.83685">
        <ele>2016</ele>
        <time>2022-07-15T12:38:46Z</time>
      </trkpt>
      <trkpt lat="46.00091" lon="6.83678">
        <ele>2015</ele>
        <time>2022-07-15T12:38:55Z</time>
      </trkpt>
      <trkpt lat="46.0008" lon="6.83676">
        <ele>2014</ele>
        <time>2022-07-15T12:39:03Z</time>
      </trkpt>
      <trkpt lat="46.00084" lon="6.8367">
        <ele>2014</ele>
        <time>2022-07-15T12:39:04Z</time>
      </trkpt>
      <trkpt lat="46.00081" lon="6.83664">
        <ele>2014</ele>
        <time>2022-07-15T12:39:08Z</time>
      </trkpt>
      <trkpt lat="46.00074" lon="6.83657">
        <ele>2013</ele>
        <time>2022-07-15T12:39:17Z</time>
      </trkpt>
      <trkpt lat="46.00069" lon="6.83655">
        <ele>2013</ele>
        <time>2022-07-15T12:39:21Z</time>
      </trkpt>
      <trkpt lat="46.00063" lon="6.83646">
        <ele>2012</ele>
        <time>2022-07-15T12:39:28Z</time>
      </trkpt>
      <trkpt lat="46.0005" lon="6.83637">
        <ele>2010</ele>
        <time>2022-07-15T12:39:40Z</time>
      </trkpt>
      <trkpt lat="46.00045" lon="6.83635">
        <ele>2009</ele>
        <time>2022-07-15T12:39:46Z</time>
      </trkpt>
      <trkpt lat="46.0004" lon="6.8363">
        <ele>2009</ele>
        <time>2022-07-15T12:39:50Z</time>
      </trkpt>
      <trkpt lat="46.00032" lon="6.83618">
        <ele>2008</ele>
        <time>2022-07-15T12:40:01Z</time>
      </trkpt>
      <trkpt lat="46.00014" lon="6.83598">
        <ele>2003</ele>
        <time>2022-07-15T12:40:23Z</time>
      </trkpt>
      <trkpt lat="46.00014" lon="6.83589">
        <ele>2002</ele>
        <time>2022-07-15T12:40:30Z</time>
      </trkpt>
      <trkpt lat="46.0001" lon="6.83584">
        <ele>2001</ele>
        <time>2022-07-15T12:40:35Z</time>
      </trkpt>
      <trkpt lat="45.99999" lon="6.83573">
        <ele>1998</ele>
        <time>2022-07-15T12:40:47Z</time>
      </trkpt>
      <trkpt lat="45.99979" lon="6.83539">
        <ele>1990</ele>
        <time>2022-07-15T12:41:21Z</time>
      </trkpt>
      <trkpt lat="45.99975" lon="6.83535">
        <ele>1989</ele>
        <time>2022-07-15T12:41:25Z</time>
      </trkpt>
      <trkpt lat="45.99976" lon="6.83526">
        <ele>1988</ele>
        <time>2022-07-15T12:41:31Z</time>
      </trkpt>
      <trkpt lat="45.99971" lon="6.83525">
        <ele>1987</ele>
        <time>2022-07-15T12:41:35Z</time>
      </trkpt>
      <trkpt lat="45.99962" lon="6.83512">
        <ele>1984</ele>
        <time>2022-07-15T12:41:49Z</time>
      </trkpt>
      <trkpt lat="45.99958" lon="6.83511">
        <ele>1983</ele>
        <time>2022-07-15T12:41:54Z</time>
      </trkpt>
      <trkpt lat="45.99954" lon="6.83508">
        <ele>1982</ele>
        <time>2022-07-15T12:41:58Z</time>
      </trkpt>
      <trkpt lat="45.99949" lon="6.83507">
        <ele>1981</ele>
        <time>2022-07-15T12:42:04Z</time>
      </trkpt>
      <trkpt lat="45.99944" lon="6.83499">
        <ele>1979</ele>
        <time>2022-07-15T12:42:13Z</time>
      </trkpt>
      <trkpt lat="45.99938" lon="6.83493">
        <ele>1977</ele>
        <time>2022-07-15T12:42:21Z</time>
      </trkpt>
      <trkpt lat="45.99935" lon="6.83478">
        <ele>1976</ele>
        <time>2022-07-15T12:42:29Z</time>
      </trkpt>
      <trkpt lat="45.99928" lon="6.83476">
        <ele>1975</ele>
        <time>2022-07-15T12:42:32Z</time>
      </trkpt>
      <trkpt lat="45.99927" lon="6.83467">
        <ele>1974</ele>
        <time>2022-07-15T12:42:39Z</time>
      </trkpt>
      <trkpt lat="45.99925" lon="6.83463">
        <ele>1973</ele>
        <time>2022-07-15T12:42:43Z</time>
      </trkpt>
      <trkpt lat="45.99917" lon="6.83456">
        <ele>1972</ele>
        <time>2022-07-15T12:42:51Z</time>
      </trkpt>
      <trkpt lat="45.99916" lon="6.83449">
        <ele>1970</ele>
        <time>2022-07-15T12:42:57Z</time>
      </trkpt>
      <trkpt lat="45.99911" lon="6.83444">
        <ele>1969</ele>
        <time>2022-07-15T12:43:04Z</time>
      </trkpt>
      <trkpt lat="45.99906" lon="6.83442">
        <ele>1968</ele>
        <time>2022-07-15T12:43:07Z</time>
      </trkpt>
      <trkpt lat="45.99899" lon="6.83433">
        <ele>1967</ele>
        <time>2022-07-15T12:43:15Z</time>
      </trkpt>
      <trkpt lat="45.99895" lon="6.8343">
        <ele>1966</ele>
        <time>2022-07-15T12:43:19Z</time>
      </trkpt>
      <trkpt lat="45.9989" lon="6.83426">
        <ele>1966</ele>
        <time>2022-07-15T12:43:23Z</time>
      </trkpt>
      <trkpt lat="45.99877" lon="6.8341">
        <ele>1963</ele>
        <time>2022-07-15T12:43:40Z</time>
      </trkpt>
      <trkpt lat="45.99873" lon="6.83408">
        <ele>1962</ele>
        <time>2022-07-15T12:43:44Z</time>
      </trkpt>
      <trkpt lat="45.99865" lon="6.83398">
        <ele>1960</ele>
        <time>2022-07-15T12:43:56Z</time>
      </trkpt>
      <trkpt lat="45.99854" lon="6.83389">
        <ele>1958</ele>
        <time>2022-07-15T12:44:07Z</time>
      </trkpt>
      <trkpt lat="45.99849" lon="6.83382">
        <ele>1956</ele>
        <time>2022-07-15T12:44:17Z</time>
      </trkpt>
      <trkpt lat="45.99843" lon="6.83382">
        <ele>1956</ele>
        <time>2022-07-15T12:44:19Z</time>
      </trkpt>
      <trkpt lat="45.99829" lon="6.83368">
        <ele>1952</ele>
        <time>2022-07-15T12:44:40Z</time>
      </trkpt>
      <trkpt lat="45.99822" lon="6.83368">
        <ele>1951</ele>
        <time>2022-07-15T12:44:47Z</time>
      </trkpt>
      <trkpt lat="45.99819" lon="6.83374">
        <ele>1950</ele>
        <time>2022-07-15T12:44:51Z</time>
      </trkpt>
      <trkpt lat="45.99815" lon="6.83377">
        <ele>1949</ele>
        <time>2022-07-15T12:44:56Z</time>
      </trkpt>
      <trkpt lat="45.9981" lon="6.8338">
        <ele>1949</ele>
        <time>2022-07-15T12:45:00Z</time>
      </trkpt>
      <trkpt lat="45.99807" lon="6.83383">
        <ele>1948</ele>
        <time>2022-07-15T12:45:04Z</time>
      </trkpt>
      <trkpt lat="45.9979" lon="6.83385">
        <ele>1947</ele>
        <time>2022-07-15T12:45:17Z</time>
      </trkpt>
      <trkpt lat="45.99785" lon="6.8339">
        <ele>1947</ele>
        <time>2022-07-15T12:45:32Z</time>
      </trkpt>
      <trkpt lat="45.99772" lon="6.83393">
        <ele>1946</ele>
        <time>2022-07-15T12:45:45Z</time>
      </trkpt>
      <trkpt lat="45.99766" lon="6.83395">
        <ele>1945</ele>
        <time>2022-07-15T12:45:49Z</time>
      </trkpt>
      <trkpt lat="45.99759" lon="6.83401">
        <ele>1944</ele>
        <time>2022-07-15T12:45:57Z</time>
      </trkpt>
      <trkpt lat="45.99738" lon="6.83404">
        <ele>1942</ele>
        <time>2022-07-15T12:46:16Z</time>
      </trkpt>
      <trkpt lat="45.99726" lon="6.83402">
        <ele>1942</ele>
        <time>2022-07-15T12:46:27Z</time>
      </trkpt>
      <trkpt lat="45.99721" lon="6.83401">
        <ele>1942</ele>
        <time>2022-07-15T12:46:31Z</time>
      </trkpt>
      <trkpt lat="45.99717" lon="6.83398">
        <ele>1942</ele>
        <time>2022-07-15T12:46:36Z</time>
      </trkpt>
      <trkpt lat="45.99712" lon="6.83402">
        <ele>1942</ele>
        <time>2022-07-15T12:46:41Z</time>
      </trkpt>
      <trkpt lat="45.99702" lon="6.83404">
        <ele>1941</ele>
        <time>2022-07-15T12:46:53Z</time>
      </trkpt>
      <trkpt lat="45.99697" lon="6.83404">
        <ele>1941</ele>
        <time>2022-07-15T12:46:59Z</time>
      </trkpt>
      <trkpt lat="45.997" lon="6.83396">
        <ele>1941</ele>
        <time>2022-07-15T12:47:15Z</time>
      </trkpt>
      <trkpt lat="45.99697" lon="6.83388">
        <ele>1942</ele>
        <time>2022-07-15T12:47:25Z</time>
      </trkpt>
      <trkpt lat="45.99701" lon="6.83383">
        <ele>1943</ele>
        <time>2022-07-15T12:47:30Z</time>
      </trkpt>
      <trkpt lat="45.99705" lon="6.83384">
        <ele>1943</ele>
        <time>2022-07-15T12:47:34Z</time>
      </trkpt>
      <trkpt lat="45.9971" lon="6.83381">
        <ele>1943</ele>
        <time>2022-07-15T12:47:39Z</time>
      </trkpt>
      <trkpt lat="45.99707" lon="6.83391">
        <ele>1941</ele>
        <time>2022-07-15T12:48:38Z</time>
      </trkpt>
      <trkpt lat="45.99701" lon="6.83392">
        <ele>1941</ele>
        <time>2022-07-15T12:48:53Z</time>
      </trkpt>
      <trkpt lat="45.99698" lon="6.83402">
        <ele>1940</ele>
        <time>2022-07-15T12:49:18Z</time>
      </trkpt>
      <trkpt lat="45.99695" lon="6.83401">
        <ele>1939</ele>
        <time>2022-07-15T12:49:58Z</time>
      </trkpt>
      <trkpt lat="45.99693" lon="6.83394">
        <ele>1939</ele>
        <time>2022-07-15T12:50:08Z</time>
      </trkpt>
      <trkpt lat="45.99691" lon="6.83395">
        <ele>1939</ele>
        <time>2022-07-15T12:51:35Z</time>
      </trkpt>
      <trkpt lat="45.99695" lon="6.83405">
        <ele>1939</ele>
        <time>2022-07-15T12:58:14Z</time>
      </trkpt>
      <trkpt lat="45.99699" lon="6.83408">
        <ele>1939</ele>
        <time>2022-07-15T12:58:56Z</time>
      </trkpt>
      <trkpt lat="45.99703" lon="6.83405">
        <ele>1938</ele>
        <time>2022-07-15T13:29:48Z</time>
      </trkpt>
      <trkpt lat="45.99704" lon="6.83402">
        <ele>1940</ele>
        <time>2022-07-15T13:37:54Z</time>
      </trkpt>
      <trkpt lat="45.99698" lon="6.83399">
        <ele>1940</ele>
        <time>2022-07-15T13:45:11Z</time>
      </trkpt>
      <trkpt lat="45.997" lon="6.83406">
        <ele>1940</ele>
        <time>2022-07-15T13:45:28Z</time>
      </trkpt>
      <trkpt lat="45.99698" lon="6.83405">
        <ele>1939</ele>
        <time>2022-07-15T13:47:13Z</time>
      </trkpt>
      <trkpt lat="45.99697" lon="6.83406">
        <ele>1940</ele>
        <time>2022-07-15T13:53:27Z</time>
      </trkpt>
      <trkpt lat="45.99705" lon="6.8341">
        <ele>1940</ele>
        <time>2022-07-15T13:53:38Z</time>
      </trkpt>
      <trkpt lat="45.9971" lon="6.83408">
        <ele>1940</ele>
        <time>2022-07-15T13:53:45Z</time>
      </trkpt>
      <trkpt lat="45.99717" lon="6.83404">
        <ele>1940</ele>
        <time>2022-07-15T13:53:56Z</time>
      </trkpt>
      <trkpt lat="45.99734" lon="6.83396">
        <ele>1942</ele>
        <time>2022-07-15T13:54:26Z</time>
      </trkpt>
      <trkpt lat="45.99752" lon="6.83387">
        <ele>1943</ele>
        <time>2022-07-15T13:54:51Z</time>
      </trkpt>
      <trkpt lat="45.99757" lon="6.83387">
        <ele>1943</ele>
        <time>2022-07-15T13:54:56Z</time>
      </trkpt>
      <trkpt lat="45.99768" lon="6.83388">
        <ele>1943</ele>
        <time>2022-07-15T13:55:10Z</time>
      </trkpt>
      <trkpt lat="45.99776" lon="6.83386">
        <ele>1943</ele>
        <time>2022-07-15T13:55:19Z</time>
      </trkpt>
      <trkpt lat="45.99782" lon="6.83385">
        <ele>1943</ele>
        <time>2022-07-15T13:55:27Z</time>
      </trkpt>
      <trkpt lat="45.99786" lon="6.83382">
        <ele>1943</ele>
        <time>2022-07-15T13:55:33Z</time>
      </trkpt>
      <trkpt lat="45.9979" lon="6.83386">
        <ele>1944</ele>
        <time>2022-07-15T13:55:39Z</time>
      </trkpt>
      <trkpt lat="45.99795" lon="6.83383">
        <ele>1944</ele>
        <time>2022-07-15T13:55:44Z</time>
      </trkpt>
      <trkpt lat="45.99798" lon="6.83379">
        <ele>1944</ele>
        <time>2022-07-15T13:55:48Z</time>
      </trkpt>
      <trkpt lat="45.99804" lon="6.83376">
        <ele>1944</ele>
        <time>2022-07-15T13:55:55Z</time>
      </trkpt>
      <trkpt lat="45.99804" lon="6.83367">
        <ele>1943</ele>
        <time>2022-07-15T13:56:03Z</time>
      </trkpt>
      <trkpt lat="45.99805" lon="6.83361">
        <ele>1943</ele>
        <time>2022-07-15T13:56:13Z</time>
      </trkpt>
      <trkpt lat="45.99802" lon="6.83356">
        <ele>1944</ele>
        <time>2022-07-15T13:56:18Z</time>
      </trkpt>
      <trkpt lat="45.99804" lon="6.83347">
        <ele>1945</ele>
        <time>2022-07-15T13:56:30Z</time>
      </trkpt>
      <trkpt lat="45.99803" lon="6.8334">
        <ele>1946</ele>
        <time>2022-07-15T13:56:34Z</time>
      </trkpt>
      <trkpt lat="45.99802" lon="6.83333">
        <ele>1947</ele>
        <time>2022-07-15T13:56:46Z</time>
      </trkpt>
      <trkpt lat="45.998" lon="6.83328">
        <ele>1947</ele>
        <time>2022-07-15T13:56:52Z</time>
      </trkpt>
      <trkpt lat="45.99797" lon="6.83319">
        <ele>1948</ele>
        <time>2022-07-15T13:57:03Z</time>
      </trkpt>
      <trkpt lat="45.99792" lon="6.83302">
        <ele>1950</ele>
        <time>2022-07-15T13:57:18Z</time>
      </trkpt>
      <trkpt lat="45.99788" lon="6.83296">
        <ele>1950</ele>
        <time>2022-07-15T13:57:24Z</time>
      </trkpt>
      <trkpt lat="45.99784" lon="6.83289">
        <ele>1950</ele>
        <time>2022-07-15T13:57:36Z</time>
      </trkpt>
      <trkpt lat="45.99783" lon="6.83283">
        <ele>1951</ele>
        <time>2022-07-15T13:57:41Z</time>
      </trkpt>
      <trkpt lat="45.99782" lon="6.83277">
        <ele>1951</ele>
        <time>2022-07-15T13:57:47Z</time>
      </trkpt>
      <trkpt lat="45.99782" lon="6.8327">
        <ele>1951</ele>
        <time>2022-07-15T13:57:53Z</time>
      </trkpt>
      <trkpt lat="45.99779" lon="6.83265">
        <ele>1952</ele>
        <time>2022-07-15T13:57:58Z</time>
      </trkpt>
      <trkpt lat="45.99775" lon="6.83265">
        <ele>1952</ele>
        <time>2022-07-15T13:58:03Z</time>
      </trkpt>
      <trkpt lat="45.99769" lon="6.83265">
        <ele>1953</ele>
        <time>2022-07-15T13:58:11Z</time>
      </trkpt>
      <trkpt lat="45.99762" lon="6.83257">
        <ele>1954</ele>
        <time>2022-07-15T13:58:20Z</time>
      </trkpt>
      <trkpt lat="45.99756" lon="6.83252">
        <ele>1954</ele>
        <time>2022-07-15T13:58:29Z</time>
      </trkpt>
      <trkpt lat="45.99752" lon="6.8325">
        <ele>1955</ele>
        <time>2022-07-15T13:58:34Z</time>
      </trkpt>
      <trkpt lat="45.99746" lon="6.83246">
        <ele>1956</ele>
        <time>2022-07-15T13:58:43Z</time>
      </trkpt>
      <trkpt lat="45.99742" lon="6.83238">
        <ele>1957</ele>
        <time>2022-07-15T13:58:53Z</time>
      </trkpt>
      <trkpt lat="45.99733" lon="6.83227">
        <ele>1957</ele>
        <time>2022-07-15T13:59:06Z</time>
      </trkpt>
      <trkpt lat="45.99731" lon="6.83222">
        <ele>1958</ele>
        <time>2022-07-15T13:59:10Z</time>
      </trkpt>
      <trkpt lat="45.99723" lon="6.8321">
        <ele>1960</ele>
        <time>2022-07-15T13:59:29Z</time>
      </trkpt>
      <trkpt lat="45.99721" lon="6.83203">
        <ele>1961</ele>
        <time>2022-07-15T13:59:40Z</time>
      </trkpt>
      <trkpt lat="45.99726" lon="6.83192">
        <ele>1959</ele>
        <time>2022-07-15T13:59:57Z</time>
      </trkpt>
      <trkpt lat="45.99725" lon="6.83186">
        <ele>1958</ele>
        <time>2022-07-15T14:00:02Z</time>
      </trkpt>
      <trkpt lat="45.99722" lon="6.83182">
        <ele>1958</ele>
        <time>2022-07-15T14:00:07Z</time>
      </trkpt>
      <trkpt lat="45.99715" lon="6.83182">
        <ele>1957</ele>
        <time>2022-07-15T14:00:17Z</time>
      </trkpt>
      <trkpt lat="45.99707" lon="6.83185">
        <ele>1956</ele>
        <time>2022-07-15T14:00:27Z</time>
      </trkpt>
      <trkpt lat="45.99704" lon="6.83188">
        <ele>1956</ele>
        <time>2022-07-15T14:00:32Z</time>
      </trkpt>
      <trkpt lat="45.99699" lon="6.83189">
        <ele>1956</ele>
        <time>2022-07-15T14:00:37Z</time>
      </trkpt>
      <trkpt lat="45.99694" lon="6.8319">
        <ele>1958</ele>
        <time>2022-07-15T14:00:46Z</time>
      </trkpt>
      <trkpt lat="45.99687" lon="6.83194">
        <ele>1957</ele>
        <time>2022-07-15T14:00:58Z</time>
      </trkpt>
      <trkpt lat="45.99681" lon="6.83197">
        <ele>1956</ele>
        <time>2022-07-15T14:01:08Z</time>
      </trkpt>
      <trkpt lat="45.99675" lon="6.83198">
        <ele>1955</ele>
        <time>2022-07-15T14:01:13Z</time>
      </trkpt>
      <trkpt lat="45.99663" lon="6.8319">
        <ele>1953</ele>
        <time>2022-07-15T14:01:28Z</time>
      </trkpt>
      <trkpt lat="45.99657" lon="6.83187">
        <ele>1952</ele>
        <time>2022-07-15T14:01:32Z</time>
      </trkpt>
      <trkpt lat="45.99649" lon="6.8319">
        <ele>1952</ele>
        <time>2022-07-15T14:01:42Z</time>
      </trkpt>
      <trkpt lat="45.99645" lon="6.83182">
        <ele>1951</ele>
        <time>2022-07-15T14:01:45Z</time>
      </trkpt>
      <trkpt lat="45.9964" lon="6.83179">
        <ele>1950</ele>
        <time>2022-07-15T14:01:53Z</time>
      </trkpt>
      <trkpt lat="45.99636" lon="6.83172">
        <ele>1949</ele>
        <time>2022-07-15T14:02:02Z</time>
      </trkpt>
      <trkpt lat="45.99629" lon="6.83169">
        <ele>1949</ele>
        <time>2022-07-15T14:02:07Z</time>
      </trkpt>
      <trkpt lat="45.99623" lon="6.83166">
        <ele>1947</ele>
        <time>2022-07-15T14:02:17Z</time>
      </trkpt>
      <trkpt lat="45.99616" lon="6.83164">
        <ele>1949</ele>
        <time>2022-07-15T14:02:32Z</time>
      </trkpt>
      <trkpt lat="45.99613" lon="6.83157">
        <ele>1951</ele>
        <time>2022-07-15T14:02:46Z</time>
      </trkpt>
      <trkpt lat="45.99609" lon="6.83152">
        <ele>1951</ele>
        <time>2022-07-15T14:02:53Z</time>
      </trkpt>
      <trkpt lat="45.99608" lon="6.83142">
        <ele>1952</ele>
        <time>2022-07-15T14:03:04Z</time>
      </trkpt>
      <trkpt lat="45.99605" lon="6.83132">
        <ele>1953</ele>
        <time>2022-07-15T14:03:13Z</time>
      </trkpt>
      <trkpt lat="45.99593" lon="6.83115">
        <ele>1953</ele>
        <time>2022-07-15T14:03:28Z</time>
      </trkpt>
      <trkpt lat="45.99589" lon="6.83111">
        <ele>1955</ele>
        <time>2022-07-15T14:03:45Z</time>
      </trkpt>
      <trkpt lat="45.99587" lon="6.83102">
        <ele>1958</ele>
        <time>2022-07-15T14:04:03Z</time>
      </trkpt>
      <trkpt lat="45.99584" lon="6.83095">
        <ele>1960</ele>
        <time>2022-07-15T14:04:19Z</time>
      </trkpt>
      <trkpt lat="45.99581" lon="6.83088">
        <ele>1962</ele>
        <time>2022-07-15T14:04:33Z</time>
      </trkpt>
      <trkpt lat="45.99579" lon="6.83081">
        <ele>1964</ele>
        <time>2022-07-15T14:04:43Z</time>
      </trkpt>
      <trkpt lat="45.99578" lon="6.83073">
        <ele>1966</ele>
        <time>2022-07-15T14:04:58Z</time>
      </trkpt>
      <trkpt lat="45.99574" lon="6.83063">
        <ele>1967</ele>
        <time>2022-07-15T14:05:08Z</time>
      </trkpt>
      <trkpt lat="45.9957" lon="6.8306">
        <ele>1968</ele>
        <time>2022-07-15T14:05:15Z</time>
      </trkpt>
      <trkpt lat="45.99566" lon="6.83057">
        <ele>1967</ele>
        <time>2022-07-15T14:05:19Z</time>
      </trkpt>
      <trkpt lat="45.99562" lon="6.83052">
        <ele>1969</ele>
        <time>2022-07-15T14:05:32Z</time>
      </trkpt>
      <trkpt lat="45.99556" lon="6.8304">
        <ele>1972</ele>
        <time>2022-07-15T14:05:52Z</time>
      </trkpt>
      <trkpt lat="45.99554" lon="6.8303">
        <ele>1975</ele>
        <time>2022-07-15T14:06:14Z</time>
      </trkpt>
      <trkpt lat="45.99549" lon="6.83025">
        <ele>1977</ele>
        <time>2022-07-15T14:06:26Z</time>
      </trkpt>
      <trkpt lat="45.99527" lon="6.83006">
        <ele>1982</ele>
        <time>2022-07-15T14:07:09Z</time>
      </trkpt>
      <trkpt lat="45.99521" lon="6.83006">
        <ele>1984</ele>
        <time>2022-07-15T14:07:20Z</time>
      </trkpt>
      <trkpt lat="45.99517" lon="6.83005">
        <ele>1986</ele>
        <time>2022-07-15T14:07:30Z</time>
      </trkpt>
      <trkpt lat="45.99511" lon="6.82996">
        <ele>1986</ele>
        <time>2022-07-15T14:07:40Z</time>
      </trkpt>
      <trkpt lat="45.99505" lon="6.82996">
        <ele>1987</ele>
        <time>2022-07-15T14:07:50Z</time>
      </trkpt>
      <trkpt lat="45.99501" lon="6.82991">
        <ele>1988</ele>
        <time>2022-07-15T14:07:54Z</time>
      </trkpt>
      <trkpt lat="45.99498" lon="6.82988">
        <ele>1987</ele>
        <time>2022-07-15T14:07:58Z</time>
      </trkpt>
      <trkpt lat="45.99492" lon="6.82985">
        <ele>1987</ele>
        <time>2022-07-15T14:08:04Z</time>
      </trkpt>
      <trkpt lat="45.99478" lon="6.82977">
        <ele>1989</ele>
        <time>2022-07-15T14:08:21Z</time>
      </trkpt>
      <trkpt lat="45.99471" lon="6.8297">
        <ele>1990</ele>
        <time>2022-07-15T14:08:28Z</time>
      </trkpt>
      <trkpt lat="45.99468" lon="6.82965">
        <ele>1990</ele>
        <time>2022-07-15T14:08:32Z</time>
      </trkpt>
      <trkpt lat="45.99464" lon="6.82961">
        <ele>1991</ele>
        <time>2022-07-15T14:08:40Z</time>
      </trkpt>
      <trkpt lat="45.9946" lon="6.8296">
        <ele>1991</ele>
        <time>2022-07-15T14:08:45Z</time>
      </trkpt>
      <trkpt lat="45.99456" lon="6.82958">
        <ele>1991</ele>
        <time>2022-07-15T14:08:51Z</time>
      </trkpt>
      <trkpt lat="45.9945" lon="6.82953">
        <ele>1992</ele>
        <time>2022-07-15T14:08:59Z</time>
      </trkpt>
      <trkpt lat="45.99438" lon="6.82939">
        <ele>1994</ele>
        <time>2022-07-15T14:09:19Z</time>
      </trkpt>
      <trkpt lat="45.99433" lon="6.82935">
        <ele>1995</ele>
        <time>2022-07-15T14:09:24Z</time>
      </trkpt>
      <trkpt lat="45.9943" lon="6.82931">
        <ele>1995</ele>
        <time>2022-07-15T14:09:30Z</time>
      </trkpt>
      <trkpt lat="45.99426" lon="6.82928">
        <ele>1996</ele>
        <time>2022-07-15T14:09:40Z</time>
      </trkpt>
      <trkpt lat="45.99418" lon="6.82922">
        <ele>1996</ele>
        <time>2022-07-15T14:09:47Z</time>
      </trkpt>
      <trkpt lat="45.99412" lon="6.82922">
        <ele>1997</ele>
        <time>2022-07-15T14:09:55Z</time>
      </trkpt>
      <trkpt lat="45.99406" lon="6.82913">
        <ele>1999</ele>
        <time>2022-07-15T14:10:07Z</time>
      </trkpt>
      <trkpt lat="45.99397" lon="6.82913">
        <ele>2001</ele>
        <time>2022-07-15T14:10:21Z</time>
      </trkpt>
      <trkpt lat="45.99392" lon="6.82904">
        <ele>2002</ele>
        <time>2022-07-15T14:10:28Z</time>
      </trkpt>
      <trkpt lat="45.99387" lon="6.82903">
        <ele>2003</ele>
        <time>2022-07-15T14:10:38Z</time>
      </trkpt>
      <trkpt lat="45.99379" lon="6.82893">
        <ele>2004</ele>
        <time>2022-07-15T14:10:52Z</time>
      </trkpt>
      <trkpt lat="45.99375" lon="6.82888">
        <ele>2004</ele>
        <time>2022-07-15T14:10:56Z</time>
      </trkpt>
      <trkpt lat="45.99371" lon="6.82888">
        <ele>2005</ele>
        <time>2022-07-15T14:11:04Z</time>
      </trkpt>
      <trkpt lat="45.99366" lon="6.82884">
        <ele>2006</ele>
        <time>2022-07-15T14:11:10Z</time>
      </trkpt>
      <trkpt lat="45.99362" lon="6.8288">
        <ele>2006</ele>
        <time>2022-07-15T14:11:14Z</time>
      </trkpt>
      <trkpt lat="45.99352" lon="6.82874">
        <ele>2006</ele>
        <time>2022-07-15T14:11:31Z</time>
      </trkpt>
      <trkpt lat="45.99348" lon="6.82867">
        <ele>2007</ele>
        <time>2022-07-15T14:11:34Z</time>
      </trkpt>
      <trkpt lat="45.99352" lon="6.82857">
        <ele>2005</ele>
        <time>2022-07-15T14:11:53Z</time>
      </trkpt>
      <trkpt lat="45.99351" lon="6.82849">
        <ele>2003</ele>
        <time>2022-07-15T14:12:01Z</time>
      </trkpt>
      <trkpt lat="45.99347" lon="6.82845">
        <ele>2003</ele>
        <time>2022-07-15T14:12:04Z</time>
      </trkpt>
      <trkpt lat="45.99343" lon="6.82841">
        <ele>2003</ele>
        <time>2022-07-15T14:12:07Z</time>
      </trkpt>
      <trkpt lat="45.99339" lon="6.82843">
        <ele>2003</ele>
        <time>2022-07-15T14:12:10Z</time>
      </trkpt>
      <trkpt lat="45.99333" lon="6.82847">
        <ele>2003</ele>
        <time>2022-07-15T14:12:18Z</time>
      </trkpt>
      <trkpt lat="45.99327" lon="6.82843">
        <ele>2003</ele>
        <time>2022-07-15T14:12:26Z</time>
      </trkpt>
      <trkpt lat="45.99322" lon="6.8284">
        <ele>2004</ele>
        <time>2022-07-15T14:12:31Z</time>
      </trkpt>
      <trkpt lat="45.99318" lon="6.82842">
        <ele>2004</ele>
        <time>2022-07-15T14:12:35Z</time>
      </trkpt>
      <trkpt lat="45.99313" lon="6.8284">
        <ele>2005</ele>
        <time>2022-07-15T14:12:46Z</time>
      </trkpt>
      <trkpt lat="45.99307" lon="6.82835">
        <ele>2007</ele>
        <time>2022-07-15T14:12:54Z</time>
      </trkpt>
      <trkpt lat="45.99304" lon="6.82832">
        <ele>2007</ele>
        <time>2022-07-15T14:12:59Z</time>
      </trkpt>
      <trkpt lat="45.99302" lon="6.82824">
        <ele>2007</ele>
        <time>2022-07-15T14:13:06Z</time>
      </trkpt>
      <trkpt lat="45.99297" lon="6.82822">
        <ele>2007</ele>
        <time>2022-07-15T14:13:10Z</time>
      </trkpt>
      <trkpt lat="45.99292" lon="6.82811">
        <ele>2007</ele>
        <time>2022-07-15T14:13:23Z</time>
      </trkpt>
      <trkpt lat="45.99292" lon="6.82801">
        <ele>2006</ele>
        <time>2022-07-15T14:13:32Z</time>
      </trkpt>
      <trkpt lat="45.99289" lon="6.82797">
        <ele>2005</ele>
        <time>2022-07-15T14:13:37Z</time>
      </trkpt>
      <trkpt lat="45.99282" lon="6.82789">
        <ele>2006</ele>
        <time>2022-07-15T14:13:47Z</time>
      </trkpt>
      <trkpt lat="45.99278" lon="6.82789">
        <ele>2007</ele>
        <time>2022-07-15T14:13:52Z</time>
      </trkpt>
      <trkpt lat="45.99273" lon="6.82786">
        <ele>2008</ele>
        <time>2022-07-15T14:14:00Z</time>
      </trkpt>
      <trkpt lat="45.99268" lon="6.82783">
        <ele>2009</ele>
        <time>2022-07-15T14:14:10Z</time>
      </trkpt>
      <trkpt lat="45.99265" lon="6.82778">
        <ele>2009</ele>
        <time>2022-07-15T14:14:14Z</time>
      </trkpt>
      <trkpt lat="45.99261" lon="6.82771">
        <ele>2008</ele>
        <time>2022-07-15T14:14:21Z</time>
      </trkpt>
      <trkpt lat="45.99256" lon="6.82758">
        <ele>2008</ele>
        <time>2022-07-15T14:14:38Z</time>
      </trkpt>
      <trkpt lat="45.99251" lon="6.82754">
        <ele>2007</ele>
        <time>2022-07-15T14:14:42Z</time>
      </trkpt>
      <trkpt lat="45.99244" lon="6.82754">
        <ele>2008</ele>
        <time>2022-07-15T14:14:51Z</time>
      </trkpt>
      <trkpt lat="45.99239" lon="6.82756">
        <ele>2009</ele>
        <time>2022-07-15T14:15:02Z</time>
      </trkpt>
      <trkpt lat="45.99234" lon="6.82754">
        <ele>2010</ele>
        <time>2022-07-15T14:15:12Z</time>
      </trkpt>
      <trkpt lat="45.9923" lon="6.82755">
        <ele>2011</ele>
        <time>2022-07-15T14:15:22Z</time>
      </trkpt>
      <trkpt lat="45.99224" lon="6.82751">
        <ele>2012</ele>
        <time>2022-07-15T14:15:31Z</time>
      </trkpt>
      <trkpt lat="45.9922" lon="6.82746">
        <ele>2012</ele>
        <time>2022-07-15T14:15:34Z</time>
      </trkpt>
      <trkpt lat="45.99215" lon="6.8275">
        <ele>2012</ele>
        <time>2022-07-15T14:15:41Z</time>
      </trkpt>
      <trkpt lat="45.99209" lon="6.82739">
        <ele>2013</ele>
        <time>2022-07-15T14:15:51Z</time>
      </trkpt>
      <trkpt lat="45.99205" lon="6.82738">
        <ele>2014</ele>
        <time>2022-07-15T14:15:56Z</time>
      </trkpt>
      <trkpt lat="45.99198" lon="6.82735">
        <ele>2014</ele>
        <time>2022-07-15T14:16:04Z</time>
      </trkpt>
      <trkpt lat="45.99193" lon="6.82729">
        <ele>2014</ele>
        <time>2022-07-15T14:16:11Z</time>
      </trkpt>
      <trkpt lat="45.99186" lon="6.82731">
        <ele>2015</ele>
        <time>2022-07-15T14:16:19Z</time>
      </trkpt>
      <trkpt lat="45.99184" lon="6.82724">
        <ele>2015</ele>
        <time>2022-07-15T14:16:23Z</time>
      </trkpt>
      <trkpt lat="45.99169" lon="6.82719">
        <ele>2018</ele>
        <time>2022-07-15T14:16:46Z</time>
      </trkpt>
      <trkpt lat="45.99165" lon="6.82718">
        <ele>2018</ele>
        <time>2022-07-15T14:16:54Z</time>
      </trkpt>
      <trkpt lat="45.99157" lon="6.82717">
        <ele>2019</ele>
        <time>2022-07-15T14:17:04Z</time>
      </trkpt>
      <trkpt lat="45.99155" lon="6.82706">
        <ele>2020</ele>
        <time>2022-07-15T14:17:20Z</time>
      </trkpt>
      <trkpt lat="45.99152" lon="6.82702">
        <ele>2021</ele>
        <time>2022-07-15T14:17:23Z</time>
      </trkpt>
      <trkpt lat="45.99143" lon="6.82702">
        <ele>2022</ele>
        <time>2022-07-15T14:17:35Z</time>
      </trkpt>
      <trkpt lat="45.99139" lon="6.82699">
        <ele>2023</ele>
        <time>2022-07-15T14:17:45Z</time>
      </trkpt>
      <trkpt lat="45.99136" lon="6.82694">
        <ele>2024</ele>
        <time>2022-07-15T14:17:49Z</time>
      </trkpt>
      <trkpt lat="45.99132" lon="6.82699">
        <ele>2025</ele>
        <time>2022-07-15T14:17:58Z</time>
      </trkpt>
      <trkpt lat="45.99128" lon="6.82694">
        <ele>2025</ele>
        <time>2022-07-15T14:18:01Z</time>
      </trkpt>
      <trkpt lat="45.99123" lon="6.82689">
        <ele>2025</ele>
        <time>2022-07-15T14:18:07Z</time>
      </trkpt>
      <trkpt lat="45.99109" lon="6.82693">
        <ele>2027</ele>
        <time>2022-07-15T14:18:27Z</time>
      </trkpt>
      <trkpt lat="45.99105" lon="6.82689">
        <ele>2027</ele>
        <time>2022-07-15T14:18:31Z</time>
      </trkpt>
      <trkpt lat="45.99101" lon="6.82691">
        <ele>2028</ele>
        <time>2022-07-15T14:18:39Z</time>
      </trkpt>
      <trkpt lat="45.99097" lon="6.8269">
        <ele>2028</ele>
        <time>2022-07-15T14:18:44Z</time>
      </trkpt>
      <trkpt lat="45.99092" lon="6.8269">
        <ele>2029</ele>
        <time>2022-07-15T14:18:52Z</time>
      </trkpt>
      <trkpt lat="45.99081" lon="6.82683">
        <ele>2030</ele>
        <time>2022-07-15T14:19:06Z</time>
      </trkpt>
      <trkpt lat="45.99074" lon="6.82682">
        <ele>2031</ele>
        <time>2022-07-15T14:19:18Z</time>
      </trkpt>
      <trkpt lat="45.99068" lon="6.82679">
        <ele>2033</ele>
        <time>2022-07-15T14:19:29Z</time>
      </trkpt>
      <trkpt lat="45.99063" lon="6.82675">
        <ele>2033</ele>
        <time>2022-07-15T14:19:33Z</time>
      </trkpt>
      <trkpt lat="45.99055" lon="6.82673">
        <ele>2034</ele>
        <time>2022-07-15T14:19:47Z</time>
      </trkpt>
      <trkpt lat="45.99051" lon="6.82673">
        <ele>2036</ele>
        <time>2022-07-15T14:19:59Z</time>
      </trkpt>
      <trkpt lat="45.99045" lon="6.82669">
        <ele>2036</ele>
        <time>2022-07-15T14:20:03Z</time>
      </trkpt>
      <trkpt lat="45.99041" lon="6.82678">
        <ele>2037</ele>
        <time>2022-07-15T14:20:16Z</time>
      </trkpt>
      <trkpt lat="45.99036" lon="6.82676">
        <ele>2039</ele>
        <time>2022-07-15T14:20:27Z</time>
      </trkpt>
      <trkpt lat="45.99027" lon="6.82672">
        <ele>2041</ele>
        <time>2022-07-15T14:20:37Z</time>
      </trkpt>
      <trkpt lat="45.9902" lon="6.82671">
        <ele>2042</ele>
        <time>2022-07-15T14:20:49Z</time>
      </trkpt>
      <trkpt lat="45.99016" lon="6.82675">
        <ele>2042</ele>
        <time>2022-07-15T14:20:54Z</time>
      </trkpt>
      <trkpt lat="45.99011" lon="6.82667">
        <ele>2042</ele>
        <time>2022-07-15T14:21:02Z</time>
      </trkpt>
      <trkpt lat="45.99007" lon="6.82669">
        <ele>2043</ele>
        <time>2022-07-15T14:21:10Z</time>
      </trkpt>
      <trkpt lat="45.98992" lon="6.82661">
        <ele>2045</ele>
        <time>2022-07-15T14:21:32Z</time>
      </trkpt>
      <trkpt lat="45.98989" lon="6.82656">
        <ele>2045</ele>
        <time>2022-07-15T14:21:34Z</time>
      </trkpt>
      <trkpt lat="45.98984" lon="6.82655">
        <ele>2046</ele>
        <time>2022-07-15T14:21:42Z</time>
      </trkpt>
      <trkpt lat="45.98975" lon="6.82652">
        <ele>2046</ele>
        <time>2022-07-15T14:21:52Z</time>
      </trkpt>
      <trkpt lat="45.98969" lon="6.82642">
        <ele>2045</ele>
        <time>2022-07-15T14:22:01Z</time>
      </trkpt>
      <trkpt lat="45.98964" lon="6.82641">
        <ele>2045</ele>
        <time>2022-07-15T14:22:08Z</time>
      </trkpt>
      <trkpt lat="45.9896" lon="6.82635">
        <ele>2045</ele>
        <time>2022-07-15T14:22:12Z</time>
      </trkpt>
      <trkpt lat="45.98956" lon="6.82631">
        <ele>2044</ele>
        <time>2022-07-15T14:22:16Z</time>
      </trkpt>
      <trkpt lat="45.98948" lon="6.82625">
        <ele>2045</ele>
        <time>2022-07-15T14:22:23Z</time>
      </trkpt>
      <trkpt lat="45.98943" lon="6.82623">
        <ele>2046</ele>
        <time>2022-07-15T14:22:35Z</time>
      </trkpt>
      <trkpt lat="45.98938" lon="6.82622">
        <ele>2047</ele>
        <time>2022-07-15T14:22:40Z</time>
      </trkpt>
      <trkpt lat="45.98936" lon="6.82615">
        <ele>2047</ele>
        <time>2022-07-15T14:22:49Z</time>
      </trkpt>
      <trkpt lat="45.9893" lon="6.82611">
        <ele>2046</ele>
        <time>2022-07-15T14:22:54Z</time>
      </trkpt>
      <trkpt lat="45.98927" lon="6.826">
        <ele>2046</ele>
        <time>2022-07-15T14:23:02Z</time>
      </trkpt>
      <trkpt lat="45.98924" lon="6.82594">
        <ele>2045</ele>
        <time>2022-07-15T14:23:07Z</time>
      </trkpt>
      <trkpt lat="45.9892" lon="6.82591">
        <ele>2045</ele>
        <time>2022-07-15T14:23:10Z</time>
      </trkpt>
      <trkpt lat="45.98912" lon="6.82589">
        <ele>2046</ele>
        <time>2022-07-15T14:23:23Z</time>
      </trkpt>
      <trkpt lat="45.98905" lon="6.82589">
        <ele>2047</ele>
        <time>2022-07-15T14:23:33Z</time>
      </trkpt>
      <trkpt lat="45.98897" lon="6.82584">
        <ele>2048</ele>
        <time>2022-07-15T14:23:43Z</time>
      </trkpt>
      <trkpt lat="45.98889" lon="6.82584">
        <ele>2049</ele>
        <time>2022-07-15T14:23:53Z</time>
      </trkpt>
      <trkpt lat="45.98874" lon="6.8258">
        <ele>2050</ele>
        <time>2022-07-15T14:24:11Z</time>
      </trkpt>
      <trkpt lat="45.98869" lon="6.82574">
        <ele>2050</ele>
        <time>2022-07-15T14:24:16Z</time>
      </trkpt>
      <trkpt lat="45.98859" lon="6.82573">
        <ele>2051</ele>
        <time>2022-07-15T14:24:26Z</time>
      </trkpt>
      <trkpt lat="45.98854" lon="6.8257">
        <ele>2051</ele>
        <time>2022-07-15T14:24:31Z</time>
      </trkpt>
      <trkpt lat="45.98848" lon="6.82572">
        <ele>2053</ele>
        <time>2022-07-15T14:24:44Z</time>
      </trkpt>
      <trkpt lat="45.98842" lon="6.82572">
        <ele>2053</ele>
        <time>2022-07-15T14:24:52Z</time>
      </trkpt>
      <trkpt lat="45.98835" lon="6.82572">
        <ele>2055</ele>
        <time>2022-07-15T14:25:05Z</time>
      </trkpt>
      <trkpt lat="45.98825" lon="6.82566">
        <ele>2055</ele>
        <time>2022-07-15T14:25:18Z</time>
      </trkpt>
      <trkpt lat="45.98819" lon="6.82564">
        <ele>2054</ele>
        <time>2022-07-15T14:25:22Z</time>
      </trkpt>
      <trkpt lat="45.98816" lon="6.82567">
        <ele>2054</ele>
        <time>2022-07-15T14:25:27Z</time>
      </trkpt>
      <trkpt lat="45.9881" lon="6.82565">
        <ele>2055</ele>
        <time>2022-07-15T14:25:37Z</time>
      </trkpt>
      <trkpt lat="45.98803" lon="6.82564">
        <ele>2057</ele>
        <time>2022-07-15T14:25:47Z</time>
      </trkpt>
      <trkpt lat="45.98801" lon="6.82572">
        <ele>2058</ele>
        <time>2022-07-15T14:25:53Z</time>
      </trkpt>
      <trkpt lat="45.98795" lon="6.82576">
        <ele>2060</ele>
        <time>2022-07-15T14:26:04Z</time>
      </trkpt>
      <trkpt lat="45.98789" lon="6.82577">
        <ele>2061</ele>
        <time>2022-07-15T14:26:14Z</time>
      </trkpt>
      <trkpt lat="45.98785" lon="6.82576">
        <ele>2061</ele>
        <time>2022-07-15T14:26:18Z</time>
      </trkpt>
      <trkpt lat="45.9878" lon="6.8257">
        <ele>2062</ele>
        <time>2022-07-15T14:26:29Z</time>
      </trkpt>
      <trkpt lat="45.98777" lon="6.82562">
        <ele>2063</ele>
        <time>2022-07-15T14:26:35Z</time>
      </trkpt>
      <trkpt lat="45.98775" lon="6.82554">
        <ele>2063</ele>
        <time>2022-07-15T14:26:41Z</time>
      </trkpt>
      <trkpt lat="45.98773" lon="6.82549">
        <ele>2062</ele>
        <time>2022-07-15T14:26:44Z</time>
      </trkpt>
      <trkpt lat="45.98769" lon="6.82542">
        <ele>2062</ele>
        <time>2022-07-15T14:26:51Z</time>
      </trkpt>
      <trkpt lat="45.98768" lon="6.82537">
        <ele>2061</ele>
        <time>2022-07-15T14:26:55Z</time>
      </trkpt>
      <trkpt lat="45.98763" lon="6.82527">
        <ele>2061</ele>
        <time>2022-07-15T14:27:04Z</time>
      </trkpt>
      <trkpt lat="45.98758" lon="6.82524">
        <ele>2061</ele>
        <time>2022-07-15T14:27:10Z</time>
      </trkpt>
      <trkpt lat="45.98753" lon="6.82517">
        <ele>2061</ele>
        <time>2022-07-15T14:27:20Z</time>
      </trkpt>
      <trkpt lat="45.98751" lon="6.8251">
        <ele>2062</ele>
        <time>2022-07-15T14:27:24Z</time>
      </trkpt>
      <trkpt lat="45.9875" lon="6.82504">
        <ele>2062</ele>
        <time>2022-07-15T14:27:28Z</time>
      </trkpt>
      <trkpt lat="45.98746" lon="6.82498">
        <ele>2061</ele>
        <time>2022-07-15T14:27:34Z</time>
      </trkpt>
      <trkpt lat="45.98742" lon="6.82495">
        <ele>2061</ele>
        <time>2022-07-15T14:27:38Z</time>
      </trkpt>
      <trkpt lat="45.98737" lon="6.82493">
        <ele>2062</ele>
        <time>2022-07-15T14:27:49Z</time>
      </trkpt>
      <trkpt lat="45.98714" lon="6.8248">
        <ele>2065</ele>
        <time>2022-07-15T14:28:20Z</time>
      </trkpt>
      <trkpt lat="45.9871" lon="6.8248">
        <ele>2066</ele>
        <time>2022-07-15T14:28:29Z</time>
      </trkpt>
      <trkpt lat="45.98705" lon="6.82478">
        <ele>2067</ele>
        <time>2022-07-15T14:28:34Z</time>
      </trkpt>
      <trkpt lat="45.98699" lon="6.82479">
        <ele>2067</ele>
        <time>2022-07-15T14:28:43Z</time>
      </trkpt>
      <trkpt lat="45.98694" lon="6.82475">
        <ele>2068</ele>
        <time>2022-07-15T14:28:53Z</time>
      </trkpt>
      <trkpt lat="45.98688" lon="6.82472">
        <ele>2070</ele>
        <time>2022-07-15T14:29:04Z</time>
      </trkpt>
      <trkpt lat="45.98684" lon="6.82473">
        <ele>2070</ele>
        <time>2022-07-15T14:29:09Z</time>
      </trkpt>
      <trkpt lat="45.98677" lon="6.82471">
        <ele>2072</ele>
        <time>2022-07-15T14:29:23Z</time>
      </trkpt>
      <trkpt lat="45.98673" lon="6.8247">
        <ele>2072</ele>
        <time>2022-07-15T14:29:28Z</time>
      </trkpt>
      <trkpt lat="45.98668" lon="6.82463">
        <ele>2072</ele>
        <time>2022-07-15T14:29:35Z</time>
      </trkpt>
      <trkpt lat="45.98664" lon="6.82461">
        <ele>2072</ele>
        <time>2022-07-15T14:29:39Z</time>
      </trkpt>
      <trkpt lat="45.98659" lon="6.82458">
        <ele>2073</ele>
        <time>2022-07-15T14:29:53Z</time>
      </trkpt>
      <trkpt lat="45.98653" lon="6.82458">
        <ele>2075</ele>
        <time>2022-07-15T14:30:04Z</time>
      </trkpt>
      <trkpt lat="45.98646" lon="6.82454">
        <ele>2075</ele>
        <time>2022-07-15T14:30:07Z</time>
      </trkpt>
      <trkpt lat="45.98629" lon="6.82446">
        <ele>2077</ele>
        <time>2022-07-15T14:30:31Z</time>
      </trkpt>
      <trkpt lat="45.98627" lon="6.8244">
        <ele>2077</ele>
        <time>2022-07-15T14:30:36Z</time>
      </trkpt>
      <trkpt lat="45.98626" lon="6.82434">
        <ele>2077</ele>
        <time>2022-07-15T14:30:39Z</time>
      </trkpt>
      <trkpt lat="45.98621" lon="6.82437">
        <ele>2077</ele>
        <time>2022-07-15T14:30:44Z</time>
      </trkpt>
      <trkpt lat="45.98616" lon="6.82437">
        <ele>2077</ele>
        <time>2022-07-15T14:30:49Z</time>
      </trkpt>
      <trkpt lat="45.98612" lon="6.82429">
        <ele>2077</ele>
        <time>2022-07-15T14:30:56Z</time>
      </trkpt>
      <trkpt lat="45.98607" lon="6.82431">
        <ele>2077</ele>
        <time>2022-07-15T14:31:02Z</time>
      </trkpt>
      <trkpt lat="45.98601" lon="6.82424">
        <ele>2077</ele>
        <time>2022-07-15T14:31:11Z</time>
      </trkpt>
      <trkpt lat="45.98599" lon="6.82419">
        <ele>2077</ele>
        <time>2022-07-15T14:31:14Z</time>
      </trkpt>
      <trkpt lat="45.98593" lon="6.82416">
        <ele>2078</ele>
        <time>2022-07-15T14:31:21Z</time>
      </trkpt>
      <trkpt lat="45.98587" lon="6.82417">
        <ele>2079</ele>
        <time>2022-07-15T14:31:28Z</time>
      </trkpt>
      <trkpt lat="45.98582" lon="6.82421">
        <ele>2080</ele>
        <time>2022-07-15T14:31:35Z</time>
      </trkpt>
      <trkpt lat="45.98575" lon="6.82422">
        <ele>2080</ele>
        <time>2022-07-15T14:31:44Z</time>
      </trkpt>
      <trkpt lat="45.98569" lon="6.82417">
        <ele>2081</ele>
        <time>2022-07-15T14:31:55Z</time>
      </trkpt>
      <trkpt lat="45.98563" lon="6.8241">
        <ele>2082</ele>
        <time>2022-07-15T14:32:03Z</time>
      </trkpt>
      <trkpt lat="45.9856" lon="6.82399">
        <ele>2083</ele>
        <time>2022-07-15T14:32:11Z</time>
      </trkpt>
      <trkpt lat="45.98553" lon="6.82406">
        <ele>2083</ele>
        <time>2022-07-15T14:32:17Z</time>
      </trkpt>
      <trkpt lat="45.98546" lon="6.82402">
        <ele>2084</ele>
        <time>2022-07-15T14:32:25Z</time>
      </trkpt>
      <trkpt lat="45.98543" lon="6.82397">
        <ele>2085</ele>
        <time>2022-07-15T14:32:31Z</time>
      </trkpt>
      <trkpt lat="45.98538" lon="6.82395">
        <ele>2086</ele>
        <time>2022-07-15T14:32:39Z</time>
      </trkpt>
      <trkpt lat="45.98534" lon="6.8239">
        <ele>2086</ele>
        <time>2022-07-15T14:32:44Z</time>
      </trkpt>
      <trkpt lat="45.98522" lon="6.82387">
        <ele>2088</ele>
        <time>2022-07-15T14:33:01Z</time>
      </trkpt>
      <trkpt lat="45.98518" lon="6.82383">
        <ele>2088</ele>
        <time>2022-07-15T14:33:06Z</time>
      </trkpt>
      <trkpt lat="45.98514" lon="6.82386">
        <ele>2088</ele>
        <time>2022-07-15T14:33:12Z</time>
      </trkpt>
      <trkpt lat="45.98509" lon="6.82382">
        <ele>2088</ele>
        <time>2022-07-15T14:33:16Z</time>
      </trkpt>
      <trkpt lat="45.98505" lon="6.8238">
        <ele>2088</ele>
        <time>2022-07-15T14:33:23Z</time>
      </trkpt>
      <trkpt lat="45.98501" lon="6.82376">
        <ele>2089</ele>
        <time>2022-07-15T14:33:29Z</time>
      </trkpt>
      <trkpt lat="45.98498" lon="6.82371">
        <ele>2089</ele>
        <time>2022-07-15T14:33:33Z</time>
      </trkpt>
      <trkpt lat="45.98495" lon="6.82365">
        <ele>2090</ele>
        <time>2022-07-15T14:33:40Z</time>
      </trkpt>
      <trkpt lat="45.9849" lon="6.82359">
        <ele>2091</ele>
        <time>2022-07-15T14:33:50Z</time>
      </trkpt>
      <trkpt lat="45.98486" lon="6.82351">
        <ele>2092</ele>
        <time>2022-07-15T14:34:00Z</time>
      </trkpt>
      <trkpt lat="45.98479" lon="6.82351">
        <ele>2093</ele>
        <time>2022-07-15T14:34:08Z</time>
      </trkpt>
      <trkpt lat="45.98465" lon="6.82339">
        <ele>2092</ele>
        <time>2022-07-15T14:34:22Z</time>
      </trkpt>
      <trkpt lat="45.98459" lon="6.82337">
        <ele>2091</ele>
        <time>2022-07-15T14:34:29Z</time>
      </trkpt>
      <trkpt lat="45.98455" lon="6.82332">
        <ele>2091</ele>
        <time>2022-07-15T14:34:33Z</time>
      </trkpt>
      <trkpt lat="45.98448" lon="6.82323">
        <ele>2091</ele>
        <time>2022-07-15T14:34:42Z</time>
      </trkpt>
      <trkpt lat="45.98444" lon="6.82319">
        <ele>2091</ele>
        <time>2022-07-15T14:34:46Z</time>
      </trkpt>
      <trkpt lat="45.98441" lon="6.82315">
        <ele>2091</ele>
        <time>2022-07-15T14:34:50Z</time>
      </trkpt>
      <trkpt lat="45.98437" lon="6.82309">
        <ele>2091</ele>
        <time>2022-07-15T14:34:55Z</time>
      </trkpt>
      <trkpt lat="45.98431" lon="6.82306">
        <ele>2091</ele>
        <time>2022-07-15T14:35:02Z</time>
      </trkpt>
      <trkpt lat="45.98409" lon="6.82288">
        <ele>2094</ele>
        <time>2022-07-15T14:35:34Z</time>
      </trkpt>
      <trkpt lat="45.98407" lon="6.82284">
        <ele>2095</ele>
        <time>2022-07-15T14:35:41Z</time>
      </trkpt>
      <trkpt lat="45.98402" lon="6.82281">
        <ele>2095</ele>
        <time>2022-07-15T14:35:45Z</time>
      </trkpt>
      <trkpt lat="45.98398" lon="6.8228">
        <ele>2094</ele>
        <time>2022-07-15T14:35:50Z</time>
      </trkpt>
      <trkpt lat="45.98394" lon="6.82273">
        <ele>2094</ele>
        <time>2022-07-15T14:35:57Z</time>
      </trkpt>
      <trkpt lat="45.9839" lon="6.82269">
        <ele>2094</ele>
        <time>2022-07-15T14:35:59Z</time>
      </trkpt>
      <trkpt lat="45.98387" lon="6.8226">
        <ele>2095</ele>
        <time>2022-07-15T14:36:08Z</time>
      </trkpt>
      <trkpt lat="45.98386" lon="6.82254">
        <ele>2095</ele>
        <time>2022-07-15T14:36:13Z</time>
      </trkpt>
      <trkpt lat="45.98381" lon="6.82252">
        <ele>2095</ele>
        <time>2022-07-15T14:36:18Z</time>
      </trkpt>
      <trkpt lat="45.98377" lon="6.82246">
        <ele>2095</ele>
        <time>2022-07-15T14:36:25Z</time>
      </trkpt>
      <trkpt lat="45.98375" lon="6.82232">
        <ele>2095</ele>
        <time>2022-07-15T14:36:37Z</time>
      </trkpt>
      <trkpt lat="45.98375" lon="6.82221">
        <ele>2095</ele>
        <time>2022-07-15T14:36:47Z</time>
      </trkpt>
      <trkpt lat="45.98376" lon="6.82214">
        <ele>2096</ele>
        <time>2022-07-15T14:36:54Z</time>
      </trkpt>
      <trkpt lat="45.98374" lon="6.82202">
        <ele>2097</ele>
        <time>2022-07-15T14:37:04Z</time>
      </trkpt>
      <trkpt lat="45.98375" lon="6.82183">
        <ele>2098</ele>
        <time>2022-07-15T14:37:21Z</time>
      </trkpt>
      <trkpt lat="45.98376" lon="6.82174">
        <ele>2098</ele>
        <time>2022-07-15T14:37:29Z</time>
      </trkpt>
      <trkpt lat="45.98373" lon="6.82169">
        <ele>2098</ele>
        <time>2022-07-15T14:37:34Z</time>
      </trkpt>
      <trkpt lat="45.98375" lon="6.82161">
        <ele>2098</ele>
        <time>2022-07-15T14:37:42Z</time>
      </trkpt>
      <trkpt lat="45.98379" lon="6.82155">
        <ele>2097</ele>
        <time>2022-07-15T14:37:46Z</time>
      </trkpt>
      <trkpt lat="45.98386" lon="6.82149">
        <ele>2097</ele>
        <time>2022-07-15T14:37:55Z</time>
      </trkpt>
      <trkpt lat="45.9839" lon="6.8214">
        <ele>2097</ele>
        <time>2022-07-15T14:38:03Z</time>
      </trkpt>
      <trkpt lat="45.98392" lon="6.82127">
        <ele>2097</ele>
        <time>2022-07-15T14:38:12Z</time>
      </trkpt>
      <trkpt lat="45.98394" lon="6.82121">
        <ele>2097</ele>
        <time>2022-07-15T14:38:17Z</time>
      </trkpt>
      <trkpt lat="45.98395" lon="6.82113">
        <ele>2097</ele>
        <time>2022-07-15T14:38:23Z</time>
      </trkpt>
      <trkpt lat="45.98392" lon="6.82105">
        <ele>2097</ele>
        <time>2022-07-15T14:38:29Z</time>
      </trkpt>
      <trkpt lat="45.9839" lon="6.82088">
        <ele>2097</ele>
        <time>2022-07-15T14:38:44Z</time>
      </trkpt>
      <trkpt lat="45.98389" lon="6.82082">
        <ele>2098</ele>
        <time>2022-07-15T14:38:49Z</time>
      </trkpt>
      <trkpt lat="45.9839" lon="6.8207">
        <ele>2098</ele>
        <time>2022-07-15T14:38:59Z</time>
      </trkpt>
      <trkpt lat="45.98393" lon="6.82062">
        <ele>2098</ele>
        <time>2022-07-15T14:39:08Z</time>
      </trkpt>
      <trkpt lat="45.98397" lon="6.82048">
        <ele>2099</ele>
        <time>2022-07-15T14:39:20Z</time>
      </trkpt>
      <trkpt lat="45.98401" lon="6.82033">
        <ele>2099</ele>
        <time>2022-07-15T14:39:33Z</time>
      </trkpt>
      <trkpt lat="45.98406" lon="6.82033">
        <ele>2099</ele>
        <time>2022-07-15T14:39:48Z</time>
      </trkpt>
      <trkpt lat="45.98411" lon="6.82026">
        <ele>2100</ele>
        <time>2022-07-15T14:39:57Z</time>
      </trkpt>
      <trkpt lat="45.98414" lon="6.8202">
        <ele>2100</ele>
        <time>2022-07-15T14:40:02Z</time>
      </trkpt>
      <trkpt lat="45.9842" lon="6.8202">
        <ele>2100</ele>
        <time>2022-07-15T14:40:10Z</time>
      </trkpt>
      <trkpt lat="45.98424" lon="6.8201">
        <ele>2100</ele>
        <time>2022-07-15T14:40:20Z</time>
      </trkpt>
      <trkpt lat="45.98428" lon="6.82005">
        <ele>2101</ele>
        <time>2022-07-15T14:40:37Z</time>
      </trkpt>
      <trkpt lat="45.98433" lon="6.82005">
        <ele>2100</ele>
        <time>2022-07-15T14:42:35Z</time>
      </trkpt>
      <trkpt lat="45.98431" lon="6.82004">
        <ele>2100</ele>
        <time>2022-07-15T14:54:44Z</time>
      </trkpt>
      <trkpt lat="45.98433" lon="6.82004">
        <ele>2100</ele>
        <time>2022-07-15T14:57:26Z</time>
      </trkpt>
    </trkseg>
  </trk>
  <rte>
    <name><![CDATA[4 avr. 2019 à 23:11:12]]></name>
    <cmt><![CDATA[4 avr. 2019 à 23:11:12]]></cmt>
    <desc><![CDATA[{DC1}Heure de fin	: 
Durée totale	: 0h00:00
Moyenne globale	: -
Pente moyenne	: 0.00 %
Aire incluse	: 7.4932 ha
Détails par segments
distance  | durée    | vit.moy. | vit.max. | déniv. + | déniv -
   km     | hh:mn:ss |   km/h   |   km/h   |    m     |    m
     0.81 | 00:00:00 |      0.0 |      0.0 |        0 |        0{DC2}]]></desc>
      <rtept lat="45.60077" lon="6.18221">
        <ele>1608.6</ele>
      </rtept>
      <rtept lat="45.59468" lon="6.1822">
        <ele>1760.9</ele>
      </rtept>
      <rtept lat="45.59468" lon="6.1822">
        <ele>1760.9</ele>
      </rtept>
    </rte>
  <rte>
    <name><![CDATA[10 févr. 2019 à 15:16:12]]></name>
    <cmt><![CDATA[10 févr. 2019 à 15:16:12]]></cmt>
    <desc><![CDATA[{DC1}Heure de fin	: 00:09:21
Durée totale	: -17690439h43:48
Moyenne globale	: -
Pente moyenne	: 7.00 %
Aire incluse	: 221.0936 ha
Détails par segments
distance  | durée    | vit.moy. | vit.max. | déniv. + | déniv -
   km     | hh:mn:ss |   km/h   |   km/h   |    m     |    m
     7.48 | 00:00:00 |      0.0 |      0.0 |        0 |        0{DC2}]]></desc>
      <rtept lat="45.55203" lon="5.93805">
        <ele>376</ele>
      </rtept>
      <rtept lat="45.55177" lon="5.93873">
        <ele>369</ele>
      </rtept>
      <rtept lat="45.55176" lon="5.93942">
        <ele>367</ele>
      </rtept>
      <rtept lat="45.55105" lon="5.93942">
        <ele>367</ele>
      </rtept>
      <rtept lat="45.54993" lon="5.93908">
        <ele>371</ele>
      </rtept>
      <rtept lat="45.54929" lon="5.94099">
        <ele>370</ele>
      </rtept>
      <rtept lat="45.54908" lon="5.94204">
        <ele>367</ele>
      </rtept>
      <rtept lat="45.54991" lon="5.94287">
        <ele>365</ele>
      </rtept>
      <rtept lat="45.5506" lon="5.94384">
        <ele>361</ele>
      </rtept>
      <rtept lat="45.55147" lon="5.94384">
        <ele>357</ele>
      </rtept>
      <rtept lat="45.55129" lon="5.94607">
        <ele>358</ele>
      </rtept>
      <rtept lat="45.55029" lon="5.94809">
        <ele>355</ele>
      </rtept>
      <rtept lat="45.54884" lon="5.94886">
        <ele>346</ele>
      </rtept>
      <rtept lat="45.5477" lon="5.94931">
        <ele>342</ele>
      </rtept>
      <rtept lat="45.5468" lon="5.95004">
        <ele>339</ele>
      </rtept>
      <rtept lat="45.54596" lon="5.95133">
        <ele>340</ele>
      </rtept>
      <rtept lat="45.54446" lon="5.95195">
        <ele>343</ele>
      </rtept>
      <rtept lat="45.543" lon="5.95262">
        <ele>344</ele>
      </rtept>
      <rtept lat="45.54156" lon="5.95212">
        <ele>337</ele>
      </rtept>
      <rtept lat="45.54041" lon="5.95204">
        <ele>338</ele>
      </rtept>
      <rtept lat="45.53917" lon="5.95141">
        <ele>343</ele>
      </rtept>
      <rtept lat="45.53844" lon="5.95135">
        <ele>347</ele>
      </rtept>
      <rtept lat="45.53765" lon="5.9503">
        <ele>349</ele>
      </rtept>
      <rtept lat="45.5381" lon="5.94993">
        <ele>352</ele>
      </rtept>
      <rtept lat="45.53781" lon="5.94901">
        <ele>358</ele>
      </rtept>
      <rtept lat="45.53711" lon="5.94845">
        <ele>365</ele>
      </rtept>
      <rtept lat="45.53702" lon="5.94764">
        <ele>369</ele>
      </rtept>
      <rtept lat="45.53817" lon="5.94807">
        <ele>376</ele>
      </rtept>
      <rtept lat="45.53865" lon="5.94633">
        <ele>389</ele>
      </rtept>
      <rtept lat="45.53778" lon="5.94491">
        <ele>408</ele>
      </rtept>
      <rtept lat="45.53757" lon="5.94371">
        <ele>425</ele>
      </rtept>
      <rtept lat="45.53775" lon="5.94279">
        <ele>434</ele>
      </rtept>
      <rtept lat="45.53726" lon="5.94227">
        <ele>442</ele>
      </rtept>
      <rtept lat="45.53572" lon="5.94146">
        <ele>468</ele>
      </rtept>
      <rtept lat="45.53664" lon="5.94039">
        <ele>483</ele>
      </rtept>
      <rtept lat="45.53532" lon="5.93983">
        <ele>505</ele>
      </rtept>
      <rtept lat="45.53416" lon="5.93985">
        <ele>516</ele>
      </rtept>
      <rtept lat="45.5355" lon="5.93869">
        <ele>532</ele>
      </rtept>
      <rtept lat="45.5359" lon="5.93845">
        <ele>537</ele>
      </rtept>
      <rtept lat="45.5355" lon="5.93802">
        <ele>544</ele>
      </rtept>
      <rtept lat="45.53724" lon="5.93554">
        <ele>587</ele>
      </rtept>
      <rtept lat="45.53691" lon="5.93339">
        <ele>592</ele>
      </rtept>
      <rtept lat="45.5376" lon="5.93178">
        <ele>575</ele>
      </rtept>
      <rtept lat="45.53843" lon="5.93069">
        <ele>555</ele>
      </rtept>
      <rtept lat="45.53939" lon="5.93157">
        <ele>541</ele>
      </rtept>
      <rtept lat="45.54068" lon="5.93234">
        <ele>522</ele>
      </rtept>
      <rtept lat="45.54219" lon="5.93247">
        <ele>514</ele>
      </rtept>
      <rtept lat="45.54355" lon="5.93232">
        <ele>512</ele>
      </rtept>
      <rtept lat="45.54489" lon="5.9326">
        <ele>508</ele>
      </rtept>
      <rtept lat="45.54636" lon="5.93249">
        <ele>510</ele>
      </rtept>
      <rtept lat="45.54758" lon="5.93249">
        <ele>510</ele>
      </rtept>
      <rtept lat="45.54818" lon="5.93298">
        <ele>507</ele>
      </rtept>
      <rtept lat="45.54796" lon="5.93418">
        <ele>496</ele>
      </rtept>
      <rtept lat="45.5491" lon="5.93433">
        <ele>483</ele>
      </rtept>
      <rtept lat="45.55126" lon="5.9341">
        <ele>463</ele>
      </rtept>
      <rtept lat="45.55256" lon="5.93453">
        <ele>444</ele>
      </rtept>
      <rtept lat="45.55329" lon="5.93558">
        <ele>430</ele>
      </rtept>
      <rtept lat="45.55222" lon="5.93642">
        <ele>415</ele>
      </rtept>
      <rtept lat="45.55195" lon="5.93811">
        <ele>375</ele>
      </rtept>
    </rte>
  <rte>
    <name><![CDATA[10 févr. 2019 à 15:15:48]]></name>
    <cmt><![CDATA[10 févr. 2019 à 15:15:48]]></cmt>
    <desc><![CDATA[{DC1}Heure de fin	: 00:09:21
Durée totale	: -17690439h44:12
Moyenne globale	: -
Pente moyenne	: nan %
Aire incluse	: 0.0000 ha
Détails par segments
distance  | durée    | vit.moy. | vit.max. | déniv. + | déniv -
   km     | hh:mn:ss |   km/h   |   km/h   |    m     |    m
     0.00 | 00:00:00 |      0.0 |      0.0 |        0 |        0{DC2}]]></desc>
      <rtept lat="45.5175" lon="5.93483">
        <ele>732.3</ele>
      </rtept>
    </rte>
  <rte>
    <name><![CDATA[10 févr. 2019 à 15:06:08]]></name>
    <cmt><![CDATA[10 févr. 2019 à 15:06:08]]></cmt>
    <desc><![CDATA[{DC1}Heure de fin	: 
Durée totale	: 0h00:00
Moyenne globale	: -
Pente moyenne	: 8.03 %
Aire incluse	: 204.0794 ha
Détails par segments
distance  | durée    | vit.moy. | vit.max. | déniv. + | déniv -
   km     | hh:mn:ss |   km/h   |   km/h   |    m     |    m
    12.88 | 00:00:00 |      0.0 |      0.0 |        0 |        0{DC2}]]></desc>
      <rtept lat="45.5509" lon="5.9394">
        <ele>368</ele>
      </rtept>
      <rtept lat="45.55217" lon="5.93791">
        <ele>377</ele>
      </rtept>
    </rte>
  <rte>
    <name><![CDATA[10 févr. 2019 à 14:22:06]]></name>
    <cmt><![CDATA[10 févr. 2019 à 14:22:06]]></cmt>
    <desc><![CDATA[{DC1}Heure de fin	: 00:09:21
Durée totale	: -17690438h37:54
Moyenne globale	: -
Pente moyenne	: 5.62 %
Aire incluse	: 5.7967 ha
Détails par segments
distance  | durée    | vit.moy. | vit.max. | déniv. + | déniv -
   km     | hh:mn:ss |   km/h   |   km/h   |    m     |    m
     3.30 | 00:00:00 |      0.0 |      0.0 |        0 |        0{DC2}]]></desc>
      <rtept lat="45.55169" lon="5.93089">
        <ele>415</ele>
      </rtept>
      <rtept lat="45.5518" lon="5.93905">
        <ele>366</ele>
      </rtept>
    </rte>
  <rte>
    <name><![CDATA[10 févr. 2019 à 09:50:45]]></name>
    <cmt><![CDATA[10 févr. 2019 à 09:50:45]]></cmt>
    <desc><![CDATA[{DC1}Heure de fin	: 00:09:21
Durée totale	: -17690433h09:14
Moyenne globale	: -
Pente moyenne	: 0.00 %
Aire incluse	: 50.7119 ha
Détails par segments
distance  | durée    | vit.moy. | vit.max. | déniv. + | déniv -
   km     | hh:mn:ss |   km/h   |   km/h   |    m     |    m
     4.33 | 00:00:00 |      0.0 |      0.0 |        0 |        0{DC2}]]></desc>
      <rtept lat="45.5503" lon="5.93918">
        <ele>373.6</ele>
      </rtept>
      <rtept lat="45.55191" lon="5.93893">
        <ele>366.7</ele>
      </rtept>
    </rte>
  <rte>
    <name><![CDATA[10 févr. 2019 à 09:07:08]]></name>
    <cmt><![CDATA[10 févr. 2019 à 09:07:08]]></cmt>
    <desc><![CDATA[{DC1}Heure de fin	: 00:09:21
Durée totale	: -17690433h52:52
Moyenne globale	: -
Pente moyenne	: nan %
Aire incluse	: 0.0000 ha
Détails par segments
distance  | durée    | vit.moy. | vit.max. | déniv. + | déniv -
   km     | hh:mn:ss |   km/h   |   km/h   |    m     |    m
     0.00 | 00:00:00 |      0.0 |      0.0 |        0 |        0{DC2}]]></desc>
      <rtept lat="45.55102" lon="5.93919">
        <ele>370.1</ele>
      </rtept>
    </rte>
  <rte>
    <name><![CDATA[10 févr. 2019 à 09:02:25]]></name>
    <cmt><![CDATA[10 févr. 2019 à 09:02:25]]></cmt>
    <desc><![CDATA[{DC1}Heure de fin	: 00:09:21
Durée totale	: -17690433h57:35
Moyenne globale	: -
Pente moyenne	: nan %
Aire incluse	: 0.0000 ha
Détails par segments
distance  | durée    | vit.moy. | vit.max. | déniv. + | déniv -
   km     | hh:mn:ss |   km/h   |   km/h   |    m     |    m
     0.00 | 00:00:00 |      0.0 |      0.0 |        0 |        0{DC2}]]></desc>
      <rtept lat="45.55207" lon="5.93813">
        <ele>375.2</ele>
      </rtept>
    </rte>
  <rte>
    <name><![CDATA[10 févr. 2019 à 09:00:27]]></name>
    <cmt><![CDATA[10 févr. 2019 à 09:00:27]]></cmt>
    <desc><![CDATA[{DC1}Heure de fin	: 00:09:21
Durée totale	: -17690433h59:32
Moyenne globale	: -
Pente moyenne	: nan %
Aire incluse	: 0.0000 ha
Détails par segments
distance  | durée    | vit.moy. | vit.max. | déniv. + | déniv -
   km     | hh:mn:ss |   km/h   |   km/h   |    m     |    m
     0.00 | 00:00:00 |      0.0 |      0.0 |        0 |        0{DC2}]]></desc>
      <rtept lat="45.55244" lon="5.93858">
        <ele>366.6</ele>
      </rtept>
    </rte>
</gpx>